[[{"header":{"parameterUnit":"m.s-1","parameterCategory":1,"la1":30.6,"la2":29.2853,"lo1":-89.7004,"lo2":-87.6739,"dy":0.0162,"dx":0.0183,"nx":112,"ny":82,"refTime":"2024-09-06T12:00:00:Z","depth":0,"parameterNumber":2,"parameterNumberName":"U-component_of_WINDS"},"data":[0.0,0.0,0.0,0.0,0.0,0.0,0.0,0.0,0.0,0.0,0.0,0.0,0.0,0.0,0.0,0.0,0.0,0.0,0.0,0.0,0.0,0.0,0.0,0.0,0.0,0.0,0.0,0.0,0.0,0.0,0.0,0.0,0.0,0.0,0.0,0.0,0.0,0.0,0.0,0.0,0.0,0.0,0.0,0.0,0.0,0.0,0.0,0.0,0.0,0.0,0.0,0.0,0.0,0.0,0.0,0.0,0.0,0.0,0.0,0.0,0.0,0.0,0.0,0.0,0.0,0.0,0.0,0.0,0.0,0.0,0.0,0.0,0.0,0.0,0.0,0.0,0.0,0.0,0.0,0.0,0.0,0.0,0.0,0.0,0.0,0.0,0.0,0.0,0.0,0.0,1.7334,1.8529,1.9697,2.0386,2.0434,1.9624,1.8778,1.8016,0.0,0.0,0.0,0.0,0.0,0.0,0.0,0.0,0.0,0.0,0.0,0.0,0.0,0.0,0.0,0.0,0.0,0.0,0.0,0.0,0.0,0.0,0.0,0.0,0.0,0.0,0.0,0.0,0.0,0.0,0.0,0.0,0.0,0.0,0.0,0.0,0.0,0.0,0.0,0.0,0.0,0.0,0.0,0.0,0.0,0.0,0.0,0.0,0.0,0.0,0.0,0.0,0.0,0.0,0.0,0.0,0.0,0.0,0.0,0.0,0.0,0.0,0.0,0.0,0.0,0.0,0.0,0.0,0.0,0.0,0.0,0.0,0.0,0.0,0.0,0.0,0.0,0.0,0.0,0.0,0.0,0.0,0.0,0.0,0.0,0.0,0.0,0.0,0.0,0.0,0.0,0.0,0.0,0.0,0.0,0.0,0.0,0.0,0.0,0.0,0.0,0.0,0.0,0.0,1.8403,2.0156,2.0519,2.0736,2.0954,1.983,1.8862,1.8263,0.0,0.0,0.0,0.0,0.0,0.0,0.0,0.0,0.0,0.0,0.0,0.0,0.0,0.0,0.0,0.0,0.0,0.0,0.0,0.0,0.0,0.0,0.0,0.0,0.0,0.0,0.0,0.0,0.0,0.0,0.0,0.0,0.0,0.0,0.0,0.0,0.0,0.0,0.0,0.0,0.0,0.0,0.0,0.0,0.0,0.0,0.0,0.0,0.0,0.0,0.0,0.0,0.0,0.0,0.0,0.0,0.0,0.0,0.0,0.0,0.0,0.0,0.0,0.0,0.0,0.0,0.0,0.0,0.0,0.0,0.0,0.0,0.0,0.0,0.0,0.0,0.0,0.0,0.0,0.0,0.0,0.0,0.0,0.0,0.0,0.0,0.0,0.0,0.0,0.0,0.0,0.0,0.0,0.0,0.0,0.0,0.0,0.0,0.0,0.0,0.0,0.0,0.0,1.7835,1.9056,2.035,2.0616,2.0688,2.0676,1.9709,1.8814,1.8137,1.6722,0.0,0.0,0.0,0.0,0.0,0.0,0.0,0.0,0.0,0.0,0.0,0.0,0.0,0.0,0.0,0.0,0.0,0.0,0.0,0.0,0.0,0.0,0.0,0.0,0.0,0.0,0.0,0.0,0.0,0.0,0.0,0.0,0.0,0.0,0.0,0.0,0.0,0.0,0.0,0.0,0.0,0.0,0.0,0.0,0.0,0.0,0.0,0.0,0.0,0.0,0.0,0.0,0.0,0.0,0.0,0.0,0.0,0.0,0.0,0.0,0.0,0.0,0.0,0.0,0.0,0.0,0.0,0.0,0.0,0.0,0.0,0.0,0.0,0.0,0.0,0.0,0.0,0.0,0.0,0.0,0.0,0.0,0.0,0.0,0.0,0.0,0.0,0.0,0.0,0.0,0.0,0.0,0.0,0.0,0.0,0.0,0.0,0.0,0.0,0.0,0.0,0.0,1.8705,1.9539,2.0398,2.0676,2.0688,2.0422,1.9612,1.8741,1.7871,1.6565,0.0,0.0,0.0,0.0,0.0,0.0,0.0,0.0,0.0,0.0,0.0,0.0,0.0,0.0,0.0,0.0,0.0,0.0,0.0,0.0,0.0,0.0,0.0,0.0,0.0,0.0,0.0,0.0,0.0,0.0,0.0,0.0,0.0,0.0,0.0,0.0,0.0,0.0,0.0,0.0,0.0,0.0,0.0,0.0,0.0,0.0,0.0,0.0,0.0,0.0,0.0,0.0,0.0,0.0,0.0,0.0,0.0,0.0,0.0,0.0,0.0,0.0,0.0,0.0,0.0,0.0,0.0,0.0,0.0,0.0,0.0,0.0,0.0,0.0,0.0,0.0,0.0,0.0,0.0,0.0,0.0,0.0,0.0,0.0,0.0,0.0,0.0,0.0,0.0,0.0,0.0,0.0,0.0,0.0,0.0,0.0,0.0,0.0,0.0,0.0,0.0,0.0,1.8983,1.9878,2.093,2.1051,2.0966,2.07,1.9709,1.8657,1.7575,1.626,0.0,0.0,0.0,0.0,0.0,0.0,0.0,0.0,0.0,0.0,0.0,0.0,0.0,0.0,0.0,0.0,0.0,0.0,0.0,0.0,0.0,0.0,0.0,0.0,0.0,0.0,0.0,0.0,0.0,0.0,0.0,0.0,0.0,0.0,0.0,0.0,0.0,0.0,0.0,0.0,0.0,0.0,0.0,0.0,0.0,0.0,0.0,0.0,0.0,0.0,0.0,0.0,0.0,0.0,0.0,0.0,0.0,0.0,0.0,0.0,0.0,0.0,0.0,0.0,0.0,0.0,0.0,0.0,0.0,0.0,0.0,0.0,0.0,0.0,0.0,0.0,0.0,0.0,0.0,0.0,0.0,0.0,0.0,0.0,0.0,0.0,0.0,0.0,0.0,0.0,0.0,0.0,0.0,0.0,0.0,0.0,0.0,0.0,0.0,0.0,0.0,0.0,1.9165,2.0047,2.0773,2.1002,2.0857,2.0265,1.9527,1.8584,1.7322,0.0,0.0,0.0,0.0,0.0,0.0,0.0,0.0,0.0,0.0,0.0,0.0,0.0,0.0,0.0,0.0,0.0,0.0,0.0,0.0,0.0,0.0,0.0,0.0,0.0,0.0,0.0,0.0,0.0,0.0,0.0,0.0,0.0,0.0,0.0,0.0,0.0,0.0,0.0,0.0,0.0,0.0,0.0,0.0,0.0,0.0,0.0,0.0,0.0,0.0,0.0,0.0,0.0,0.0,0.0,0.0,0.0,0.0,0.0,0.0,0.0,0.0,0.0,0.0,0.0,0.0,0.0,0.0,0.0,0.0,0.0,0.0,0.0,0.0,0.0,0.0,0.0,0.0,0.0,0.0,0.0,0.0,0.0,0.0,0.0,0.0,0.0,0.0,0.0,0.0,0.0,0.0,0.0,0.0,0.0,0.0,0.0,0.0,0.0,0.0,0.0,0.0,1.8118,1.9301,2.0217,2.0652,2.1015,2.0906,2.0108,1.9467,1.8536,1.7177,0.0,0.0,0.0,0.0,0.0,0.0,0.0,0.0,0.0,0.0,0.0,0.0,0.0,0.0,0.0,0.0,0.0,0.0,0.0,0.0,0.0,0.0,0.0,0.0,0.0,0.0,0.0,0.0,0.0,0.0,0.0,0.0,0.0,0.0,0.0,0.0,0.0,0.0,0.0,0.0,0.0,0.0,0.0,0.0,0.0,0.0,0.0,0.0,0.0,0.0,0.0,0.0,0.0,0.0,0.0,0.0,0.0,0.0,0.0,0.0,0.0,0.0,0.0,0.0,0.0,0.0,0.0,0.0,0.0,0.0,0.0,0.0,0.0,0.0,0.0,0.0,0.0,0.0,0.0,0.0,0.0,0.0,0.0,0.0,0.0,0.0,0.0,0.0,0.0,0.0,0.0,0.0,0.0,0.0,0.0,0.0,0.0,0.0,0.0,0.0,0.0,0.0,1.8118,1.9458,2.0422,2.0676,2.1196,2.1148,2.0386,1.9576,1.8536,0.0,0.0,0.0,0.0,0.0,0.0,0.0,0.0,0.0,0.0,0.0,0.0,0.0,0.0,0.0,0.0,0.0,0.0,0.0,0.0,0.0,0.0,0.0,0.0,0.0,0.0,0.0,0.0,0.0,0.0,0.0,0.0,0.0,0.0,0.0,0.0,0.0,0.0,0.0,0.0,0.0,0.0,0.0,0.0,0.0,0.0,0.0,0.0,0.0,0.0,0.0,0.0,0.0,0.0,0.0,0.0,0.0,0.0,0.0,0.0,0.0,0.0,0.0,0.0,0.0,0.0,0.0,0.0,0.0,0.0,0.0,0.0,0.0,0.0,0.0,0.0,0.0,0.0,0.0,0.0,0.0,0.0,0.0,0.0,0.0,0.0,0.0,0.0,0.0,0.0,0.0,0.0,0.0,0.0,0.0,0.0,0.0,0.0,0.0,0.0,0.0,0.0,0.0,1.8143,1.9648,2.0616,2.0688,2.1196,2.1148,2.0386,1.9576,1.862,1.7443,0.0,0.0,0.0,0.0,0.0,0.0,0.0,0.0,0.0,0.0,0.0,0.0,0.0,0.0,0.0,0.0,0.0,0.0,0.0,0.0,0.0,0.0,0.0,0.0,0.0,0.0,0.0,0.0,0.0,0.0,0.0,0.0,0.0,0.0,0.0,0.0,0.0,0.0,0.0,0.0,0.0,0.0,0.0,0.0,0.0,0.0,0.0,0.0,0.0,0.0,0.0,0.0,0.0,0.0,0.0,0.0,0.0,0.0,0.0,0.0,0.0,0.0,0.0,0.0,0.0,0.0,0.0,0.0,0.0,0.0,0.0,0.0,0.0,0.0,0.0,0.0,0.0,0.0,0.0,0.0,0.0,0.0,0.0,0.0,0.0,0.0,0.0,0.0,0.0,0.0,0.0,0.0,0.0,0.0,0.0,0.0,0.0,0.0,0.0,0.0,0.0,0.0,1.83,1.9781,2.07,2.07,2.1196,2.1232,2.0531,1.9721,1.8802,1.7738,0.0,0.0,0.0,0.0,0.0,0.0,0.0,0.0,0.0,0.0,0.0,0.0,0.0,0.0,0.0,0.0,0.0,0.0,0.0,0.0,0.0,0.0,0.0,0.0,0.0,0.0,0.0,0.0,0.0,0.0,0.0,0.0,0.0,0.0,0.0,0.0,0.0,0.0,0.0,0.0,0.0,0.0,0.0,0.0,0.0,0.0,0.0,0.0,0.0,0.0,0.0,0.0,0.0,0.0,0.0,0.0,0.0,0.0,0.0,0.0,0.0,0.0,0.0,0.0,0.0,0.0,0.0,0.0,0.0,0.0,0.0,0.0,0.0,0.0,0.0,0.0,0.0,0.0,0.0,0.0,0.0,0.0,0.0,0.0,0.0,0.0,0.0,0.0,0.0,0.0,0.0,0.0,0.0,0.0,0.0,0.0,0.0,0.0,0.0,0.0,0.0,0.0,1.8553,1.9914,2.0736,2.0736,2.1208,2.1293,2.0749,1.9963,1.9068,1.804,0.0,0.0,0.0,0.0,0.0,0.0,0.0,0.0,0.0,0.0,0.0,0.0,0.0,0.0,0.0,0.0,0.0,0.0,0.0,0.0,0.0,0.0,0.0,0.0,0.0,0.0,0.0,0.0,0.0,0.0,0.0,0.0,0.0,0.0,0.0,0.0,0.0,0.0,0.0,0.0,0.0,0.0,0.0,0.0,0.0,0.0,0.0,0.0,0.0,0.0,0.0,0.0,0.0,0.0,0.0,0.0,0.0,0.0,0.0,0.0,1.7948,1.7163,0.0,0.0,0.0,0.0,0.0,0.0,0.0,0.0,0.0,0.0,0.0,0.0,0.0,0.0,0.0,0.0,0.0,0.0,0.0,0.0,0.0,0.0,0.0,0.0,0.0,0.0,0.0,0.0,0.0,0.0,0.0,0.0,0.0,0.0,0.0,0.0,0.0,0.0,0.0,0.0,1.885,2.018,2.1015,2.1015,2.1317,2.1293,2.0749,1.9963,1.9225,1.8584,1.7056,0.0,0.0,0.0,0.0,0.0,0.0,0.0,0.0,0.0,0.0,0.0,0.0,0.0,0.0,0.0,0.0,0.0,0.0,0.0,0.0,0.0,0.0,0.0,0.0,0.0,0.0,0.0,0.0,0.0,0.0,0.0,0.0,0.0,0.0,0.0,0.0,0.0,0.0,0.0,0.0,0.0,0.0,0.0,0.0,0.0,0.0,0.0,0.0,0.0,0.0,0.0,0.0,0.0,0.0,0.0,0.0,0.0,0.0,0.0,1.9344,1.8535,0.0,0.0,0.0,0.0,0.0,0.0,0.0,0.0,0.0,0.0,0.0,0.0,0.0,0.0,0.0,0.0,0.0,0.0,0.0,0.0,0.0,0.0,0.0,0.0,0.0,0.0,0.0,0.0,0.0,0.0,0.0,0.0,0.0,0.0,0.0,0.0,0.0,0.0,0.0,0.0,1.8583,1.9803,2.0533,2.0533,2.0768,2.0709,2.0215,1.9832,1.925,1.8427,1.7511,0.0,0.0,0.0,0.0,0.0,0.0,0.0,0.0,0.0,0.0,0.0,0.0,0.0,0.0,0.0,0.0,0.0,0.0,0.0,0.0,0.0,0.0,0.0,0.0,0.0,0.0,0.0,0.0,0.0,0.0,0.0,0.0,0.0,0.0,0.0,0.0,0.0,0.0,0.0,0.0,0.0,0.0,0.0,0.0,0.0,0.0,0.0,0.0,0.0,0.0,0.0,0.0,0.0,2.1321,2.1506,2.1577,2.1917,2.205,2.1997,2.0989,2.0227,1.9669,1.9263,0.0,0.0,0.0,0.0,0.0,0.0,0.0,0.0,0.0,0.0,0.0,0.0,0.0,0.0,0.0,0.0,0.0,0.0,0.0,0.0,0.0,0.0,1.6295,1.6401,1.616,1.5878,1.5821,0.0,0.0,0.0,0.0,0.0,0.0,0.0,0.0,0.0,0.0,0.0,1.807,1.9012,1.9558,1.9558,1.982,1.9802,1.9342,1.9427,1.9058,1.801,1.7782,1.7,0.0,0.0,0.0,0.0,0.0,0.0,0.0,0.0,0.0,0.0,0.0,0.0,0.0,0.0,0.0,0.0,0.0,0.0,0.0,0.0,0.0,0.0,0.0,0.0,0.0,0.0,0.0,0.0,0.0,0.0,0.0,0.0,1.6591,1.6751,0.0,0.0,0.0,0.0,0.0,0.0,0.0,0.0,0.0,0.0,0.0,0.0,0.0,2.05,2.138,2.1644,2.2069,2.2613,2.2901,2.3161,2.3469,2.3728,2.3861,2.3848,2.3688,0.0,2.0842,2.0264,0.0,0.0,0.0,0.0,0.0,0.0,0.0,0.0,0.0,0.0,0.0,0.0,0.0,0.0,0.0,0.0,0.0,0.0,0.0,0.0,0.0,0.0,1.6341,1.5842,1.5816,1.5656,1.4828,1.5103,1.5445,1.5266,1.4831,1.4551,0.0,0.0,0.0,0.0,0.0,0.0,1.7412,1.7942,1.8243,1.8243,1.8529,1.8579,1.8149,1.853,1.8426,1.7704,1.7346,1.6827,1.6025,1.5145,0.0,0.0,0.0,0.0,0.0,0.0,0.0,0.0,0.0,0.0,0.0,0.0,0.0,0.0,0.0,0.0,0.0,0.0,0.0,0.0,0.0,0.0,0.0,0.0,0.0,0.0,0.0,0.0,0.0,1.6622,1.7526,1.7889,1.7929,1.7876,0.0,0.0,0.0,0.0,0.0,0.0,0.0,0.0,0.0,2.1256,2.1691,2.2311,2.3033,2.3166,2.3607,2.4356,2.4489,2.4796,2.5275,2.5248,2.5222,2.5184,2.4785,2.3964,2.2898,2.2065,2.1174,2.0271,0.0,0.0,0.0,0.0,1.8927,1.8686,1.8992,1.8753,1.821,1.7765,0.0,0.0,0.0,0.0,0.0,0.0,0.0,1.4967,1.5567,1.557,1.5403,1.5229,1.4964,1.467,1.4549,1.4515,1.4479,1.4334,1.4285,1.4202,1.3927,1.4014,0.0,0.0,0.0,1.5385,1.5923,1.6457,1.6721,1.6646,1.6783,1.6795,1.6632,1.6997,1.7056,1.6628,1.6439,1.5969,1.5115,1.4557,1.4153,0.0,0.0,0.0,0.0,0.0,0.0,0.0,0.0,0.0,0.0,0.0,0.0,0.0,0.0,0.0,0.0,0.0,0.0,0.0,0.0,0.0,0.0,0.0,0.0,0.0,0.0,0.0,0.0,1.7502,1.8476,1.9143,1.9065,1.8971,0.0,0.0,0.0,0.0,0.0,0.0,2.0851,2.175,2.2465,2.29,2.3395,2.3879,2.4236,2.4315,2.463,2.514,2.5218,2.5478,2.5921,2.5713,2.5609,2.5596,2.4881,2.4444,2.415,2.335,2.2371,2.1291,2.1009,2.0275,1.9451,1.9923,1.9612,1.9066,1.9465,1.8992,1.8138,1.7685,1.7087,1.6287,1.4928,0.0,0.0,0.0,0.0,1.4473,1.4928,1.4779,1.451,1.4463,1.4071,1.3832,1.4114,1.3893,1.3638,1.37,1.3831,1.3808,1.3436,1.3564,0.0,1.3684,1.4,1.4319,1.4569,1.4962,1.516,1.5063,1.5123,1.5145,1.5104,1.5488,1.5635,1.5314,1.5364,1.4971,1.4108,1.3763,1.3496,1.334,0.0,0.0,0.0,0.0,0.0,0.0,0.0,0.0,0.0,0.0,0.0,0.0,0.0,0.0,0.0,0.0,0.0,0.0,0.0,0.0,0.0,0.0,0.0,0.0,0.0,0.0,0.0,0.0,0.0,2.0037,2.0117,0.0,0.0,0.0,0.0,2.0935,2.1744,2.2405,2.2746,2.3581,2.4146,2.4281,2.458,2.4585,2.4288,2.4588,2.4575,2.4166,2.442,2.4552,2.4618,2.4564,2.4594,2.4528,2.4021,2.3752,2.3735,2.348,2.2914,2.2213,2.1869,2.1125,2.0239,2.0262,1.9862,1.9282,1.9304,1.876,1.8025,1.7979,1.6748,1.5094,1.4072,1.3736,0.0,0.0,1.3868,1.4137,1.3729,1.3978,1.413,1.3368,1.3404,1.3507,1.3162,1.3042,1.3283,1.408,1.3958,1.3739,1.385,0.0,1.352,1.3844,1.3649,1.3523,1.3716,1.3679,1.3597,1.3627,1.3783,1.3835,1.3699,1.4245,1.4422,1.403,1.4113,1.3955,1.3455,1.3003,1.2734,1.2655,1.238,0.0,0.0,0.0,0.0,0.0,0.0,0.0,0.0,0.0,0.0,0.0,0.0,0.0,0.0,0.0,0.0,0.0,0.0,0.0,0.0,0.0,0.0,0.0,0.0,0.0,0.0,0.0,0.0,2.0118,2.0131,0.0,2.0485,2.0389,2.055,2.1108,2.1776,2.2371,2.288,2.3516,2.4,2.4202,2.4153,2.4101,2.3967,2.3857,2.378,2.3777,2.3858,2.4027,2.4136,2.3679,2.3485,2.342,2.2447,2.2015,2.1993,2.1654,2.1559,2.1592,2.0924,2.0184,1.9467,1.9367,1.9007,1.8577,1.8453,1.791,1.7143,1.6397,1.5196,1.4041,1.3692,1.3393,1.3188,1.3143,1.3307,1.3439,1.3272,1.3341,1.3393,1.3116,1.312,1.3184,1.3159,1.3064,1.3122,1.3505,1.3496,1.3348,1.3117,1.3176,1.3208,1.2964,1.2917,1.2868,1.2815,1.2827,1.2807,1.2754,1.2712,1.2741,1.2831,1.2958,1.3001,1.3,1.2826,1.2569,1.2195,1.2,1.1916,1.189,1.1805,1.1741,0.0,0.0,0.0,0.0,0.0,0.0,0.0,0.0,0.0,0.0,0.0,0.0,0.0,0.0,0.0,0.0,0.0,0.0,0.0,0.0,0.0,0.0,0.0,0.0,0.0,1.844,1.939,1.9872,1.9924,2.0004,2.0283,2.0363,2.0655,2.1281,2.1866,2.2397,2.28,2.3303,2.3522,2.345,2.3185,2.2849,2.2464,2.2054,2.1874,2.1905,2.1905,2.1979,2.2115,2.1625,2.1435,2.1382,2.0468,2.0073,2.0073,1.955,1.9563,1.9859,1.974,1.9163,1.8378,1.8288,1.7936,1.7403,1.6989,1.656,1.6012,1.4956,1.4121,1.3529,1.3386,1.3153,1.2927,1.2927,1.3003,1.3088,1.3088,1.3079,1.3071,1.3071,1.3111,1.3173,1.3268,1.3214,1.318,1.3234,1.3211,1.3105,1.2797,1.2847,1.2874,1.2555,1.251,1.246,1.2383,1.244,1.2467,1.2372,1.2268,1.2186,1.2293,1.2098,1.2052,1.2107,1.1867,1.1587,1.13,1.1286,1.1261,1.1228,1.1229,1.1333,1.1492,0.0,0.0,0.0,0.0,0.0,0.0,0.0,0.0,0.0,0.0,0.0,0.0,0.0,0.0,0.0,0.0,0.0,0.0,0.0,0.0,0.0,0.0,0.0,1.7166,1.8139,1.8892,1.9297,1.9517,1.9719,1.9995,2.0195,2.0626,2.1335,2.2108,2.2564,2.2564,2.2883,2.2754,2.2097,2.1619,2.0911,1.983,1.9351,1.8925,1.8453,1.8453,1.8453,1.8453,1.8444,1.8453,1.8436,1.8131,1.8044,1.7992,1.7332,1.7044,1.7171,1.8467,1.8222,1.7141,1.7141,1.6623,1.583,1.5042,1.4763,1.4635,1.3836,1.3589,1.3509,1.3116,1.3003,1.3003,1.3003,1.3003,1.3009,1.3009,1.3111,1.322,1.322,1.3295,1.3403,1.3403,1.3403,1.3403,1.3403,1.3173,1.3016,1.3009,1.2718,1.2569,1.2672,1.2488,0.0,1.2481,1.2501,1.2501,1.2501,1.2372,1.2268,1.2111,1.1796,1.1558,1.1396,1.1281,1.1104,1.0921,1.0921,1.0853,1.0698,1.0704,1.0837,1.1103,0.0,0.0,0.0,0.0,0.0,0.0,0.0,0.0,0.0,0.0,0.0,0.0,0.0,0.0,0.0,0.0,0.0,0.0,0.0,0.0,0.0,1.4806,1.5558,1.6833,1.7434,1.7832,1.8135,1.7944,1.7886,1.8129,1.8204,1.8406,1.8767,1.9179,1.9359,1.9359,1.9642,1.9689,1.9538,1.9061,1.8697,1.8366,1.7885,1.763,1.7499,1.7499,1.7499,1.7455,1.714,1.6964,1.6964,1.653,1.6375,1.6331,1.6153,1.5868,1.5664,1.6409,1.6503,1.6145,1.5683,1.5138,1.4586,1.4389,1.4023,1.3598,1.3396,1.3239,1.3156,1.3043,1.3003,1.3003,1.3003,1.3077,1.3152,1.3152,1.3227,1.3336,1.3336,1.337,1.3403,1.3403,1.3403,1.3403,1.3403,1.3336,1.3247,1.3173,1.3084,1.2929,1.272,1.2625,1.2583,1.2508,1.2501,1.2501,1.2501,1.2372,1.2268,1.2111,1.1884,1.1613,1.1281,1.1329,1.1212,1.0928,1.105,1.1036,1.0853,1.0839,1.0967,0.0,0.0,0.0,0.0,0.0,0.0,0.0,0.0,0.0,0.0,0.0,0.0,0.0,0.0,0.0,0.0,0.0,0.0,0.0,0.0,0.0,0.0,1.4605,1.5019,1.5928,1.6381,1.6651,1.6759,1.6649,1.6576,1.6734,1.6817,1.6984,1.7349,1.7578,1.7688,1.7688,1.7825,1.7797,1.7622,1.7192,1.6841,1.6621,1.6137,1.5925,1.5925,1.5925,1.5925,1.5925,1.566,1.5528,1.5521,1.5219,1.5094,1.5094,1.5094,1.4955,1.4757,0.0,0.0,0.0,0.0,1.4252,1.3958,1.3895,1.3645,1.3356,1.3288,1.3214,1.3186,1.3186,1.3186,1.3186,1.3186,1.3207,1.3268,1.3268,1.3336,1.3403,1.3403,1.3403,1.3403,1.3403,1.3403,1.3403,1.3403,1.3403,0.0,1.3281,1.3254,1.3112,1.2942,1.2807,1.2659,1.261,1.2542,1.2501,1.2501,1.2427,1.2318,1.2207,1.1959,0.0,0.0,0.0,1.1246,1.1103,1.1274,0.0,0.0,0.0,0.0,0.0,0.0,0.0,0.0,1.1783,1.1925,0.0,0.0,0.0,0.0,0.0,0.0,0.0,0.0,0.0,0.0,0.0,0.0,0.0,0.0,0.0,0.0,1.4594,1.4678,1.4784,1.5179,1.5432,1.5409,1.5551,1.565,1.565,1.5788,1.6089,1.6479,1.6665,1.6761,1.6761,1.6761,0.0,0.0,0.0,1.5352,1.4955,1.452,1.4299,1.4299,1.4299,1.4299,1.4299,1.4299,1.4299,1.4299,1.4299,1.4299,1.4299,1.4299,1.4299,1.4343,1.4778,1.4592,1.4098,1.3919,1.3815,1.3781,1.3653,0.0,0.0,1.3478,1.3424,1.3424,1.3321,1.3321,1.3314,1.3279,1.3231,1.3231,1.3231,1.3279,1.3321,1.3321,1.3321,1.3321,1.3321,1.3279,1.3231,1.3231,1.3231,1.3231,1.3231,1.3247,1.3234,1.3214,1.2949,1.2726,1.2693,1.261,1.2522,1.2501,1.2501,0.0,1.2305,1.204,1.178,1.1617,1.1389,1.1342,1.1457,1.1613,1.1694,1.1694,1.1671,1.1753,1.1895,1.1895,1.205,1.2417,1.2206,1.2226,0.0,0.0,0.0,0.0,0.0,0.0,0.0,0.0,0.0,0.0,0.0,0.0,0.0,0.0,0.0,1.415,1.4231,1.4273,1.4284,1.432,1.4521,1.4801,1.4683,1.4606,1.4606,1.4634,1.4692,1.478,1.4808,1.4829,1.4829,1.4829,1.4785,1.4697,1.4608,1.452,1.4431,1.4343,1.4299,1.4299,1.4299,0.0,1.4299,1.4299,1.4299,1.4299,1.4299,1.4299,1.4299,1.4299,1.4299,1.4299,1.4387,1.4292,1.4112,1.4084,1.3946,1.3795,1.3768,1.3754,1.3734,1.3592,1.3545,1.3476,1.298,1.2858,0.0,1.2443,1.2359,1.2359,1.2359,1.2609,1.2858,1.2858,1.2858,1.2858,1.2858,1.2567,1.2359,1.2359,1.2359,1.2359,1.2359,1.2921,1.3315,1.3234,1.3125,1.3003,1.272,1.2665,1.2637,1.2515,1.2501,1.244,1.2305,1.2237,1.2081,1.1773,1.1698,1.1769,1.1962,1.2081,1.2162,1.2162,1.2271,1.2406,1.2517,1.2517,1.2712,1.303,1.2497,1.2487,0.0,0.0,0.0,0.0,0.0,0.0,0.0,0.0,0.0,0.0,0.0,1.4047,1.4307,0.0,1.4297,1.4281,1.4196,1.4184,1.42,1.4183,1.4271,1.449,1.4384,1.4299,1.4299,1.4299,1.4299,1.4299,1.4299,1.4299,1.4299,1.4299,1.4299,1.4299,1.4299,1.4299,1.4299,1.4299,1.4299,1.4299,1.4299,1.4299,1.4299,1.4299,1.4299,1.4299,1.4299,1.4299,1.4299,1.4033,1.3812,1.3591,1.3591,1.3854,1.4183,1.4183,1.4136,1.4018,1.372,1.3607,1.3544,1.3143,1.2968,1.2855,1.2527,1.2416,1.2359,1.2152,1.211,1.211,1.211,1.2235,1.2401,1.2401,1.2401,1.2401,1.2401,1.2235,1.211,1.211,1.211,1.211,1.211,1.2443,1.279,1.2925,1.3098,1.3159,1.2969,1.2888,1.2813,1.2778,1.2732,1.2705,1.2669,1.2556,1.2413,1.2182,1.2199,1.2318,1.2393,1.2542,1.2662,1.2662,1.2737,1.2807,1.2949,1.303,1.318,1.3397,1.3173,1.3146,0.0,0.0,0.0,0.0,0.0,0.0,0.0,1.2517,1.2898,1.3434,1.3671,1.3933,1.4361,1.4249,1.4191,1.4401,1.4274,1.4156,1.4285,1.4299,1.4299,1.4299,1.4299,1.4299,1.4299,1.4299,1.4299,1.4299,1.4299,1.4299,1.4299,1.4299,1.4299,1.4299,1.4299,1.4299,1.4299,1.4299,1.4255,1.4166,1.4166,1.4122,1.4033,1.4033,1.4033,1.4033,1.4033,1.4033,1.3989,1.3502,1.3097,1.2742,1.2654,1.3053,1.3768,1.3945,1.4033,1.3969,1.3455,1.3279,1.3216,1.2644,1.2399,1.2259,1.2119,1.2047,1.2017,1.1909,1.1879,1.1897,1.1771,1.1813,1.1855,1.1771,1.1766,1.1766,1.1766,1.1682,1.1634,1.1611,1.1611,1.1599,1.1576,1.1653,1.1902,1.2484,1.2801,1.2962,1.2928,1.2828,1.2749,1.2722,1.2722,1.2722,1.2722,1.2569,1.2443,1.2323,1.2508,1.2615,1.2615,1.2882,1.3043,1.3043,1.3071,1.3105,1.3091,1.3245,1.3268,1.3252,1.339,1.3525,1.1486,1.1567,1.1804,1.2108,1.2146,1.2132,0.0,1.2388,1.2691,1.2958,1.3462,1.3867,1.3795,1.4158,1.4365,1.4187,1.4221,1.4278,1.4299,1.4299,1.4299,1.4299,1.4299,1.4299,1.4299,1.4299,1.4299,1.4299,1.4299,1.4299,1.4299,1.4299,1.4299,1.4299,1.4299,1.4299,1.4299,1.4299,1.4078,1.3679,1.3679,1.3458,1.3053,1.3053,1.3053,1.3053,1.3053,1.3053,1.3008,1.2565,1.2343,1.221,1.1766,1.1632,1.181,1.2742,1.3053,1.3053,1.299,1.2945,1.2921,1.2736,1.2637,1.2539,1.1876,1.1754,1.1727,1.1182,1.1104,1.1106,1.072,1.0843,1.1004,1.0618,1.0489,1.0489,1.0489,1.0232,0.995,0.9819,0.9799,0.977,0.9714,1.0028,1.0737,1.1986,1.2181,1.2167,1.1961,1.193,1.1881,1.1764,1.1752,1.1752,1.1752,1.174,1.1721,1.1709,1.2122,1.2328,1.2328,1.2869,1.3193,1.3193,1.3281,1.3149,1.2755,1.2898,1.2616,1.2019,1.2062,1.2817,1.1145,1.1401,1.1718,1.1861,1.216,1.235,1.2137,1.2376,1.2723,1.2923,1.3303,1.3622,1.3756,1.4046,1.4244,1.4221,1.4258,1.4299,1.4299,1.4224,1.4163,1.4163,1.4089,1.4102,1.4285,1.4299,1.4299,1.4299,1.4299,1.4299,1.4299,1.4299,1.4166,1.3901,1.3901,1.3768,1.3502,1.3502,1.3413,1.3186,1.292,1.2698,1.2476,1.2165,1.2032,1.2032,1.2032,1.1855,1.1588,1.1094,1.0782,1.0421,0.9665,0.9348,0.9576,1.136,1.2032,1.1988,1.1721,1.1632,1.1577,1.1218,1.111,1.0991,1.0722,1.0594,1.0525,1.0265,1.0242,1.0191,0.9716,0.9716,0.9711,0.9194,0.9064,0.9064,0.9064,0.8719,0.8404,0.8367,0.8103,0.7932,0.7892,0.8013,0.8311,0.8892,1.0273,1.1256,1.1163,1.1157,1.1134,1.1089,1.1083,1.1083,1.1083,1.1083,1.1083,1.1083,1.1247,1.137,1.137,1.1623,1.1735,1.1735,1.1861,1.1843,1.1633,1.1544,1.1318,1.1025,1.0874,1.097,1.0898,1.1312,1.1684,1.179,1.2232,1.2546,1.2319,1.2562,1.2881,1.3037,1.3254,1.3532,1.37,1.3905,1.4061,1.4211,1.4238,1.4251,1.4292,1.4082,1.3894,1.3894,1.3631,1.3538,1.3799,1.4079,1.4251,1.4299,1.4299,1.4255,1.4122,1.3989,1.3679,1.323,1.3053,1.2831,1.2476,1.2476,1.2432,1.2299,1.1804,1.1538,1.136,1.0738,1.0377,1.0248,1.0248,1.007,0.9714,0.9219,0.8725,0.8234,0.7431,0.7029,0.7118,0.8814,0.9798,1.0204,0.9847,0.9714,0.9669,0.9357,0.9175,0.9158,0.9132,0.9048,0.9005,0.8978,0.8991,0.8883,0.8447,0.8316,0.8185,0.7621,0.749,0.749,0.7356,0.705,0.6778,0.6628,0.6323,0.6068,0.605,0.5993,0.5948,0.5948,0.7608,0.9017,0.9522,0.9606,0.9606,0.9606,0.9606,0.9606,0.9606,0.9606,0.9606,0.9606,0.9731,0.9773,0.9773,0.9898,0.995,0.998,1.0098,1.0068,0.9971,0.9643,0.9377,0.9119,0.8768,0.8364,1.0799,1.1246,1.166,1.1996,1.2372,1.2712,1.2672,1.2942,1.32,1.3207,1.341,1.3585,1.3592,1.3707,1.3856,1.4055,1.4125,1.4129,1.4278,1.3775,1.3415,1.3415,1.2897,1.2552,1.2564,1.3511,1.4143,1.4292,1.4299,1.4078,1.3635,1.3186,1.2742,1.2254,1.1721,1.1455,1.1455,1.1455,1.1232,1.0743,1.0288,0.9843,0.9353,0.8413,0.7743,0.7345,0.7345,0.7301,0.7256,0.6809,0.6273,0.5778,0.5288,0.4796,0.4438,0.448,0.5688,0.7345,0.7301,0.7301,0.7301,0.7301,0.7297,0.7239,0.7119,0.719,0.7232,0.7112,0.719,0.716,0.6716,0.6582,0.6448,0.5915,0.5781,0.5646,0.5196,0.5107,0.4912,0.4419,0.4276,0.4215,0.4127,0.4083,0.4097,0.4097,0.4147,0.4831,0.6591,0.6804,0.6804,0.6804,0.6804,0.6804,0.6804,0.6804,0.6804,0.6804,0.7261,0.7512,0.7512,0.7885,0.8131,0.817,0.8174,0.8006,0.7623,0.7225,0.6561,0.5731,0.5347,0.4881,1.1118,1.1647,1.2108,1.2305,1.2691,1.3024,1.3024,1.318,1.3295,1.3234,1.3336,1.3444,1.3342,1.3451,1.36,1.3756,1.3858,1.3844,1.3729,1.319,1.2576,1.1928,1.1311,1.0826,1.0677,1.2198,1.3172,1.3223,1.3047,1.2831,1.2698,1.1893,1.1088,1.0293,0.9794,0.9259,0.864,0.8595,0.855,0.8372,0.752,0.6895,0.6407,0.5778,0.542,0.5286,0.5286,0.5286,0.5241,0.4749,0.448,0.4212,0.3452,0.3049,0.287,0.2512,0.2781,0.3542,0.4838,0.5286,0.5286,0.5286,0.5286,0.5283,0.5219,0.5226,0.5283,0.5219,0.5229,0.5152,0.4704,0.457,0.4436,0.3945,0.3857,0.3812,0.3633,0.3363,0.3091,0.2901,0.2572,0.2337,0.2285,0.222,0.2198,0.2224,0.3218,0.4204,0.4833,0.4915,0.4915,0.4915,0.4915,0.4915,0.4915,0.4915,0.4915,0.4915,0.5041,0.514,0.5134,0.5261,0.5373,0.5389,0.5472,0.5458,0.5304,0.4918,0.4544,0.4279,0.3803,0.3363,1.1579,1.2115,1.2562,1.2705,1.2996,1.3254,1.3254,1.3288,1.3275,1.3166,1.3085,1.3051,1.2949,1.2889,1.2962,1.3175,1.3085,1.2931,1.2687,1.203,1.1193,1.0241,0.9569,0.9045,0.8697,0.9884,1.0974,1.1681,1.1538,1.1271,1.0911,0.9972,0.8988,0.8056,0.7383,0.6758,0.618,0.618,0.6091,0.5912,0.5241,0.4615,0.399,0.3676,0.3452,0.3273,0.3273,0.3273,0.3228,0.2959,0.2735,0.2511,0.1883,0.157,0.1391,0.1032,0.0898,0.1122,0.2735,0.3273,0.3273,0.3273,0.3273,0.3273,0.3273,0.3273,0.3273,0.3273,0.3273,0.3183,0.2914,0.2825,0.2735,0.2423,0.2378,0.2333,0.2153,0.1884,0.1615,0.1436,0.1116,0.0889,0.0889,0.0881,0.0827,0.0815,0.1828,0.2703,0.2987,0.3027,0.3027,0.3027,0.3027,0.3027,0.3027,0.3027,0.3032,0.3044,0.3046,0.3017,0.3049,0.305,0.3067,0.3057,0.3167,0.3184,0.3196,0.2771,0.2556,0.2556,0.2064,0.1705,1.2142,1.2669,1.3043,1.318,1.3281,1.339,1.3376,1.3254,1.3132,1.2982,1.2671,1.2454,1.2415,1.2107,1.194,1.2289,1.1902,1.1456,1.1226,1.0302,0.9342,0.8416,0.7726,0.7158,0.6725,0.6791,0.7655,0.9566,0.9794,0.9437,0.8498,0.7558,0.6579,0.5599,0.4659,0.4169,0.4169,0.4169,0.3943,0.3495,0.3451,0.3003,0.2108,0.2108,0.1795,0.1347,0.1347,0.1347,0.1347,0.1347,0.1077,0.0673,0.0673,0.0404,0.0,0.0,0.0,0.0135,0.1032,0.1347,0.1347,0.1347,0.1347,0.1347,0.1347,0.1347,0.1347,0.1347,0.1347,0.1347,0.1347,0.1347,0.1347,0.1347,0.1347,0.1212,0.0763,0.0673,0.0539,0.009,0.0,0.0,0.0,0.0,0.0,0.0,0.0,0.0299,0.1138,0.122,0.122,0.122,0.122,0.122,0.1221,0.1221,0.1226,0.1241,0.1241,0.1247,0.1218,0.1218,0.1268,0.1326,0.1327,0.1333,0.1347,0.0898,0.0673,0.0673,0.0224,0.0,1.2345,1.2773,1.3166,1.3207,1.3241,1.32,1.3139,1.2868,1.2603,1.2383,1.2054,1.177,1.1507,1.114,1.0828,1.0671,1.0473,1.0174,0.9659,0.8808,0.7886,0.701,0.6074,0.5317,0.492,0.489,0.5142,0.5733,0.6764,0.7122,0.6493,0.5554,0.4615,0.3631,0.3049,0.2556,0.2153,0.2153,0.2064,0.1974,0.1615,0.1301,0.1077,0.0718,0.0494,0.0359,0.0359,0.0359,0.0359,0.0359,0.0269,0.018,0.018,0.009,0.0,0.0,0.0,0.0045,0.0269,0.0359,0.0359,0.0359,0.0359,0.0359,0.0359,0.0359,0.0359,0.0359,0.0359,0.0359,0.0359,0.0359,0.0359,0.0359,0.0359,0.0314,0.0224,0.018,0.0135,0.0045,0.0,0.0,0.0,0.0,0.0,0.0,0.0,0.0087,0.0296,0.0337,0.0337,0.0337,0.0337,0.0338,0.0341,0.0341,0.0342,0.0346,0.0346,0.0348,0.0352,0.0352,0.0354,0.0358,0.0358,0.0358,0.0359,0.0224,0.018,0.018,0.0045,0.0,1.2698,1.303,1.3275,1.3275,1.3214,1.3077,1.2895,1.2522,1.2121,1.1866,1.1423,1.1027,1.0623,1.0087,0.9529,0.9086,0.8697,0.8169,0.7544,0.6896,0.6183,0.5285,0.4644,0.411,0.3689,0.3648,0.3568,0.3409,0.4529,0.502,0.4483,0.3542,0.2692,0.1974,0.1481,0.1077,0.0808,0.0808,0.0808,0.0763,0.0539,0.0404,0.0404,0.0135,0.0,0.0,0.0,0.0,0.0,0.0,0.0,0.0,0.0,0.0,0.0,0.0,0.0,0.0,0.0,0.0,0.0,0.0,0.0,0.0,0.0,0.0,0.0,0.0,0.0,0.0,0.0,0.0,0.0,0.0,0.0,0.0,0.0,0.0,0.0,0.0,0.0,0.0,0.0,0.0,0.0,0.0,0.0,0.0,0.0,0.0,0.0,0.0,0.0,0.0,0.0,0.0,0.0,0.0,0.0,0.0,0.0,0.0,0.0,0.0,0.0,0.0,0.0,0.0,0.0,0.0,0.0,0.0,1.3064,1.3288,1.3397,1.3376,1.3193,1.2874,1.2618,1.2104,1.159,1.1307,1.0745,1.0207,0.9798,0.8985,0.8198,0.7601,0.6811,0.6057,0.5377,0.4997,0.4518,0.3668,0.3545,0.3327,0.2924,0.2838,0.2659,0.2209,0.284,0.3014,0.2647,0.1795,0.1077,0.0628,0.0224,0.0,0.0,0.0,0.0,0.0,0.0,0.0,0.0,0.0,0.0,0.0,0.0,0.0,0.0,0.0,0.0,0.0,0.0,0.0,0.0,0.0,0.0,0.0,0.0,0.0,0.0,0.0,0.0,0.0,0.0,0.0,0.0,0.0,0.0,0.0,0.0,0.0,0.0,0.0,0.0,0.0,0.0,0.0,0.0,0.0,0.0,0.0,0.0,0.0,0.0,0.0,0.0,0.0,0.0,0.0,0.0,0.0,0.0,0.0,0.0,0.0,0.0,0.0,0.0,0.0,0.0,0.0,0.0,0.0,0.0,0.0,0.0,0.0,0.0,0.0,0.0,0.0,1.3159,1.3288,1.337,1.3247,1.299,1.2591,1.207,1.1489,1.0948,1.0561,0.993,0.9294,0.8821,0.7996,0.7062,0.6136,0.5543,0.4955,0.4349,0.3964,0.371,0.3541,0.3237,0.2999,0.2909,0.2565,0.2302,0.221,0.1565,0.1188,0.1078,0.0898,0.0628,0.0135,0.0045,0.0,0.0,0.0,0.0,0.0,0.0,0.0,0.0,0.0,0.0,0.0,0.0,0.0,0.0,0.0,0.0,0.0,0.0,0.0,0.0,0.0,0.0,0.0,0.0,0.0,0.0,0.0,0.0,0.0,0.0,0.0,0.0,0.0,0.0,0.0,0.0,0.0,0.0,0.0,0.0,0.0,0.0,0.0,0.0,0.0,0.0,0.0,0.0,0.0,0.0,0.0,0.0,0.0,0.0,0.0,0.0,0.0,0.0,0.0,0.0,0.0,0.0,0.0,0.0,0.0,0.0,0.0,0.0,0.0,0.0,0.0,0.0,0.0,0.0,0.0,0.0,0.0,1.3227,1.3342,1.3363,1.3214,1.2708,1.2091,1.1574,1.0718,0.9967,0.9651,0.899,0.8313,0.7727,0.6784,0.5785,0.4766,0.4209,0.3757,0.3315,0.3169,0.3097,0.3132,0.3014,0.2916,0.2916,0.2484,0.2082,0.1852,0.1111,0.069,0.0679,0.045,0.0224,0.0,0.0,0.0,0.0,0.0,0.0,0.0,0.0,0.0,0.0,0.0,0.0,0.0,0.0,0.0,0.0,0.0,0.0,0.0,0.0,0.0,0.0,0.0,0.0,0.0,0.0,0.0,0.0,0.0,0.0,0.0,0.0,0.0,0.0,0.0,0.0,0.0,0.0,0.0,0.0,0.0,0.0,0.0,0.0,0.0,0.0,0.0,0.0,0.0,0.0,0.0,0.0,0.0,0.0,0.0,0.0,0.0,0.0,0.0,0.0,0.0,0.0,0.0,0.0,0.0,0.0,0.0,0.0,0.0,0.0,0.0,0.0,0.0,0.0,0.0,0.0,0.0,0.0,0.0,1.3275,1.3349,1.3308,1.3125,1.2416,1.1608,1.1077,1.0049,0.906,0.8769,0.8055,0.7298,0.6749,0.573,0.4695,0.3816,0.327,0.2875,0.2583,0.2635,0.2699,0.2758,0.2867,0.2866,0.2741,0.2307,0.1859,0.1398,0.0836,0.0553,0.0547,0.0181,0.0,0.0,0.0,0.0,0.0,0.0,0.0,0.0,0.0,0.0,0.0,0.0,0.0,0.0,0.0,0.0,0.0,0.0,0.0,0.0,0.0,0.0,0.0,0.0,0.0,0.0,0.0,0.0,0.0,0.0,0.0,0.0,0.0,0.0,0.0,0.0,0.0,0.0,0.0,0.0,0.0,0.0,0.0,0.0,0.0,0.0,0.0,0.0,0.0,0.0,0.0,0.0,0.0,0.0,0.0,0.0,0.0,0.0,0.0,0.0,0.0,0.0,0.0,0.0,0.0,0.0,0.0,0.0,0.0,0.0,0.0,0.0,0.0,0.0,0.0,0.0,0.0,0.0,0.0,0.0,1.3112,1.3234,1.3125,1.284,1.2112,1.1376,1.0716,0.9569,0.8557,0.8154,0.7202,0.6369,0.6117,0.5111,0.4112,0.3587,0.3133,0.2716,0.2456,0.2545,0.2636,0.2696,0.2825,0.2717,0.2306,0.1819,0.1365,0.0903,0.0374,0.0046,0.0046,0.0046,0.0,0.0,0.0,0.0,0.0,0.0,0.0,0.0,0.0,0.0,0.0,0.0,0.0,0.0,0.0,0.0,0.0,0.0,0.0,0.0,0.0,0.0,0.0,0.0,0.0,0.0,0.0,0.0,0.0,0.0,0.0,0.0,0.0,0.0,0.0,0.0,0.0,0.0,0.0,0.0,0.0,0.0,0.0,0.0,0.0,0.0,0.0,0.0,0.0,0.0,0.0,0.0,0.0,0.0,0.0,0.0,0.0,0.0,0.0,0.0,0.0,0.0,0.0,0.0,0.0,0.0,0.0,0.0,0.0,0.0,0.0,0.0,0.0,0.0,0.0,0.0,0.0,0.0,0.0,0.0,1.28,1.2976,1.3016,1.2671,1.1774,1.075,0.9971,0.8614,0.7396,0.6889,0.5941,0.513,0.4856,0.3982,0.3201,0.2897,0.2593,0.2372,0.2347,0.2481,0.2616,0.2634,0.2796,0.2703,0.2224,0.1762,0.1176,0.0378,0.0141,0.0,0.0,0.0,0.0,0.0,0.0,0.0,0.0,0.0,0.0,0.0,0.0,0.0,0.0,0.0,0.0,0.0,0.0,0.0,0.0,0.0,0.0,0.0,0.0,0.0,0.0,0.0,0.0,0.0,0.0,0.0,0.0,0.0,0.0,0.0,0.0,0.0,0.0,0.0,0.0,0.0,0.0,0.0,0.0,0.0,0.0,0.0,0.0,0.0,0.0,0.0,0.0,0.0,0.0,0.0,0.0,0.0,0.0,0.0,0.0,0.0,0.0,0.0,0.0,0.0,0.0,0.0,0.0,0.0,0.0,0.0,0.0,0.0,0.0,0.0,0.0,0.0,0.0,0.0,0.0,0.0,0.0,0.0,1.24,1.2576,1.2576,1.2359,1.141,1.0325,0.9483,0.801,0.662,0.6009,0.5015,0.4145,0.3807,0.3096,0.2554,0.2427,0.222,0.2148,0.2262,0.2432,0.2568,0.2586,0.2759,0.263,0.2019,0.1427,0.0749,0.0047,0.0,0.0,0.0,0.0,0.0,0.0,0.0,0.0,0.0,0.0,0.0,0.0,0.0,0.0,0.0,0.0,0.0,0.0,0.0,0.0,0.0,0.0,0.0,0.0,0.0,0.0,0.0,0.0,0.0,0.0,0.0,0.0,0.0,0.0,0.0,0.0,0.0,0.0,0.0,0.0,0.0,0.0,0.0,0.0,0.0,0.0,0.0,0.0,0.0,0.0,0.0,0.0,0.0,0.0,0.0,0.0,0.0,0.0,0.0,0.0,0.0,0.0,0.0,0.0,0.0,0.0,0.0,0.0,0.0,0.0,0.0,0.0,0.0,0.0,0.0,0.0,0.0,0.0,0.0,0.0,0.0,0.0,0.0,0.0,1.1941,1.1959,1.1807,1.18,1.1107,1.0223,0.9472,0.801,0.6581,0.5775,0.4531,0.3502,0.3166,0.2672,0.2324,0.2399,0.222,0.2108,0.2198,0.2363,0.2537,0.2594,0.271,0.2412,0.1478,0.0549,0.0,0.0,0.0,0.0,0.0,0.0,0.0,0.0,0.0,0.0,0.0,0.0,0.0,0.0,0.0,0.0,0.0,0.0,0.0,0.0,0.0,0.0,0.0,0.0,0.0,0.0,0.0,0.0,0.0,0.0,0.0,0.0,0.0,0.0,0.0,0.0,0.0,0.0,0.0,0.0,0.0,0.0,0.0,0.0,0.0,0.0,0.0,0.0,0.0,0.0,0.0,0.0,0.0,0.0,0.0,0.0,0.0,0.0,0.0,0.0,0.0,0.0,0.0,0.0,0.0,0.0,0.0,0.0,0.0,0.0,0.0,0.0,0.0,0.0,0.0,0.0,0.0,0.0,0.0,0.0,0.0,0.0,0.0,0.0,0.0,0.0,1.1165,1.1335,1.1348,1.1218,1.0584,0.9774,0.895,0.7459,0.5985,0.5043,0.3852,0.2889,0.2552,0.2189,0.1976,0.2041,0.2076,0.2117,0.2195,0.2383,0.2512,0.2592,0.2173,0.1601,0.0961,0.0367,0.0,0.0,0.0,0.0,0.0,0.0,0.0,0.0,0.0,0.0,0.0,0.0,0.0,0.0,0.0,0.0,0.0,0.0,0.0,0.0,0.0,0.0,0.0,0.0,0.0,0.0,0.0,0.0,0.0,0.0,0.0,0.0,0.0,0.0,0.0,0.0,0.0,0.0,0.0,0.0,0.0,0.0,0.0,0.0,0.0,0.0,0.0,0.0,0.0,0.0,0.0,0.0,0.0,0.0,0.0,0.0,0.0,0.0,0.0,0.0,0.0,0.0,0.0,0.0,0.0,0.0,0.0,0.0,0.0,0.0,0.0,0.0,0.0,0.0,0.0,0.0,0.0,0.0,0.0,0.0,0.0,0.0,0.0,0.0,0.0,0.0,1.0407,1.0596,1.0649,1.0583,1.0151,0.9489,0.8534,0.7203,0.5821,0.4578,0.3449,0.2552,0.2132,0.1944,0.1848,0.1939,0.2042,0.2154,0.2228,0.2417,0.252,0.2423,0.1818,0.1206,0.0735,0.0274,0.0,0.0,0.0,0.0,0.0,0.0,0.0,0.0,0.0,0.0,0.0,0.0,0.0,0.0,0.0,0.0,0.0,0.0,0.0,0.0,0.0,0.0,0.0,0.0,0.0,0.0,0.0,0.0,0.0,0.0,0.0,0.0,0.0,0.0,0.0,0.0,0.0,0.0,0.0,0.0,0.0,0.0,0.0,0.0,0.0,0.0,0.0,0.0,0.0,0.0,0.0,0.0,0.0,0.0,0.0,0.0,0.0,0.0,0.0,0.0,0.0,0.0,0.0,0.0,0.0,0.0,0.0,0.0,0.0,0.0,0.0,0.0,0.0,0.0,0.0,0.0,0.0,0.0,0.0,0.0,0.0,0.0,0.0,0.0,0.0,0.0,0.0,0.9839,0.9778,0.9934,0.9758,0.9271,0.823,0.718,0.0,0.4351,0.3306,0.2526,0.191,0.1846,0.1936,0.1999,0.2104,0.2232,0.2287,0.2456,0.2415,0.2107,0.1636,0.1159,0.0683,0.0271,0.0,0.0,0.0,0.0,0.0,0.0,0.0,0.0,0.0,0.0,0.0,0.0,0.0,0.0,0.0,0.0,0.0,0.0,0.0,0.0,0.0,0.0,0.0,0.0,0.0,0.0,0.0,0.0,0.0,0.0,0.0,0.0,0.0,0.0,0.0,0.0,0.0,0.0,0.0,0.0,0.0,0.0,0.0,0.0,0.0,0.0,0.0,0.0,0.0,0.0,0.0,0.0,0.0,0.0,0.0,0.0,0.0,0.0,0.0,0.0,0.0,0.0,0.0,0.0,0.0,0.0,0.0,0.0,0.0,0.0,0.0,0.0,0.0,0.0,0.0,0.0,0.0,0.0,0.0,0.0,0.0,0.0,0.0,0.0,0.0,0.0,0.8906,0.0,0.9376,0.9503,0.9227,0.8737,0.0,0.6855,0.5594,0.4285,0.3306,0.2508,0.1911,0.1861,0.1913,0.1994,0.2116,0.2238,0.2352,0.2243,0.2009,0.1629,0.1157,0.0674,0.0228,0.0045,0.0,0.0,0.0,0.0,0.0,0.0,0.0,0.0,0.0,0.0,0.0,0.0,0.0,0.0,0.0,0.0,0.0,0.0,0.0,0.0,0.0,0.0,0.0,0.0,0.0,0.0,0.0,0.0,0.0,0.0,0.0,0.0,0.0,0.0,0.0,0.0,0.0,0.0,0.0,0.0,0.0,0.0,0.0,0.0,0.0,0.0,0.0,0.0,0.0,0.0,0.0,0.0,0.0,0.0,0.0,0.0,0.0,0.0,0.0,0.0,0.0,0.0,0.0,0.0,0.0,0.0,0.0,0.0,0.0,0.0,0.0,0.0,0.0,0.0,0.0,0.0,0.0,0.0,0.0,0.0,0.0,0.0,0.0,0.0,0.0,0.0,0.8526,0.8777,0.8988,0.8996,0.8687,0.8152,0.7303,0.6219,0.5035,0.3835,0.3017,0.2367,0.1942,0.1909,0.1977,0.2067,0.2183,0.2322,0.2497,0.2243,0.1868,0.1465,0.0984,0.0495,0.0045,0.0,0.0,0.0,0.0,0.0,0.0,0.0,0.0,0.0,0.0,0.0,0.0,0.0,0.0,0.0,0.0,0.0,0.0,0.0,0.0,0.0,0.0,0.0,0.0,0.0,0.0,0.0,0.0,0.0,0.0,0.0,0.0,0.0,0.0,0.0,0.0,0.0,0.0,0.0,0.0,0.0,0.0,0.0,0.0,0.0,0.0,0.0,0.0,0.0,0.0,0.0,0.0,0.0,0.0,0.0,0.0,0.0,0.0,0.0,0.0,0.0,0.0,0.0,0.0,0.0,0.0,0.0,0.0,0.0,0.0,0.0,0.0,0.0,0.0,0.0,0.0,0.0,0.0,0.0,0.0,0.0,0.0,0.0,0.0,0.0,0.0,0.0,0.8352,0.8488,0.8534,0.8478,0.8146,0.7572,0.6509,0.5494,0.4483,0.3359,0.2686,0.2206,0.1953,0.1969,0.2057,0.2186,0.2212,0.2335,0.2543,0.2192,0.1756,0.1343,0.0898,0.0449,0.0045,0.0,0.0,0.0,0.0,0.0,0.0,0.0,0.0,0.0,0.0,0.0,0.0,0.0,0.0,0.0,0.0,0.0,0.0,0.0,0.0,0.0,0.0,0.0,0.0,0.0,-0.0045,-0.009,-0.009,-0.009,-0.009,-0.009,-0.0045,0.0,0.0,0.0,0.0,0.0,0.0,0.0,0.0,0.0,0.0,-0.009,-0.0045,0.0,0.0,0.0,0.0,0.0,0.0,0.0,0.0,0.0,0.0,0.0,0.0,0.0,0.0,0.0,0.0,0.0,0.0,0.0,0.0,0.0,0.0,0.0,0.0,0.0,0.0,0.0,0.0,0.0,0.0,0.0,0.0,0.0,0.0,0.0,0.0,0.0,0.0,0.0,0.0,0.0,0.0,0.0,0.8066,0.7976,0.7928,0.818,0.7698,0.6961,0.6208,0.5133,0.4114,0.3418,0.2754,0.2222,0.2013,0.2046,0.2095,0.2178,0.2078,0.1993,0.2078,0.1435,0.0885,0.0807,0.0404,0.009,0.0,0.0,0.0,0.0,0.0,0.0,0.0,0.0,0.0,0.0,0.0,0.0,0.0,0.0,0.0,0.0,0.0,0.0,0.0,0.0,0.0,0.0,0.0,0.0,0.0,0.0,-0.0224,-0.0584,-0.0584,-0.0584,-0.0584,-0.0584,-0.0359,0.0,0.0,0.0,0.0,0.0,0.0,0.0,0.0,0.0,-0.009,-0.0494,-0.0314,0.0,0.0,0.0,0.0,0.0,0.0,0.0,0.0,0.0,0.0,0.0,0.0,0.0,0.0,0.0,0.0,0.0,0.0,0.0,0.0,0.0,0.0,0.0,0.0,0.0,0.0,0.0,0.0,0.0,0.0,0.0,0.0,0.0,0.0,0.0,0.0,0.0,0.0,0.0,0.0,0.0,0.0,0.0,0.7988,0.7657,0.7265,0.7052,0.6599,0.5978,0.5197,0.4199,0.3316,0.2893,0.2462,0.2131,0.2069,0.211,0.2114,0.2014,0.1752,0.159,0.1634,0.1093,0.071,0.0717,0.0269,0.0,0.0,0.0,0.0,0.0,0.0,0.0,0.0,0.0,0.0,0.0,0.0,0.0,0.0,0.0,0.0,0.0,0.0,0.0,0.0,0.0,0.0,0.0,0.0,-0.0135,-0.0404,-0.0673,-0.1032,-0.1525,-0.1795,-0.1884,-0.1839,-0.1615,-0.1391,-0.1167,-0.0853,-0.0763,-0.0762,-0.0758,-0.0757,-0.0756,-0.0707,-0.0706,-0.0751,-0.1022,-0.076,-0.0449,-0.0673,-0.0584,-0.0359,-0.0359,-0.018,0.0,0.0,0.0,0.0,0.0,0.0,0.0,0.0,0.0,0.0,0.0,0.0,0.0,0.0,0.0,0.0,0.0,0.0,0.0,0.0,0.0,0.0,0.0,0.0,0.0,0.0,0.0,0.0,0.0,0.0,0.0,0.0,0.0,0.0,0.0,0.0,0.0,0.7858,0.7358,0.6674,0.588,0.5452,0.5043,0.424,0.3356,0.2705,0.2494,0.2237,0.2078,0.2097,0.2122,0.2028,0.1713,0.1369,0.1152,0.1175,0.0793,0.0534,0.0538,0.0224,0.0,0.0,0.0,0.0,0.0,0.0,0.0,0.0,0.0,0.0,0.0,0.0,0.0,0.0,0.0,0.0,0.0,0.0,0.0,0.0,0.0,-0.0045,-0.018,-0.0269,-0.0584,-0.1077,-0.166,-0.2287,-0.2913,-0.3363,-0.3542,-0.3497,-0.2914,-0.2601,-0.2466,-0.2064,-0.1837,-0.1741,-0.1727,-0.172,-0.167,-0.1526,-0.1478,-0.1481,-0.1537,-0.1284,-0.1071,-0.1345,-0.1122,-0.0853,-0.0853,-0.0494,-0.018,-0.018,-0.009,0.0,0.0,0.0,0.0,0.0,0.0,0.0,0.0,0.0,0.0,0.0,0.0,0.0,0.0,0.0,0.0,0.0,0.0,0.0,0.0,0.0,0.0,0.0,0.0,0.0,0.0,0.0,0.0,0.0,0.0,0.0,0.0,0.0,0.0,0.7383,0.6861,0.6166,0.4998,0.4622,0.4379,0.3707,0.3081,0.2617,0.2655,0.2424,0.2196,0.2195,0.1987,0.1714,0.1393,0.1019,0.074,0.0749,0.0356,0.0045,0.0045,0.0,0.0,0.0,0.0,0.0,0.0,0.0,0.0,0.0,0.0,0.0,0.0,0.0,0.0,0.0,0.0,0.0,0.0,0.0,0.0,0.0,0.0,-0.0224,-0.0673,-0.1122,-0.1615,-0.2152,-0.3047,-0.3986,-0.4836,-0.5331,-0.5509,-0.5375,-0.448,-0.3854,-0.3495,-0.3451,-0.3118,-0.2695,-0.2694,-0.2674,-0.2522,-0.2087,-0.1957,-0.1957,-0.2046,-0.2004,-0.1926,-0.1518,-0.1392,-0.1347,-0.1347,-0.0988,-0.0628,-0.0628,-0.0314,0.0,0.0,0.0,0.0,0.0,0.0,0.0,0.0,0.0,0.0,0.0,0.0,0.0,0.0,0.0,0.0,0.0,0.0,0.0,0.0,0.0,0.0,0.0,0.0,0.0,0.0,0.0,0.0,0.0,0.0,0.0,0.0,0.0,0.0,0.7049,0.6398,0.5596,0.4338,0.3837,0.35,0.3063,0.264,0.2374,0.2446,0.2353,0.2189,0.198,0.1454,0.0997,0.0865,0.0511,0.0262,0.0265,0.0134,0.0,0.0,0.0,0.0,0.0,0.0,0.0,0.0,0.0,0.0,0.0,0.0,0.0,0.0,0.0,0.0,0.0,0.0,0.0,0.0,0.0,0.0,0.0,-0.0314,-0.0673,-0.1167,-0.1974,-0.2959,-0.4033,-0.5015,-0.5954,-0.6892,-0.7654,-0.81,-0.8271,-0.7552,-0.7003,-0.651,-0.5808,-0.5255,-0.4756,-0.4206,-0.4015,-0.3866,-0.3116,-0.2854,-0.2816,-0.2535,-0.2454,-0.2423,-0.2299,-0.2035,-0.1852,-0.1819,-0.146,-0.1056,-0.1056,-0.0973,-0.0889,-0.0889,-0.0849,-0.0853,-0.0853,-0.0853,-0.0853,-0.0853,-0.0853,-0.0853,-0.0853,-0.0853,-0.0853,-0.0853,-0.0628,-0.0314,-0.0045,0.0,0.0,0.0,0.0,0.0,0.0,0.0,0.0,0.0,0.0,0.0,0.0,0.0,0.0,0.0,0.0,0.0,0.6616,0.5832,0.4944,0.3845,0.3251,0.2795,0.2373,0.2275,0.2246,0.2149,0.2054,0.1839,0.1489,0.0981,0.0564,0.0412,0.017,0.0,0.0,0.0,0.0,0.0,0.0,0.0,0.0,0.0,0.0,0.0,0.0,0.0,0.0,0.0,0.0,0.0,0.0,0.0,0.0,0.0,-0.009,-0.0224,-0.0359,-0.0449,-0.0449,-0.1122,-0.1795,-0.2601,-0.3587,-0.4695,-0.5926,-0.7081,-0.8175,-0.9167,-0.9789,-1.0229,-1.0483,-0.9927,-0.9419,-0.8887,-0.8169,-0.7568,-0.707,-0.6295,-0.5969,-0.5645,-0.4551,-0.4122,-0.3919,-0.3269,-0.3105,-0.3119,-0.3178,-0.2747,-0.2309,-0.2326,-0.1923,-0.1565,-0.1565,-0.1443,-0.1364,-0.1413,-0.1511,-0.161,-0.1659,-0.1795,-0.184,-0.1661,-0.1661,-0.1661,-0.1661,-0.1661,-0.1706,-0.184,-0.1436,-0.1032,-0.0718,-0.0539,-0.0359,-0.0224,-0.0224,-0.0135,0.0,0.0,0.0,0.0,0.0,0.0,0.0,0.0,0.0,0.0,0.0,0.0,0.6058,0.5103,0.4139,0.3458,0.2872,0.2326,0.1733,0.2026,0.2292,0.1872,0.1493,0.1061,0.0668,0.0595,0.0484,0.0082,0.0,0.0,0.0,0.0,0.0,0.0,0.0,0.0,0.0,0.0,0.0,0.0,0.0,0.0,0.0,0.0,0.0,0.0,0.0,0.0,0.0,0.0,-0.0224,-0.0718,-0.1212,-0.1436,-0.1436,-0.2467,-0.3675,-0.5057,-0.5996,-0.6941,-0.7845,-0.9255,-1.059,-1.1687,-1.1687,-1.173,-1.1644,-1.1214,-1.0741,-1.031,-1.031,-0.9978,-0.9422,-0.8955,-0.8513,-0.7851,-0.643,-0.5717,-0.5216,-0.4288,-0.3994,-0.4046,-0.4091,-0.3449,-0.2826,-0.2826,-0.2435,-0.2129,-0.2129,-0.1695,-0.1352,-0.1411,-0.1812,-0.2127,-0.2193,-0.2601,-0.278,-0.2287,-0.2242,-0.2242,-0.2242,-0.2242,-0.2421,-0.2871,-0.2511,-0.2242,-0.2197,-0.1705,-0.1212,-0.0763,-0.0718,-0.0494,0.0,0.0,0.0,0.0,0.0,0.0,0.0,0.0,0.0,0.0,0.0,0.0,0.4959,0.4299,0.3582,0.2554,0.2271,0.2049,0.1392,0.1623,0.187,0.1516,0.1135,0.0813,0.0645,0.0366,0.0123,0.0,0.0,0.0,0.0,0.0,0.0,0.0,0.0,0.0,0.0,0.0,0.0,0.0,0.0,0.0,0.0,0.0,0.0,0.0,0.0,0.0,0.0,-0.0314,-0.0716,-0.1154,-0.2307,-0.2662,-0.2351,-0.3636,-0.4988,-0.6348,-0.7614,-0.8865,-1.0101,-1.1188,-1.2035,-1.268,-1.268,-1.2895,-1.3139,-1.2915,-1.2544,-1.2149,-1.1716,-1.1238,-1.0702,-0.9943,-0.9379,-0.8766,-0.7387,-0.6679,-0.6134,-0.5253,-0.5001,-0.5004,-0.5021,-0.4574,-0.4085,-0.3775,-0.3375,-0.3102,-0.3355,-0.3333,-0.3268,-0.3278,-0.3693,-0.4022,-0.4034,-0.4431,-0.4562,-0.408,-0.4036,-0.4046,-0.4075,-0.4773,-0.502,-0.4438,-0.4257,-0.3898,-0.3227,-0.2421,-0.1884,-0.175,-0.1077,-0.0494,0.0,0.0,0.0,0.0,0.0,0.0,0.0,0.0,0.0,0.0,0.0,0.0,0.3984,0.3347,0.2706,0.1888,0.1696,0.1548,0.104,0.1111,0.1261,0.1106,0.0703,0.0413,0.0369,0.0165,0.0,0.0,0.0,0.0,0.0,0.0,0.0,0.0,0.0,0.0,0.0,0.0,0.0,0.0,0.0,0.0,0.0,0.0,0.0,0.0,0.0,-0.0089,-0.0268,-0.0711,-0.1237,-0.1888,-0.3335,-0.4114,-0.4357,-0.5597,-0.6892,-0.8274,-0.9616,-1.08,-1.1783,-1.2295,-1.2822,-1.3196,-1.3196,-1.3408,-1.3612,-1.3566,-1.3372,-1.3107,-1.2724,-1.2443,-1.2069,-1.1356,-1.0815,-1.0268,-0.9054,-0.8386,-0.7889,-0.7178,-0.701,-0.6926,-0.6759,-0.6382,-0.5807,-0.483,-0.4267,-0.408,-0.4663,-0.4813,-0.493,-0.5122,-0.5542,-0.5877,-0.5859,-0.6252,-0.6425,-0.5949,-0.5862,-0.5963,-0.6173,-0.6986,-0.7389,-0.6941,-0.6475,-0.5864,-0.5107,-0.3811,-0.2871,-0.2511,-0.175,-0.0988,-0.0314,-0.009,0.0,0.0,0.0,0.0,0.0,0.0,0.0,0.0,0.0,0.0,0.3091,0.2307,0.1655,0.138,0.1152,0.0937,0.0619,0.056,0.0573,0.0628,0.0292,0.0,0.0,0.0,0.0,0.0,0.0,0.0,0.0,0.0,0.0,0.0,0.0,0.0,0.0,0.0,0.0,0.0,0.0,0.0,0.0,0.0,0.0,0.0,0.0,-0.0221,-0.0618,-0.1136,-0.1825,-0.2778,-0.4251,-0.5687,-0.7078,-0.7929,-0.9128,-1.0575,-1.1792,-1.2553,-1.292,-1.2833,-1.3024,-1.3403,-1.3403,-1.3403,-1.3403,-1.3403,-1.3403,-1.3403,-1.3403,-1.3403,-1.3321,-1.2899,-1.2484,-1.1986,-1.1101,-1.056,-1.0101,-0.9643,-0.9518,-0.9434,-0.898,-0.8599,-0.7885,-0.6256,-0.5421,-0.5253,-0.6086,-0.6295,-0.644,-0.6936,-0.7414,-0.7735,-0.7729,-0.8133,-0.8262,-0.7827,-0.7748,-0.7882,-0.8309,-0.8957,-0.9499,-0.9903,-0.8839,-0.7914,-0.7431,-0.5604,-0.4126,-0.323,-0.2603,-0.184,-0.0943,-0.0359,-0.0045,0.0,0.0,0.0,0.0,0.0,0.0,0.0,0.0,0.0,0.2152,0.163,0.111,0.077,0.0463,0.0226,0.0158,0.012,0.0121,0.0165,0.0084,0.0,0.0,0.0,0.0,0.0,0.0,0.0,0.0,0.0,0.0,0.0,0.0,0.0,0.0,0.0,0.0,0.0,0.0,0.0,0.0,0.0,0.0,0.0,0.0,-0.0044,-0.0131,-0.1349,-0.2381,-0.326,-0.5359,-0.7241,-0.8844,-0.9112,-1.0302,-1.2238,-1.2875,-1.3201,-1.3278,-1.3251,-1.3314,-1.3403,-1.3403,-1.3403,-1.3403,-1.3403,-1.3403,-1.3403,-1.3403,-1.3403,-1.3403,-1.3279,-1.2941,-1.2484,-1.1944,-1.1486,-1.1029,-1.0565,-1.0398,-1.0398,-1.032,-0.9976,-0.9643,-0.9564,-0.8432,-0.7509,-0.8014,-0.839,-0.8687,-0.8835,-0.9216,-0.9556,-0.9538,-0.9884,-1.001,-0.9585,-0.9573,-0.9668,-0.9753,-1.0575,-1.1074,-1.0909,-1.0327,-0.9622,-0.8899,-0.7122,-0.5739,-0.5157,-0.3633,-0.2647,-0.2423,-0.1211,-0.0359,0.0,0.0,0.0,0.0,0.0,0.0,0.0,0.0,0.0,0.1459,0.1056,0.0637,0.0344,0.0146,0.0,0.0,0.0,0.0,0.0,0.0,0.0,0.0,0.0,0.0,0.0,0.0,0.0,0.0,0.0,0.0,0.0,0.0,0.0,0.0,0.0,0.0,0.0,0.0,0.0,0.0,0.0,0.0,0.0,0.0,-0.0216,-0.0604,-0.1802,-0.2944,-0.407,-0.6313,-0.8568,-1.069,-1.0922,-1.1754,-1.3065,-1.3279,-1.3403,-1.3403,-1.3403,-1.3403,-1.3403,-1.3403,-1.3403,-1.3403,-1.3403,-1.3403,-1.3403,-1.3403,-1.3403,-1.3403,-1.3403,-1.3231,-1.2982,-1.2775,-1.2567,-1.2318,-1.2069,-1.1986,-1.1944,-1.1736,-1.1481,-1.1356,-1.1362,-1.0185,-0.9226,-0.9856,-1.019,-1.044,-1.0648,-1.0898,-1.1065,-1.1065,-1.1231,-1.132,-1.1106,-1.1079,-1.116,-1.137,-1.195,-1.2313,-1.2343,-1.1856,-1.116,-1.0293,-0.8526,-0.7081,-0.6141,-0.4485,-0.3364,-0.2916,-0.1929,-0.1077,-0.0359,-0.0314,-0.0224,0.0,0.0,0.0,0.0,0.0,0.0,0.0924,0.0568,0.0289,0.007,0.0,0.0,0.0,0.0,0.0,0.0,0.0,0.0,0.0,0.0,0.0,0.0,0.0,0.0,0.0,0.0,0.0,0.0,0.0,0.0,0.0,0.0,0.0,0.0,0.0,0.0,0.0,0.0,0.0,0.0,-0.0086,-0.0469,-0.1194,-0.2282,-0.3449,-0.4749,-0.7307,-0.9815,-1.2235,-1.2625,-1.3004,-1.3403,-1.3403,-1.3403,-1.3403,-1.3403,-1.3403,-1.3403,-1.3403,-1.3403,-1.3403,-1.3403,-1.3403,-1.3403,-1.3403,-1.3403,-1.3403,-1.3403,-1.3403,-1.3403,-1.3403,-1.3403,-1.3403,-1.3403,-1.3403,-1.3314,-1.2899,-1.2816,-1.2733,-1.2401,-1.1481,-1.0851,-1.1486,-1.1694,-1.1861,-1.2235,-1.2318,-1.2318,-1.2318,-1.2318,-1.2318,-1.2318,-1.2318,-1.2443,-1.2775,-1.2968,-1.3221,-1.3543,-1.303,-1.2314,-1.1527,-0.9901,-0.8356,-0.7077,-0.5515,-0.4305,-0.3409,-0.2783,-0.202,-0.1077,-0.0808,-0.0494,-0.0135,-0.0045,0.0,0.0,0.0,0.0,0.0488,0.0273,0.0034,0.0,0.0,0.0,0.0,0.0,0.0,0.0,0.0,0.0,0.0,0.0,0.0,0.0,0.0,0.0,0.0,0.0,0.0,0.0,0.0,0.0,0.0,0.0,0.0,0.0,0.0,0.0,0.0,0.0,0.0,0.0,-0.038,-0.0675,-0.076,-0.2443,-0.3785,-0.4747,-0.8558,-1.1153,-1.265,-1.2974,-1.3233,-1.3403,-1.3403,-1.3403,-1.3403,-1.3403,-1.3403,-1.3403,-1.3403,-1.3403,-1.3403,-1.3403,-1.3403,-1.3403,-1.3403,-1.3403,-1.3403,-1.3403,-1.3403,-1.3403,-1.3403,-1.3403,-1.3403,-1.3403,-1.3403,-1.3403,-1.3321,-1.3314,-1.3279,-1.3231,-1.3106,-1.2899,-1.2609,-1.2858,-1.3155,-1.3196,-1.3238,-1.3238,-1.3238,-1.3238,-1.3238,-1.3238,-1.3238,-1.3231,-1.3314,-1.3334,-1.3401,-1.3572,-1.3154,-1.2722,-1.2431,-1.1067,-0.9882,-0.8992,-0.7211,-0.5962,-0.5336,-0.4081,-0.314,-0.2602,-0.1346,-0.0673,-0.0584,-0.018,0.0,0.0,0.0,0.0,0.0217,0.009,0.0,0.0,0.0,0.0,0.0,0.0,0.0,0.0,0.0,0.0,0.0,0.0,0.0,0.0,0.0,0.0,0.0,0.0,0.0,0.0,0.0,0.0,0.0,0.0,0.0,0.0,0.0,0.0,0.0,0.0,0.0,0.0,-0.0413,-0.0785,-0.1033,-0.2518,-0.4576,-0.72,-0.9667,-1.1557,-1.2868,-1.3004,-1.3173,-1.3268,-1.3227,-1.3193,-1.3193,-1.3193,-1.32,-1.3275,-1.3275,-1.3322,-1.3403,-1.3403,-1.3403,-1.3403,-1.3403,-1.3403,-1.3403,-1.3403,-1.3403,-1.3403,-1.3403,-1.3403,-1.3403,-1.3403,-1.3403,-1.3403,-1.3403,-1.3403,-1.3403,-1.3403,-1.3403,-1.3362,-1.3148,-1.3231,-1.3403,-1.3403,-1.3403,-1.3403,-1.3403,-1.3403,-1.3403,-1.3403,-1.3403,-1.3403,-1.3403,-1.3403,-1.3424,-1.3492,-1.3363,-1.3173,-1.2778,-1.2105,-1.1204,-1.0019,-0.8477,-0.715,-0.613,-0.4977,-0.4089,-0.3647,-0.2238,-0.1257,-0.0718,-0.0494,-0.0269,0.0,0.0,0.0,0.0054,0.0,0.0,0.0,0.0,0.0,0.0,0.0,0.0,0.0,0.0,0.0,0.0,0.0,0.0,0.0,0.0,0.0,0.0,0.0,0.0,0.0,0.0,0.0,0.0,0.0,0.0,0.0,0.0,0.0,0.0,-0.0081,-0.0163,-0.0163,-0.0651,-0.1099,-0.1465,-0.2968,-0.552,-0.9114,-1.0287,-1.1585,-1.3003,-1.2962,-1.2963,-1.3057,-1.303,-1.3003,-1.3003,-1.3003,-1.3064,-1.3159,-1.3159,-1.3214,-1.3342,-1.3342,-1.3342,-1.3342,-1.3342,-1.3322,-1.3295,-1.3329,-1.3342,-1.3349,-1.339,-1.3403,-1.3403,-1.3403,-1.3403,-1.3403,-1.3403,-1.3403,-1.3403,-1.3403,-1.3403,-1.3403,-1.3403,-1.3403,-1.3403,-1.3403,-1.3403,-1.3403,-1.3403,-1.3403,-1.3403,-1.3403,-1.3403,-1.3403,-1.3403,-1.3403,-1.3403,-1.3403,-1.3505,-1.3418,-1.3115,-1.2839,-1.2192,-1.1047,-0.9826,-0.8559,-0.7246,-0.6147,-0.5369,-0.4899,-0.3695,-0.2506,-0.1436,-0.1211,-0.0852,-0.0359,-0.0224,-0.0135,0.0,0.0,0.0,0.0,0.0,0.0,0.0,0.0,0.0,0.0,0.0,0.0,0.0,0.0,0.0,0.0,0.0,0.0,0.0,0.0,0.0,0.0,0.0,0.0,0.0,0.0,0.0,0.0,0.0,0.0,0.0,-0.0366,-0.057,-0.057,-0.1383,-0.1831,-0.1872,-0.4025,-0.6455,-0.9114,-1.0005,-1.1344,-1.2996,-1.2807,-1.2706,-1.272,-1.2901,-1.3003,-1.3003,-1.3003,-1.3003,-1.3009,-1.3009,-1.3098,-1.3227,-1.3227,-1.3227,-1.3227,-1.3227,-1.3139,-1.305,-1.318,-1.3227,-1.3214,-1.3356,-1.3403,-1.3403,-1.3403,-1.3403,-1.3403,-1.3403,-1.3403,-1.3403,-1.3403,-1.3403,-1.3403,-1.3403,-1.3403,-1.3403,-1.3403,-1.3403,-1.3403,-1.3403,-1.3403,-1.3403,-1.3403,-1.3403,-1.3403,-1.3403,-1.3403,-1.3403,-1.3403,-1.341,-1.3471,-1.3529,-1.3134,-1.2726,-1.2337,-1.1397,-1.0449,-0.9457,-0.8117,-0.72,-0.6882,-0.5919,-0.475,-0.3454,-0.2557,-0.1839,-0.1302,-0.0853,-0.0404,0.0,0.0,0.0,0.0,0.0,0.0,0.0,0.0,0.0,0.0,0.0,0.0,0.0,0.0,0.0,0.0,0.0,0.0,0.0,0.0,0.0,0.0,0.0,0.0,0.0,0.0,0.0,0.0,-0.0239,-0.0398,-0.0398,-0.0796,-0.1034,-0.1034,-0.1591,-0.2307,-0.3102,-0.4413,-0.6194,-0.8484,-0.9593,-1.0892,-1.2311,-1.2493,-1.2583,-1.2583,-1.2644,-1.2664,-1.2664,-1.2664,-1.2725,-1.2813,-1.2813,-1.2901,-1.3077,-1.3077,-1.3077,-1.3077,-1.3077,-1.3043,-1.3009,-1.3064,-1.3077,-1.3091,-1.3146,-1.3159,-1.318,-1.3268,-1.3254,-1.3275,-1.3376,-1.3403,-1.3403,-1.3403,-1.3403,-1.3403,-1.3403,-1.3403,-1.3403,-1.3403,-1.3403,-1.3403,-1.3403,-1.3403,-1.3403,-1.3403,-1.3403,-1.3403,-1.3403,-1.3403,-1.3403,-1.3403,-1.3403,-1.3424,-1.3478,-1.3405,-1.3183,-1.2762,-1.2168,-1.1396,-1.046,-0.9351,-0.8599,-0.8164,-0.7967,-0.6738,-0.4485,-0.4169,-0.3452,-0.2378,-0.2198,-0.1525,0.0,0.0,0.0,0.0,0.0,0.0,0.0,0.0,0.0,0.0,0.0,0.0,0.0,0.0,0.0,0.0,0.0,0.0,0.0,0.0,0.0,0.0,0.0,0.0,0.0,0.0,-0.0039,-0.0196,-0.0432,-0.0668,-0.0825,-0.1256,-0.1571,-0.1689,-0.1964,-0.2632,-0.3807,-0.4473,-0.5919,-0.8106,-0.9236,-1.0519,-1.1921,-1.2308,-1.2501,-1.2501,-1.2501,-1.2501,-1.2501,-1.2501,-1.2562,-1.2611,-1.2611,-1.2745,-1.2881,-1.2881,-1.2881,-1.2881,-1.2881,-1.2887,-1.2853,-1.2868,-1.2881,-1.2895,-1.2982,-1.3003,-1.3023,-1.3118,-1.318,-1.3234,-1.3295,-1.3322,-1.3322,-1.3322,-1.3322,-1.3322,-1.3322,-1.3363,-1.3403,-1.3403,-1.3403,-1.3403,-1.3403,-1.3403,-1.3403,-1.3403,-1.3403,-1.3403,-1.3403,-1.3403,-1.3403,-1.3403,-1.3403,-1.3403,-1.3403,-1.3492,-1.3385,-1.3091,-1.2833,-1.2323,-1.1519,-1.0762,-1.015,-0.9724,-0.9688,-0.8821,-0.7081,-0.6484,-0.5554,-0.4346,-0.3676,-0.2421,0.0,0.0,0.0,0.0,0.0,0.0,0.0,0.0,0.0,0.0,0.0,0.0,0.0,0.0,0.0,0.0,0.0,0.0,0.0,0.0,0.0,0.0,0.0,0.0,0.0,0.0,-0.0194,-0.0588,-0.0628,-0.0824,-0.1295,-0.1688,-0.2082,-0.2475,-0.2514,-0.2906,-0.3807,-0.4201,-0.5648,-0.8106,-0.8959,-1.0286,-1.1882,-1.2308,-1.2501,-1.2501,-1.2501,-1.2501,-1.2501,-1.2501,-1.2501,-1.2501,-1.2501,-1.2589,-1.2686,-1.2686,-1.2686,-1.2686,-1.2686,-1.2623,-1.2528,-1.2638,-1.2686,-1.2713,-1.2941,-1.2989,-1.2989,-1.2989,-1.3091,-1.32,-1.3207,-1.3207,-1.3207,-1.3207,-1.3207,-1.3207,-1.3207,-1.3281,-1.339,-1.3397,-1.3403,-1.3403,-1.3403,-1.3403,-1.3403,-1.3403,-1.3403,-1.3403,-1.3403,-1.3403,-1.3403,-1.3403,-1.3403,-1.3403,-1.3403,-1.3403,-1.3403,-1.3403,-1.3403,-1.3189,-1.2733,-1.2318,-1.1921,-1.1546,-1.1159,-1.1068,-1.1259,-0.9516,-0.8182,-0.7201,-0.5241,-0.3049,0.0,0.0,0.0,0.0,0.0,0.0,0.0,0.0,0.0,0.0,0.0,0.0,0.0,0.0,0.0,0.0,0.0,0.0,0.0,0.0,0.0,0.0,0.0,0.0,0.0,-0.0267,-0.0495,-0.0574,-0.1147,-0.1536,-0.1666,-0.2072,-0.2396,-0.2514,-0.2514,-0.2906,-0.3807,-0.4201,-0.5492,-0.7681,-0.8847,-1.013,-1.1495,-1.2192,-1.2501,-1.2501,-1.2501,-1.2501,-1.2501,-1.2501,-1.2501,-1.2501,-1.2501,-1.2528,-1.2562,-1.2562,-1.2562,-1.2562,-1.2562,-1.2535,-1.2508,-1.2549,-1.2562,-1.2569,-1.2617,-1.263,-1.2651,-1.2766,-1.282,-1.2881,-1.303,-1.3057,-1.3057,-1.3057,-1.3057,-1.3057,-1.3057,-1.3091,-1.3186,-1.3356,-1.3403,-1.3403,-1.3403,-1.3403,-1.3403,-1.3403,-1.3403,-1.3403,-1.3403,-1.3403,-1.3403,-1.3403,-1.3403,-1.3403,-1.3403,-1.3403,-1.3403,-1.3403,-1.3403,-1.3362,-1.3196,-1.2775,-1.2461,-1.2374,-1.239,-1.2434,-1.2514,-1.1128,-0.9856,-0.8635,-0.5688,-0.3766,0.0,0.0,0.0,0.0,0.0,0.0,0.0,0.0,0.0,0.0,0.0,0.0,0.0,0.0,0.0,0.0,0.0,0.0,0.0,0.0,0.0,0.0,0.0,0.0,0.0,-0.0376,-0.0678,-0.0832,-0.1439,-0.1903,-0.2081,-0.2369,-0.2578,-0.2748,-0.2749,-0.3258,-0.4277,-0.4709,-0.5958,-0.8067,-0.9119,-1.0325,-1.1572,-1.2192,-1.2501,-1.2501,-1.2501,-1.2501,-1.2501,-1.2501,-1.2501,-1.2501,-1.2501,-1.2501,-1.2501,-1.2501,-1.2501,-1.2501,-1.2501,-1.2501,-1.2501,-1.2501,-1.2501,-1.2501,-1.2501,-1.2501,-1.2522,-1.261,-1.2638,-1.2766,-1.2962,-1.2955,-1.2868,-1.2868,-1.2868,-1.2868,-1.2868,-1.2955,-1.3071,-1.3261,-1.3308,-1.3322,-1.339,-1.3403,-1.3403,-1.3403,-1.3403,-1.3403,-1.3403,-1.3403,-1.3403,-1.3403,-1.3403,-1.3403,-1.3403,-1.3403,-1.3403,-1.3403,-1.3403,-1.3403,-1.3403,-1.3148,-1.2982,-1.2982,-1.3109,-1.3188,-1.3248,-1.2496,-1.1242,-0.9531,-0.6984,-0.5241,0.0,0.0,0.0,0.0,0.0,0.0,0.0,0.0,0.0,0.0,0.0,0.0,0.0,0.0,0.0,0.0,0.0,0.0,0.0,0.0,0.0,0.0,0.0,0.0,0.0,-0.0408,-0.082,-0.1168,-0.1661,-0.2126,-0.2573,-0.2619,-0.283,-0.321,-0.3254,-0.3844,-0.5139,-0.5606,-0.6854,-0.8886,-0.9747,-1.0758,-1.1921,-1.2308,-1.2501,-1.2501,-1.2501,-1.2501,-1.2501,-1.2501,-1.2501,-1.2501,-1.2501,-1.2501,-1.2501,-1.2501,-1.2501,-1.2501,-1.2501,-1.2501,-1.2501,-1.2501,-1.2501,-1.2501,-1.2501,-1.2501,-1.2501,-1.2501,-1.2603,-1.2739,-1.2914,-1.2807,-1.2665,-1.2665,-1.2665,-1.2665,-1.2665,-1.2813,-1.2989,-1.3132,-1.318,-1.3241,-1.3349,-1.3376,-1.3383,-1.3397,-1.3403,-1.3403,-1.3403,-1.3403,-1.3403,-1.3403,-1.3403,-1.3403,-1.3403,-1.3403,-1.3403,-1.3403,-1.3403,-1.3403,-1.3403,-1.3403,-1.3403,-1.3403,-1.3403,-1.3478,-1.3585,-1.3432,-1.231,-1.0249,-0.8837,-0.7191,0.0,0.0,0.0,0.0,0.0,0.0,0.0,0.0,0.0,0.0,0.0,0.0,0.0,0.0,0.0,0.0,0.0,0.0,0.0,0.0,0.0,0.0,0.0,0.0,0.0,-0.0659,-0.11,-0.1176,-0.2188,-0.2912,-0.3295,-0.3395,-0.3666,-0.4062,-0.4101,-0.4748,-0.604,-0.6776,-0.7868,-0.928,-1.0486,-1.134,-1.1921,-1.2308,-1.2501,-1.2501,-1.2501,-1.2501,-1.2501,-1.2501,-1.2501,-1.2501,-1.2501,-1.2501,-1.2501,-1.2501,-1.2501,-1.2501,-1.2501,-1.2501,-1.2501,-1.2501,-1.2501,-1.2501,-1.2501,-1.2501,-1.2501,-1.2501,-1.2522,-1.2556,-1.2583,-1.2569,-1.2549,-1.2549,-1.2549,-1.2549,-1.2549,-1.2569,-1.2637,-1.2786,-1.2915,-1.3091,-1.3234,-1.3254,-1.3302,-1.3383,-1.3403,-1.3403,-1.3403,-1.3403,-1.3403,-1.3403,-1.3403,-1.3403,-1.3403,-1.3403,-1.3403,-1.3403,-1.3403,-1.3403,-1.3403,-1.3403,-1.3403,-1.3403,-1.3403,-1.3478,-1.3585,-1.3284,-1.2736,-1.1897,-1.0593,-0.9404,-0.0249,-0.0138,0.0,0.0,0.0,0.0,0.0,0.0,0.0,0.0,0.0,0.0,0.0,0.0,0.0,0.0,0.0,0.0,0.0,0.0,0.0,0.0,0.0,0.0,0.0,-0.068,-0.1467,-0.2182,-0.322,-0.3946,-0.4339,-0.4641,-0.5018,-0.5464,-0.5729,-0.6386,-0.7521,-0.834,-0.9275,-1.0369,-1.1184,-1.1805,-1.2192,-1.2424,-1.2501,-1.2501,-1.2501,-1.2501,-1.2501,-1.2501,-1.2501,-1.2501,-1.2501,-1.2501,-1.2501,-1.2501,-1.2501,-1.2501,-1.2501,-1.2501,-1.2501,-1.2501,-1.2501,-1.2501,-1.2501,-1.2501,-1.2501,-1.2501,-1.2501,-1.2501,-1.2501,-1.2501,-1.2501,-1.2501,-1.2501,-1.2501,-1.2501,-1.2501,-1.2522,-1.2603,-1.2678,-1.2867,-1.3159,-1.3214,-1.3268,-1.3376,-1.3403,-1.3403,-1.3403,-1.3403,-1.3403,-1.3403,-1.3403,-1.3403,-1.3403,-1.3403,-1.3403,-1.3403,-1.3403,-1.3403,-1.3403,-1.3403,-1.3403,-1.3403,-1.3403,-1.3437,-1.3512,-1.3334,-1.3102,-1.2723,-1.1836,-1.0955,-0.0588,-0.035,-0.0116,-0.0146,-0.0145,-0.0086,0.0,0.0,0.0,0.0,0.0,0.0,0.0,0.0,-0.0029,-0.006,-0.0091,-0.0093,-0.0159,-0.0166,-0.0138,-0.0104,-0.0139,-0.0174,-0.0105,-0.084,-0.1964,-0.3503,-0.4433,-0.5164,-0.5689,-0.6103,-0.6586,-0.7097,-0.7422,-0.808,-0.9055,-0.9816,-1.0606,-1.138,-1.1792,-1.2179,-1.2461,-1.2461,-1.2461,-1.2461,-1.2461,-1.2474,-1.2501,-1.2501,-1.2501,-1.2501,-1.2501,-1.2501,-1.2501,-1.2501,-1.2501,-1.2501,-1.2501,-1.2501,-1.2501,-1.2501,-1.2501,-1.2501,-1.2501,-1.2501,-1.2501,-1.2501,-1.2501,-1.2501,-1.2501,-1.2501,-1.2501,-1.2501,-1.2501,-1.2501,-1.2501,-1.2501,-1.2501,-1.2501,-1.2501,-1.263,-1.3024,-1.3152,-1.3227,-1.3336,-1.3383,-1.3403,-1.3403,-1.3403,-1.3403,-1.3403,-1.3403,-1.3403,-1.3403,-1.3403,-1.3403,-1.3403,-1.3403,-1.3403,-1.3403,-1.3403,-1.3403,-1.3403,-1.3403,-1.3403,-1.3403,-1.3403,-1.331,-1.316,-1.2802,-1.2172,-0.095,-0.0706,-0.0498,-0.0752,-0.0633,-0.043,-0.0367,0.0,0.0,0.0,0.0,0.0,0.0,0.0,0.0,-0.0318,-0.0356,-0.0454,-0.076,-0.0805,-0.0703,-0.0471,-0.071,-0.0782,-0.0482,-0.1426,-0.2836,-0.4654,-0.563,-0.6531,-0.7536,-0.7824,-0.8159,-0.8627,-0.8683,-0.9156,-1.0043,-1.0606,-1.1161,-1.167,-1.2171,-1.2395,-1.2318,-1.2318,-1.2318,-1.2318,-1.2318,-1.2386,-1.2501,-1.2501,-1.2501,-1.2501,-1.2501,-1.2501,-1.2501,-1.2501,-1.2501,-1.2501,-1.2501,-1.2501,-1.2501,-1.2501,-1.2501,-1.2501,-1.2501,-1.2501,-1.2501,-1.2501,-1.2501,-1.2501,-1.2501,-1.2501,-1.2501,-1.2501,-1.2501,-1.2501,-1.2501,-1.2501,-1.2501,-1.2501,-1.2501,-1.2562,-1.2745,-1.2895,-1.3071,-1.322,-1.3315,-1.3403,-1.3403,-1.3403,-1.3403,-1.3403,-1.3403,-1.3403,-1.3403,-1.3403,-1.3403,-1.3403,-1.3403,-1.3403,-1.3403,-1.3403,-1.3403,-1.3403,-1.3403,-1.3403,-1.3403,-1.3403,-1.3375,-1.3368,-1.3418,-1.3183,-0.2275,-0.1852,-0.1405,-0.1293,-0.1005,-0.0726,-0.0457,-0.0198,0.0,0.0,0.0,0.0,0.0,0.0,0.0,0.0,-0.0404,-0.0557,-0.1056,-0.1309,-0.1313,-0.0987,-0.1129,-0.1434,-0.1917,-0.273,-0.3906,-0.5505,-0.6707,-0.7712,-0.8568,-0.9065,-0.9488,-0.9778,-1.0118,-1.0482,-1.0902,-1.1408,-1.1742,-1.193,-1.2141,-1.2254,-1.2193,-1.2193,-1.2193,-1.2193,-1.2193,-1.2227,-1.2281,-1.2281,-1.2281,-1.2295,-1.2345,-1.2427,-1.2501,-1.2501,-1.2501,-1.2501,-1.2501,-1.2501,-1.2501,-1.2501,-1.2501,-1.2501,-1.2501,-1.2501,-1.2501,-1.2501,-1.2501,-1.2501,-1.2501,-1.2501,-1.2501,-1.2501,-1.2501,-1.2501,-1.2501,-1.2501,-1.2501,-1.2501,-1.2501,-1.2522,-1.2583,-1.2725,-1.2908,-1.318,-1.3268,-1.3302,-1.339,-1.3403,-1.3403,-1.3403,-1.3322,-1.3268,-1.3268,-1.3193,-1.318,-1.3261,-1.3349,-1.3403,-1.3403,-1.3403,-1.3403,-1.3403,-1.3403,-1.3403,-1.3403,-1.3403,-1.3403,-1.3403,-1.3464,-1.3373,-0.3739,-0.3154,-0.248,-0.2339,-0.1892,-0.1435,-0.1118,-0.0763,-0.0505,-0.0508,-0.0506,0.0,0.0,0.0,-0.0617,-0.0981,0.0,-0.1225,-0.1816,-0.212,-0.2107,-0.1728,-0.1882,-0.2345,-0.3255,-0.3984,-0.4961,-0.6364,-0.7679,-0.8723,-0.9483,-1.0178,-1.0557,-1.0657,-1.1121,-1.1427,-1.1458,-1.1831,-1.2036,-1.2036,-1.2077,-1.2077,-1.2036,-1.2036,-1.2036,-1.2036,-1.2036,-1.2057,-1.2098,-1.2098,-1.2098,-1.2111,-1.222,-1.2291,-1.2393,-1.2474,-1.2501,-1.2501,-1.2501,-1.2501,-1.2501,-1.2501,-1.2501,-1.2501,-1.2501,-1.2501,-1.2501,-1.2501,-1.2501,-1.2501,-1.2501,-1.2501,-1.2501,-1.2501,-1.2501,-1.2501,-1.2501,-1.2501,-1.2501,-1.2501,-1.2501,-1.2501,-1.2501,-1.263,-1.276,-1.3017,-1.3125,-1.3193,-1.3268,-1.3281,-1.3281,-1.3281,-1.318,-1.3152,-1.3152,-1.3064,-1.3043,-1.3146,-1.3254,-1.3336,-1.3336,-1.3376,-1.3403,-1.3403,-1.3403,-1.3403,-1.3403,-1.3403,-1.3403,-1.3403,-1.3403,-1.3403,-0.5132,-0.4394,-0.3662,-0.4192,-0.3574,-0.2801,-0.2654,-0.2158,-0.1747,-0.1832,-0.1787,-0.1775,-0.1834,-0.1786,-0.1934,-0.252,-0.2634,0.0,0.0,-0.3449,-0.3238,-0.2725,-0.3167,-0.3708,-0.4135,-0.4892,-0.5949,-0.7358,-0.8513,-0.9588,-1.0585,-1.111,-1.136,-1.136,-1.1509,-1.159,-1.1597,-1.1732,-1.18,-1.18,-1.203,-1.1986,-1.18,-1.18,-1.18,-1.18,-1.18,-1.1925,-1.2098,-1.2098,-1.2098,-1.2098,-1.2104,-1.2111,-1.2145,-1.2393,-1.2501,-1.2501,-1.2501,-1.2501,-1.2501,-1.2501,-1.2501,-1.2501,-1.2501,-1.2501,-1.2501,-1.2501,-1.2501,-1.2501,-1.2501,-1.2501,-1.2501,-1.2501,-1.2501,-1.2501,-1.2501,-1.2501,-1.2501,-1.2501,-1.2501,-1.2501,-1.2501,-1.263,-1.2693,-1.2706,-1.2874,-1.3009,-1.3016,-1.3016,-1.3016,-1.3016,-1.3009,-1.3009,-1.3009,-1.3003,-1.3003,-1.3009,-1.3146,-1.322,-1.322,-1.3322,-1.3403,-1.3403,-1.3403,-1.3403,-1.3403,-1.3403,-1.3403,-1.3403,-1.3403,-1.3403,0.0,0.0,-0.6013,-0.5687,-0.5111,-0.448,-0.3949,-0.347,-0.3146,-0.3224,-0.3221,-0.3185,-0.3231,-0.3164,-0.3245,-0.3643,-0.3608,-0.3784,0.0,-0.502,-0.531,-0.5214,-0.5083,-0.5265,-0.5907,-0.6426,-0.7155,-0.814,-0.8865,-0.9614,-1.0387,-1.0758,-1.1036,-1.1268,-1.1389,-1.1518,-1.1619,-1.1631,-1.1658,-1.1658,-1.1742,-1.1742,-1.1658,-1.1658,-1.1658,-1.1658,-1.1658,-1.1721,-1.1769,-1.1769,-1.1769,-1.1775,-1.187,-1.1911,-1.1945,-1.225,-1.2366,-1.2372,-1.2467,-1.2501,-1.2501,-1.2501,-1.2501,-1.2501,-1.2501,-1.2501,-1.2501,-1.2501,-1.2501,-1.2501,-1.2501,-1.2501,-1.2501,-1.2501,-1.2501,-1.2501,-1.2501,-1.2501,-1.2501,-1.2501,-1.2501,-1.2501,-1.2501,-1.2542,-1.2617,-1.2672,-1.2773,-1.2847,-1.2989,-1.3003,-1.3003,-1.3003,-1.2868,-1.2807,-1.2807,-1.2807,-1.2807,-1.2807,-1.2949,-1.3111,-1.3207,-1.322,-1.3295,-1.3397,-1.3403,-1.3403,-1.3403,-1.3403,-1.3403,-1.3403,-1.3403,-1.3403,-0.8617,-0.8233,0.0,-0.7272,-0.6694,0.0,-0.5586,-0.5148,-0.485,-0.4925,-0.4917,-0.4907,-0.4935,-0.4828,-0.4847,-0.5104,-0.5009,-0.506,0.0,-0.6174,-0.6669,-0.6899,-0.6555,-0.6502,-0.6961,-0.7334,-0.7805,-0.8441,-0.89,-0.9476,-1.0157,-1.0527,-1.0853,-1.1186,-1.1349,-1.1463,-1.1619,-1.1584,-1.1584,-1.1584,-1.1584,-1.1584,-1.1584,-1.1584,-1.1584,-1.1584,-1.1584,-1.1584,-1.1584,-1.1584,-1.1584,-1.159,-1.1685,-1.1719,-1.1753,-1.2094,-1.2244,-1.2311,-1.2454,-1.2501,-1.2501,-1.2501,-1.2501,-1.2501,-1.2501,-1.2501,-1.2501,-1.2501,-1.2501,-1.2501,-1.2501,-1.2501,-1.2501,-1.2501,-1.2501,-1.2501,-1.2501,-1.2501,-1.2501,-1.2501,-1.2501,-1.2501,-1.2501,-1.2501,-1.2535,-1.263,-1.2651,-1.2684,-1.2826,-1.2839,-1.2839,-1.2839,-1.2705,-1.2651,-1.2651,-1.2651,-1.2651,-1.2651,-1.2793,-1.2922,-1.301,-1.3111,-1.3186,-1.3241,-1.3247,-1.3247,-1.3247,-1.3295,-1.3322,-1.3322,-1.3376,-1.3403]},{"header":{"parameterUnit":"m.s-1","parameterCategory":1,"la1":30.6,"la2":29.2853,"lo1":-89.7004,"lo2":-87.6739,"dy":0.0162,"dx":0.0183,"nx":112,"ny":82,"refTime":"2024-09-06T12:00:00:Z","depth":0,"parameterNumber":3,"parameterNumberName":"V-component_of_WINDS"},"data":[0.0,0.0,0.0,0.0,0.0,0.0,0.0,0.0,0.0,0.0,0.0,0.0,0.0,0.0,0.0,0.0,0.0,0.0,0.0,0.0,0.0,0.0,0.0,0.0,0.0,0.0,0.0,0.0,0.0,0.0,0.0,0.0,0.0,0.0,0.0,0.0,0.0,0.0,0.0,0.0,0.0,0.0,0.0,0.0,0.0,0.0,0.0,0.0,0.0,0.0,0.0,0.0,0.0,0.0,0.0,0.0,0.0,0.0,0.0,0.0,0.0,0.0,0.0,0.0,0.0,0.0,0.0,0.0,0.0,0.0,0.0,0.0,0.0,0.0,0.0,0.0,0.0,0.0,0.0,0.0,0.0,0.0,0.0,0.0,0.0,0.0,0.0,0.0,0.0,0.0,5.3348,5.7026,6.0508,6.2625,6.2773,6.0285,5.7685,5.5345,0.0,0.0,0.0,0.0,0.0,0.0,0.0,0.0,0.0,0.0,0.0,0.0,0.0,0.0,0.0,0.0,0.0,0.0,0.0,0.0,0.0,0.0,0.0,0.0,0.0,0.0,0.0,0.0,0.0,0.0,0.0,0.0,0.0,0.0,0.0,0.0,0.0,0.0,0.0,0.0,0.0,0.0,0.0,0.0,0.0,0.0,0.0,0.0,0.0,0.0,0.0,0.0,0.0,0.0,0.0,0.0,0.0,0.0,0.0,0.0,0.0,0.0,0.0,0.0,0.0,0.0,0.0,0.0,0.0,0.0,0.0,0.0,0.0,0.0,0.0,0.0,0.0,0.0,0.0,0.0,0.0,0.0,0.0,0.0,0.0,0.0,0.0,0.0,0.0,0.0,0.0,0.0,0.0,0.0,0.0,0.0,0.0,0.0,0.0,0.0,0.0,0.0,0.0,0.0,5.6533,6.1919,6.3033,6.3702,6.4371,6.0916,5.7945,5.6209,0.0,0.0,0.0,0.0,0.0,0.0,0.0,0.0,0.0,0.0,0.0,0.0,0.0,0.0,0.0,0.0,0.0,0.0,0.0,0.0,0.0,0.0,0.0,0.0,0.0,0.0,0.0,0.0,0.0,0.0,0.0,0.0,0.0,0.0,0.0,0.0,0.0,0.0,0.0,0.0,0.0,0.0,0.0,0.0,0.0,0.0,0.0,0.0,0.0,0.0,0.0,0.0,0.0,0.0,0.0,0.0,0.0,0.0,0.0,0.0,0.0,0.0,0.0,0.0,0.0,0.0,0.0,0.0,0.0,0.0,0.0,0.0,0.0,0.0,0.0,0.0,0.0,0.0,0.0,0.0,0.0,0.0,0.0,0.0,0.0,0.0,0.0,0.0,0.0,0.0,0.0,0.0,0.0,0.0,0.0,0.0,0.0,0.0,0.0,0.0,0.0,0.0,0.0,5.4787,5.8539,6.2513,6.333,6.3553,6.3516,6.0545,5.7796,5.5716,5.137,0.0,0.0,0.0,0.0,0.0,0.0,0.0,0.0,0.0,0.0,0.0,0.0,0.0,0.0,0.0,0.0,0.0,0.0,0.0,0.0,0.0,0.0,0.0,0.0,0.0,0.0,0.0,0.0,0.0,0.0,0.0,0.0,0.0,0.0,0.0,0.0,0.0,0.0,0.0,0.0,0.0,0.0,0.0,0.0,0.0,0.0,0.0,0.0,0.0,0.0,0.0,0.0,0.0,0.0,0.0,0.0,0.0,0.0,0.0,0.0,0.0,0.0,0.0,0.0,0.0,0.0,0.0,0.0,0.0,0.0,0.0,0.0,0.0,0.0,0.0,0.0,0.0,0.0,0.0,0.0,0.0,0.0,0.0,0.0,0.0,0.0,0.0,0.0,0.0,0.0,0.0,0.0,0.0,0.0,0.0,0.0,0.0,0.0,0.0,0.0,0.0,0.0,5.7462,6.0025,6.2662,6.3516,6.3553,6.2736,6.0248,5.7573,5.4899,5.0887,0.0,0.0,0.0,0.0,0.0,0.0,0.0,0.0,0.0,0.0,0.0,0.0,0.0,0.0,0.0,0.0,0.0,0.0,0.0,0.0,0.0,0.0,0.0,0.0,0.0,0.0,0.0,0.0,0.0,0.0,0.0,0.0,0.0,0.0,0.0,0.0,0.0,0.0,0.0,0.0,0.0,0.0,0.0,0.0,0.0,0.0,0.0,0.0,0.0,0.0,0.0,0.0,0.0,0.0,0.0,0.0,0.0,0.0,0.0,0.0,0.0,0.0,0.0,0.0,0.0,0.0,0.0,0.0,0.0,0.0,0.0,0.0,0.0,0.0,0.0,0.0,0.0,0.0,0.0,0.0,0.0,0.0,0.0,0.0,0.0,0.0,0.0,0.0,0.0,0.0,0.0,0.0,0.0,0.0,0.0,0.0,0.0,0.0,0.0,0.0,0.0,0.0,5.8316,6.1065,6.4296,6.4668,6.4408,6.359,6.0545,5.7313,5.4091,5.0042,0.0,0.0,0.0,0.0,0.0,0.0,0.0,0.0,0.0,0.0,0.0,0.0,0.0,0.0,0.0,0.0,0.0,0.0,0.0,0.0,0.0,0.0,0.0,0.0,0.0,0.0,0.0,0.0,0.0,0.0,0.0,0.0,0.0,0.0,0.0,0.0,0.0,0.0,0.0,0.0,0.0,0.0,0.0,0.0,0.0,0.0,0.0,0.0,0.0,0.0,0.0,0.0,0.0,0.0,0.0,0.0,0.0,0.0,0.0,0.0,0.0,0.0,0.0,0.0,0.0,0.0,0.0,0.0,0.0,0.0,0.0,0.0,0.0,0.0,0.0,0.0,0.0,0.0,0.0,0.0,0.0,0.0,0.0,0.0,0.0,0.0,0.0,0.0,0.0,0.0,0.0,0.0,0.0,0.0,0.0,0.0,0.0,0.0,0.0,0.0,0.0,0.0,5.8873,6.1585,6.3813,6.4519,6.4073,6.2253,5.9988,5.709,5.3311,0.0,0.0,0.0,0.0,0.0,0.0,0.0,0.0,0.0,0.0,0.0,0.0,0.0,0.0,0.0,0.0,0.0,0.0,0.0,0.0,0.0,0.0,0.0,0.0,0.0,0.0,0.0,0.0,0.0,0.0,0.0,0.0,0.0,0.0,0.0,0.0,0.0,0.0,0.0,0.0,0.0,0.0,0.0,0.0,0.0,0.0,0.0,0.0,0.0,0.0,0.0,0.0,0.0,0.0,0.0,0.0,0.0,0.0,0.0,0.0,0.0,0.0,0.0,0.0,0.0,0.0,0.0,0.0,0.0,0.0,0.0,0.0,0.0,0.0,0.0,0.0,0.0,0.0,0.0,0.0,0.0,0.0,0.0,0.0,0.0,0.0,0.0,0.0,0.0,0.0,0.0,0.0,0.0,0.0,0.0,0.0,0.0,0.0,0.0,0.0,0.0,0.0,5.5763,5.9404,6.2105,6.3442,6.4556,6.4222,6.177,5.9802,5.6942,5.2865,0.0,0.0,0.0,0.0,0.0,0.0,0.0,0.0,0.0,0.0,0.0,0.0,0.0,0.0,0.0,0.0,0.0,0.0,0.0,0.0,0.0,0.0,0.0,0.0,0.0,0.0,0.0,0.0,0.0,0.0,0.0,0.0,0.0,0.0,0.0,0.0,0.0,0.0,0.0,0.0,0.0,0.0,0.0,0.0,0.0,0.0,0.0,0.0,0.0,0.0,0.0,0.0,0.0,0.0,0.0,0.0,0.0,0.0,0.0,0.0,0.0,0.0,0.0,0.0,0.0,0.0,0.0,0.0,0.0,0.0,0.0,0.0,0.0,0.0,0.0,0.0,0.0,0.0,0.0,0.0,0.0,0.0,0.0,0.0,0.0,0.0,0.0,0.0,0.0,0.0,0.0,0.0,0.0,0.0,0.0,0.0,0.0,0.0,0.0,0.0,0.0,0.0,5.5763,5.9887,6.2736,6.3516,6.5113,6.5088,6.2625,6.0136,5.6942,0.0,0.0,0.0,0.0,0.0,0.0,0.0,0.0,0.0,0.0,0.0,0.0,0.0,0.0,0.0,0.0,0.0,0.0,0.0,0.0,0.0,0.0,0.0,0.0,0.0,0.0,0.0,0.0,0.0,0.0,0.0,0.0,0.0,0.0,0.0,0.0,0.0,0.0,0.0,0.0,0.0,0.0,0.0,0.0,0.0,0.0,0.0,0.0,0.0,0.0,0.0,0.0,0.0,0.0,0.0,0.0,0.0,0.0,0.0,0.0,0.0,0.0,0.0,0.0,0.0,0.0,0.0,0.0,0.0,0.0,0.0,0.0,0.0,0.0,0.0,0.0,0.0,0.0,0.0,0.0,0.0,0.0,0.0,0.0,0.0,0.0,0.0,0.0,0.0,0.0,0.0,0.0,0.0,0.0,0.0,0.0,0.0,0.0,0.0,0.0,0.0,0.0,0.0,5.5837,6.0359,6.333,6.3553,6.5113,6.5088,6.2625,6.0136,5.7202,5.3683,0.0,0.0,0.0,0.0,0.0,0.0,0.0,0.0,0.0,0.0,0.0,0.0,0.0,0.0,0.0,0.0,0.0,0.0,0.0,0.0,0.0,0.0,0.0,0.0,0.0,0.0,0.0,0.0,0.0,0.0,0.0,0.0,0.0,0.0,0.0,0.0,0.0,0.0,0.0,0.0,0.0,0.0,0.0,0.0,0.0,0.0,0.0,0.0,0.0,0.0,0.0,0.0,0.0,0.0,0.0,0.0,0.0,0.0,0.0,0.0,0.0,0.0,0.0,0.0,0.0,0.0,0.0,0.0,0.0,0.0,0.0,0.0,0.0,0.0,0.0,0.0,0.0,0.0,0.0,0.0,0.0,0.0,0.0,0.0,0.0,0.0,0.0,0.0,0.0,0.0,0.0,0.0,0.0,0.0,0.0,0.0,0.0,0.0,0.0,0.0,0.0,0.0,5.632,6.0768,6.359,6.359,6.5113,6.5225,6.307,6.0582,5.7759,5.449,0.0,0.0,0.0,0.0,0.0,0.0,0.0,0.0,0.0,0.0,0.0,0.0,0.0,0.0,0.0,0.0,0.0,0.0,0.0,0.0,0.0,0.0,0.0,0.0,0.0,0.0,0.0,0.0,0.0,0.0,0.0,0.0,0.0,0.0,0.0,0.0,0.0,0.0,0.0,0.0,0.0,0.0,0.0,0.0,0.0,0.0,0.0,0.0,0.0,0.0,0.0,0.0,0.0,0.0,0.0,0.0,0.0,0.0,0.0,0.0,0.0,0.0,0.0,0.0,0.0,0.0,0.0,0.0,0.0,0.0,0.0,0.0,0.0,0.0,0.0,0.0,0.0,0.0,0.0,0.0,0.0,0.0,0.0,0.0,0.0,0.0,0.0,0.0,0.0,0.0,0.0,0.0,0.0,0.0,0.0,0.0,0.0,0.0,0.0,0.0,0.0,0.0,5.71,6.1176,6.3702,6.3702,6.5151,6.5411,6.3739,6.1325,5.8576,5.5419,0.0,0.0,0.0,0.0,0.0,0.0,0.0,0.0,0.0,0.0,0.0,0.0,0.0,0.0,0.0,0.0,0.0,0.0,0.0,0.0,0.0,0.0,0.0,0.0,0.0,0.0,0.0,0.0,0.0,0.0,0.0,0.0,0.0,0.0,0.0,0.0,0.0,0.0,0.0,0.0,0.0,0.0,0.0,0.0,0.0,0.0,0.0,0.0,0.0,0.0,0.0,0.0,0.0,0.0,0.0,0.0,0.0,0.0,0.0,0.0,4.8004,4.6212,0.0,0.0,0.0,0.0,0.0,0.0,0.0,0.0,0.0,0.0,0.0,0.0,0.0,0.0,0.0,0.0,0.0,0.0,0.0,0.0,0.0,0.0,0.0,0.0,0.0,0.0,0.0,0.0,0.0,0.0,0.0,0.0,0.0,0.0,0.0,0.0,0.0,0.0,0.0,0.0,5.7907,6.1993,6.4556,6.4556,6.5485,6.5411,6.3739,6.1325,5.9059,5.709,5.2494,0.0,0.0,0.0,0.0,0.0,0.0,0.0,0.0,0.0,0.0,0.0,0.0,0.0,0.0,0.0,0.0,0.0,0.0,0.0,0.0,0.0,0.0,0.0,0.0,0.0,0.0,0.0,0.0,0.0,0.0,0.0,0.0,0.0,0.0,0.0,0.0,0.0,0.0,0.0,0.0,0.0,0.0,0.0,0.0,0.0,0.0,0.0,0.0,0.0,0.0,0.0,0.0,0.0,0.0,0.0,0.0,0.0,0.0,0.0,5.2611,5.0495,0.0,0.0,0.0,0.0,0.0,0.0,0.0,0.0,0.0,0.0,0.0,0.0,0.0,0.0,0.0,0.0,0.0,0.0,0.0,0.0,0.0,0.0,0.0,0.0,0.0,0.0,0.0,0.0,0.0,0.0,0.0,0.0,0.0,0.0,0.0,0.0,0.0,0.0,0.0,0.0,5.8937,6.2689,6.4998,6.4998,6.5743,6.5557,6.3869,6.2188,6.0364,5.833,5.5015,0.0,0.0,0.0,0.0,0.0,0.0,0.0,0.0,0.0,0.0,0.0,0.0,0.0,0.0,0.0,0.0,0.0,0.0,0.0,0.0,0.0,0.0,0.0,0.0,0.0,0.0,0.0,0.0,0.0,0.0,0.0,0.0,0.0,0.0,0.0,0.0,0.0,0.0,0.0,0.0,0.0,0.0,0.0,0.0,0.0,0.0,0.0,0.0,0.0,0.0,0.0,0.0,0.0,5.7503,5.8392,5.9281,6.0114,6.0481,6.0334,5.7666,5.5574,5.3948,5.3015,0.0,0.0,0.0,0.0,0.0,0.0,0.0,0.0,0.0,0.0,0.0,0.0,0.0,0.0,0.0,0.0,0.0,0.0,0.0,0.0,0.0,0.0,5.5794,5.7552,5.8148,5.7253,5.3409,0.0,0.0,0.0,0.0,0.0,0.0,0.0,0.0,0.0,0.0,0.0,6.0279,6.3545,6.5502,6.5502,6.6116,6.5795,6.4139,6.3174,6.1734,5.9604,5.7713,5.5175,0.0,0.0,0.0,0.0,0.0,0.0,0.0,0.0,0.0,0.0,0.0,0.0,0.0,0.0,0.0,0.0,0.0,0.0,0.0,0.0,0.0,0.0,0.0,0.0,0.0,0.0,0.0,0.0,0.0,0.0,0.0,0.0,4.43,4.5407,0.0,0.0,0.0,0.0,0.0,0.0,0.0,0.0,0.0,0.0,0.0,0.0,0.0,5.5849,5.8147,5.8966,6.0224,6.1814,6.2707,6.3527,6.4371,6.5191,6.5558,6.5521,6.5081,0.0,5.7262,5.5768,0.0,0.0,0.0,0.0,0.0,0.0,0.0,0.0,0.0,0.0,0.0,0.0,0.0,0.0,0.0,0.0,0.0,0.0,0.0,0.0,0.0,0.0,6.0326,6.2234,6.3288,6.3529,6.2363,5.827,5.4535,5.357,5.2151,5.085,0.0,0.0,0.0,0.0,0.0,0.0,6.2259,6.5112,6.6771,6.6771,6.6814,6.6151,6.4487,6.3443,6.2456,6.1486,5.915,5.7266,5.6116,5.3036,0.0,0.0,0.0,0.0,0.0,0.0,0.0,0.0,0.0,0.0,0.0,0.0,0.0,0.0,0.0,0.0,0.0,0.0,0.0,0.0,0.0,0.0,0.0,0.0,0.0,0.0,0.0,0.0,0.0,4.483,4.7827,4.915,4.926,4.903,0.0,0.0,0.0,0.0,0.0,0.0,0.0,0.0,0.0,5.84,5.9697,6.13,6.3282,6.3649,6.4861,6.6916,6.7283,6.8128,6.9325,6.9252,6.9178,6.9192,6.8796,6.6975,6.3995,6.0933,5.8472,5.6555,0.0,0.0,0.0,0.0,5.5659,5.6564,5.7491,5.761,5.7211,5.645,0.0,0.0,0.0,0.0,0.0,0.0,0.0,5.6973,5.9925,6.2303,6.4314,6.5639,6.6301,6.6687,6.6833,6.464,6.1642,5.8303,5.7027,5.592,5.4095,5.3467,0.0,0.0,0.0,6.0577,6.3865,6.6469,6.7853,6.7388,6.7314,6.6586,6.4895,6.4275,6.3653,6.2878,6.1756,6.0385,5.871,5.6797,5.4481,0.0,0.0,0.0,0.0,0.0,0.0,0.0,0.0,0.0,0.0,0.0,0.0,0.0,0.0,0.0,0.0,0.0,0.0,0.0,0.0,0.0,0.0,0.0,0.0,0.0,0.0,0.0,0.0,4.8086,5.0849,5.2685,5.238,5.2123,0.0,0.0,0.0,0.0,0.0,0.0,5.7384,5.9758,6.1826,6.3455,6.4938,6.6507,6.8204,6.8425,6.9433,7.1241,7.1462,7.2199,7.3326,7.2737,7.2443,7.2406,7.1498,7.0739,6.989,6.5825,6.3064,6.129,6.0478,5.9409,5.845,5.9651,6.0248,6.0586,6.1853,6.2,6.1604,6.1045,5.9591,5.7869,5.67,0.0,0.0,0.0,0.0,6.1764,6.3864,6.5982,6.7721,6.841,6.897,6.9536,7.0157,6.9842,6.7981,6.31,6.1751,6.0715,5.8636,5.7885,0.0,5.898,6.0791,6.2962,6.5549,6.7662,6.8739,6.812,6.7866,6.7101,6.5588,6.5137,6.466,6.4094,6.3841,6.2811,6.0807,5.9764,5.774,5.4645,0.0,0.0,0.0,0.0,0.0,0.0,0.0,0.0,0.0,0.0,0.0,0.0,0.0,0.0,0.0,0.0,0.0,0.0,0.0,0.0,0.0,0.0,0.0,0.0,0.0,0.0,0.0,0.0,0.0,5.5144,5.5365,0.0,0.0,0.0,0.0,5.7519,5.9844,6.1557,6.2389,6.4787,6.6909,6.8686,6.9533,7.0897,7.2855,7.3619,7.4118,7.4375,7.5156,7.5564,7.5625,7.5601,7.5551,7.549,7.393,7.3237,7.2914,6.9294,6.7382,6.6629,6.5838,6.5136,6.4558,6.4633,6.4838,6.5095,6.517,6.5288,6.5413,6.5385,6.3896,6.1977,6.1256,6.1012,0.0,0.0,6.3703,6.5284,6.6368,6.851,7.0432,7.0621,7.1886,7.3098,7.3241,7.3262,7.2107,6.825,6.6201,6.481,6.3787,0.0,6.178,6.3428,6.387,6.5015,6.7607,6.877,6.9343,6.9298,6.851,6.7623,6.6773,6.578,6.5221,6.5307,6.4489,6.3604,6.2793,6.1172,5.9432,5.7531,5.4991,0.0,0.0,0.0,0.0,0.0,0.0,0.0,0.0,0.0,0.0,0.0,0.0,0.0,0.0,0.0,0.0,0.0,0.0,0.0,0.0,0.0,0.0,0.0,0.0,0.0,0.0,0.0,0.0,5.8843,5.9623,0.0,6.1111,6.0937,6.1419,6.3086,6.4963,6.6617,6.8012,6.99,7.1468,7.2595,7.3517,7.4314,7.5014,7.5377,7.5852,7.6426,7.6687,7.7084,7.7582,7.7151,7.6965,7.6903,7.5931,7.5529,7.5454,7.4291,7.1916,6.9005,6.8843,6.8413,6.7889,6.8527,6.883,6.9028,6.9627,6.9567,6.9076,6.8133,6.6649,6.5184,6.4939,6.4922,6.5004,6.5331,6.7091,6.8936,6.9287,7.0904,7.2484,7.2534,7.301,7.3594,7.4154,7.3853,7.3248,7.2423,7.0875,6.9073,6.7089,6.6241,6.5837,6.5925,6.6451,6.7376,6.8936,6.9847,7.0169,6.9662,6.8796,6.7917,6.6985,6.6085,6.536,6.4802,6.4479,6.3733,6.2374,6.1735,6.0597,5.877,5.6754,5.4651,0.0,0.0,0.0,0.0,0.0,0.0,0.0,0.0,0.0,0.0,0.0,0.0,0.0,0.0,0.0,0.0,0.0,0.0,0.0,0.0,0.0,0.0,0.0,0.0,0.0,5.7178,6.0688,6.2667,6.3674,6.4549,6.5322,6.5706,6.6392,6.7752,6.9615,7.1168,7.2311,7.3627,7.4745,7.5668,7.6281,7.683,7.7229,7.7388,7.7723,7.8322,7.8322,7.8586,7.9075,7.8643,7.8452,7.8426,7.7741,7.7441,7.7441,7.7333,7.5474,7.2687,7.272,7.2147,7.1383,7.2011,7.1938,7.1627,7.2328,7.2267,7.167,7.0741,6.9797,6.8998,6.9066,6.9071,6.9114,6.9114,7.0371,7.1706,7.1706,7.2779,7.3892,7.3892,7.4123,7.4469,7.5007,7.47,7.4507,7.5053,7.3748,7.202,7.0329,6.9526,6.9044,6.8785,6.8754,6.912,7.0007,7.0552,7.0706,7.0167,6.9353,6.8455,6.7562,6.6486,6.5423,6.4538,6.4225,6.3482,6.2105,6.2028,6.1318,5.9854,5.8105,5.6332,5.4505,0.0,0.0,0.0,0.0,0.0,0.0,0.0,0.0,0.0,0.0,0.0,0.0,0.0,0.0,0.0,0.0,0.0,0.0,0.0,0.0,0.0,0.0,0.0,5.8185,6.087,6.3907,6.6474,6.7509,6.8345,6.916,6.9996,7.0766,7.1453,7.375,7.5122,7.5122,7.5882,7.6818,7.7862,7.7956,7.8553,7.9719,7.9836,7.9979,8.0129,8.0129,8.0129,8.0129,8.0091,8.0129,8.0053,7.9321,7.8941,7.8912,7.818,7.7883,7.7855,7.7478,7.6452,7.518,7.518,7.4216,7.291,7.3117,7.3174,7.316,7.3315,7.3321,7.3336,7.3447,7.3507,7.3507,7.3507,7.3507,7.3546,7.3546,7.4123,7.4738,7.4738,7.5399,7.6015,7.6015,7.6015,7.6015,7.6015,7.4707,7.3584,7.3546,7.2129,7.1283,7.2098,7.0821,0.0,7.0783,7.0898,7.0898,7.0898,7.0167,6.9353,6.8468,6.6898,6.5551,6.4628,6.3775,6.2974,6.2133,6.2133,6.1749,6.0864,5.9196,5.7424,5.5661,0.0,0.0,0.0,0.0,0.0,0.0,0.0,0.0,0.0,0.0,0.0,0.0,0.0,0.0,0.0,0.0,0.0,0.0,0.0,0.0,0.0,6.1083,6.3432,6.2823,6.622,6.9265,7.0598,7.2137,7.3439,7.4264,7.4568,7.5041,7.5797,7.7103,7.7824,7.7824,7.8598,7.915,7.9469,7.9585,7.9792,8.0149,8.0258,8.0354,8.0383,8.0383,8.0383,8.0392,8.042,8.0457,8.0457,8.0348,8.0261,8.0269,8.0066,8.0004,7.9885,7.8459,7.764,7.7197,7.6654,7.5888,7.5041,7.5118,7.4751,7.4273,7.431,7.3902,7.344,7.35,7.3507,7.3507,7.3507,7.393,7.4353,7.4353,7.5014,7.563,7.563,7.5822,7.6015,7.6015,7.6015,7.6015,7.6015,7.563,7.513,7.4469,7.3969,7.3322,7.2367,7.1828,7.136,7.0937,7.0898,7.0898,7.0898,7.0167,6.9353,6.8468,6.7398,6.5859,6.3775,6.4045,6.3589,6.2172,6.2666,6.2589,6.1749,6.1275,6.0459,0.0,0.0,0.0,0.0,0.0,0.0,0.0,0.0,0.0,0.0,0.0,0.0,0.0,0.0,0.0,0.0,0.0,0.0,0.0,0.0,0.0,0.0,6.6221,6.881,6.9687,7.1307,7.2848,7.4065,7.549,7.6546,7.7071,7.7453,7.7816,7.8256,7.9085,7.9581,7.9581,7.9991,8.0277,8.0316,8.0449,8.0523,8.0569,8.0667,8.0749,8.0749,8.0749,8.0749,8.0749,8.0801,8.0826,8.0788,8.0885,8.0948,8.0948,8.0948,8.0934,8.0852,0.0,0.0,0.0,0.0,7.737,7.6947,7.6601,7.617,7.5745,7.5361,7.4938,7.4546,7.4546,7.4546,7.4546,7.4546,7.4899,7.5245,7.5245,7.563,7.6015,7.6015,7.6015,7.6015,7.6015,7.6015,7.6015,7.6015,7.6015,0.0,7.5322,7.493,7.4361,7.3399,7.2629,7.2021,7.1514,7.1129,7.0898,7.0898,7.0475,6.986,6.9007,6.7821,0.0,0.0,0.0,6.3782,6.3172,6.3935,0.0,0.0,0.0,0.0,0.0,0.0,0.0,0.0,6.0265,6.0993,0.0,0.0,0.0,0.0,0.0,0.0,0.0,0.0,0.0,0.0,0.0,0.0,0.0,0.0,0.0,0.0,7.1335,7.4426,7.6952,7.5879,7.543,7.7028,7.7956,7.8454,7.8454,7.9144,7.9521,7.9442,8.0121,8.058,8.058,8.058,0.0,0.0,0.0,8.086,8.0934,8.1053,8.1093,8.1093,8.1093,8.1093,8.1093,8.1093,8.1093,8.1093,8.1093,8.1093,8.1093,8.1093,8.1093,8.1085,8.0967,8.0445,7.97,7.8938,7.86,7.8407,7.7676,0.0,0.0,7.6438,7.613,7.613,7.6029,7.6029,7.5991,7.6037,7.6005,7.6005,7.6005,7.6037,7.6029,7.6029,7.6029,7.6029,7.6029,7.6037,7.6005,7.6005,7.6005,7.6005,7.6005,7.5368,7.4815,7.47,7.3437,7.2406,7.2213,7.1514,7.1014,7.0898,7.0898,0.0,6.9783,6.8282,6.7019,6.6096,6.4589,6.4122,6.4974,6.5859,6.632,6.632,6.6404,6.6865,6.7673,6.7673,6.8558,7.0199,6.7499,6.678,0.0,0.0,0.0,0.0,0.0,0.0,0.0,0.0,0.0,0.0,0.0,0.0,0.0,0.0,0.0,7.1544,7.4512,7.7009,7.8992,7.8946,7.883,7.9135,7.9952,8.0522,8.0522,8.0675,8.0744,8.0728,8.0882,8.0997,8.0997,8.0997,8.1005,8.1021,8.1037,8.1053,8.1069,8.1085,8.1093,8.1093,8.1093,0.0,8.1093,8.1093,8.1093,8.1093,8.1093,8.1093,8.1093,8.1093,8.1093,8.1093,8.1077,8.0538,7.9777,7.9623,7.9092,7.8484,7.833,7.8253,7.8138,7.733,7.7061,7.6914,7.6286,7.6069,0.0,7.6138,7.6152,7.6152,7.6152,7.6111,7.6069,7.6069,7.6069,7.6069,7.6069,7.6118,7.6152,7.6152,7.6152,7.6152,7.6152,7.594,7.5515,7.4815,7.4437,7.3745,7.2367,7.2059,7.1668,7.0975,7.0898,7.0552,6.9783,6.9398,6.8513,6.6981,6.6558,6.6744,6.7622,6.8513,6.8975,6.8975,6.959,7.036,7.1213,7.1213,7.2091,7.3661,7.0423,7.0147,0.0,0.0,0.0,0.0,0.0,0.0,0.0,0.0,0.0,0.0,0.0,6.1302,6.5207,0.0,7.1674,7.5219,7.7301,7.8931,8.0277,8.0439,8.0423,8.0384,8.08,8.1093,8.1093,8.1093,8.1093,8.1093,8.1093,8.1093,8.1093,8.1093,8.1093,8.1093,8.1093,8.1093,8.1093,8.1093,8.1093,8.1093,8.1093,8.1093,8.1093,8.1093,8.1093,8.1093,8.1093,8.1093,8.1093,8.1139,8.1177,8.1214,8.1214,8.0892,8.0439,8.0439,8.0169,7.9754,7.933,7.9191,7.9083,7.8279,7.7754,7.7337,7.6916,7.6499,7.6152,7.6185,7.6192,7.6192,7.6192,7.6172,7.6145,7.6145,7.6145,7.6145,7.6145,7.6172,7.6192,7.6192,7.6192,7.6192,7.6192,7.6138,7.5922,7.5464,7.4998,7.4392,7.3553,7.3091,7.2668,7.2238,7.2206,7.2052,7.1622,7.1206,7.0398,6.909,6.9405,6.986,7.0283,7.1129,7.1584,7.1584,7.2007,7.2629,7.3437,7.3899,7.4745,7.5976,7.4707,7.4553,0.0,0.0,0.0,0.0,0.0,0.0,0.0,5.7801,5.9876,6.2038,6.4145,6.6804,7.0585,7.2878,7.5196,7.8177,7.9431,8.0285,8.1016,8.1093,8.1093,8.1093,8.1093,8.1093,8.1093,8.1093,8.1093,8.1093,8.1093,8.1093,8.1093,8.1093,8.1093,8.1093,8.1093,8.1093,8.1093,8.1093,8.11,8.1116,8.1116,8.1124,8.1139,8.1139,8.1139,8.1139,8.1139,8.1139,8.1147,8.1229,8.1256,8.1312,8.1326,8.1263,8.1184,8.1154,8.1139,8.1031,8.0405,8.0157,8.0049,7.9271,7.8559,7.7948,7.7614,7.7151,7.6681,7.654,7.6624,7.6739,7.6759,7.6752,7.6746,7.6759,7.672,7.672,7.672,7.6733,7.6701,7.6546,7.6546,7.6469,7.6314,7.6263,7.6225,7.6131,7.5485,7.4942,7.4749,7.4172,7.371,7.3556,7.3556,7.3556,7.3556,7.2909,7.2177,7.1484,7.2087,7.2465,7.2465,7.329,7.3738,7.3738,7.3892,7.4322,7.4959,7.5844,7.6712,7.7627,7.8435,7.8452,4.9505,5.125,5.3518,5.5331,5.776,5.9797,0.0,6.2455,6.5102,6.6085,6.8852,7.1758,7.376,7.6156,7.8223,7.9446,8.0392,8.0977,8.1093,8.1093,8.1093,8.1093,8.1093,8.1093,8.1093,8.1093,8.1093,8.1093,8.1093,8.1093,8.1093,8.1093,8.1093,8.1093,8.1093,8.1093,8.1093,8.1093,8.1131,8.1199,8.1199,8.1236,8.1263,8.1263,8.1263,8.1263,8.1263,8.1263,8.127,8.134,8.1374,8.1394,8.1459,8.1478,8.1453,8.1312,8.1263,8.1263,8.1154,8.1161,8.1007,8.0127,7.9787,7.9446,7.8007,7.8065,7.8464,7.7715,7.8081,7.8712,7.8766,7.871,7.8608,7.8661,7.8679,7.8679,7.8679,7.8713,7.8552,7.786,7.7705,7.7472,7.6692,7.6494,7.6397,7.6212,7.6101,7.5748,7.4989,7.4797,7.4488,7.3755,7.3678,7.3678,7.3678,7.3601,7.3485,7.3408,7.342,7.3425,7.3425,7.4165,7.4584,7.4584,7.5322,7.5782,7.5968,7.6815,7.7733,7.8657,7.952,7.9797,5.358,5.588,5.8247,5.9971,6.2739,6.5049,6.5089,6.7389,6.9708,7.0584,7.2659,7.4864,7.6547,7.8162,7.9515,8.0392,8.0862,8.1093,8.1093,8.0669,8.0323,8.0323,7.99,7.9977,8.1016,8.1093,8.1093,8.1093,8.1093,8.1093,8.1093,8.1093,8.1116,8.1162,8.1162,8.1184,8.1229,8.1229,8.1244,8.1241,8.1284,8.1319,8.1353,8.14,8.142,8.142,8.142,8.1446,8.1485,8.1514,8.1556,8.1563,8.1656,8.1654,8.1667,8.1477,8.142,8.1427,8.1466,8.1478,8.1407,8.1103,8.0644,8.0109,7.9436,7.9138,7.895,7.863,7.879,7.9072,7.9132,7.9132,7.9093,7.9155,7.917,7.917,7.917,7.9209,7.9125,7.8776,7.8332,7.7917,7.7529,7.7045,7.666,7.6555,7.6422,7.6165,7.5823,7.5785,7.563,7.5321,7.5282,7.5282,7.5282,7.5282,7.5282,7.5282,7.5258,7.5239,7.5239,7.5517,7.5697,7.5697,7.6508,7.6945,7.6977,7.8412,7.9274,7.971,8.0558,8.0939,5.7571,6.0117,6.2471,6.42,6.7018,6.9382,6.9423,7.1245,7.3053,7.3699,7.5168,7.6746,7.7946,7.8861,7.9746,8.0592,8.0746,8.0823,8.1054,8.0377,7.9815,7.9815,7.9068,7.9044,8.0307,8.0616,8.0823,8.1093,8.1093,8.11,8.1124,8.1147,8.1199,8.1234,8.1263,8.1298,8.1353,8.1353,8.136,8.138,8.1414,8.1452,8.1477,8.1562,8.1569,8.1625,8.1625,8.1647,8.169,8.1708,8.1723,8.1774,8.1851,8.1886,8.1878,8.1713,8.164,8.163,8.1674,8.169,8.1695,8.1732,8.132,8.0771,8.0538,8.0194,7.9806,7.9573,7.9689,7.9898,7.9945,7.9959,7.9973,8.0068,8.008,8.008,8.0053,8.0081,7.9987,7.9764,7.924,7.8751,7.8517,7.7777,7.7193,7.7193,7.6812,7.6541,7.6519,7.6509,7.6509,7.6509,7.6509,7.6509,7.6509,7.6509,7.6509,7.6509,7.6493,7.6487,7.6487,7.6471,7.6543,7.6776,7.7351,7.7788,7.8037,7.9613,8.0353,8.0422,8.1286,8.1721,6.1243,6.3782,6.6128,6.7814,7.0167,7.2091,7.2098,7.3399,7.4623,7.4661,7.6053,7.7292,7.733,7.7984,7.883,7.9708,7.9854,8.0131,8.0977,8.043,7.9897,7.9897,7.9191,7.8693,7.877,7.9405,8.0208,8.1054,8.1093,8.1131,8.1207,8.1241,8.1312,8.1387,8.1466,8.1504,8.1504,8.1504,8.1534,8.16,8.158,8.1635,8.1693,8.1756,8.1822,8.1898,8.1898,8.1902,8.1906,8.1944,8.1987,8.1984,8.2056,8.2086,8.2107,8.2065,8.199,8.1898,8.1902,8.1902,8.1902,8.1902,8.1863,8.1711,8.0859,8.1166,8.1633,8.0781,8.1166,8.1836,8.1912,8.1923,8.1934,8.2013,8.2023,8.2032,8.2023,8.2028,8.1766,8.0934,8.0746,8.0436,7.958,7.8722,7.8174,7.8174,7.7506,7.6919,7.6788,7.6808,7.6808,7.6808,7.6808,7.6808,7.6808,7.6808,7.6808,7.6808,7.6727,7.6703,7.6703,7.6626,7.6954,7.7736,7.7775,7.8224,7.9165,8.0065,8.0553,8.0695,8.1583,8.2003,6.3051,6.6051,6.8667,6.9783,7.1975,7.386,7.386,7.4745,7.5399,7.4815,7.563,7.6245,7.5668,7.6284,7.713,7.8015,7.8592,7.9269,8.0161,7.9618,7.9124,7.9224,7.8012,7.7647,7.8772,7.9539,8.0056,8.0365,8.0947,8.1298,8.1319,8.1401,8.1475,8.1619,8.1602,8.1664,8.1771,8.1776,8.1781,8.1799,8.1843,8.1898,8.1976,8.1984,8.2008,8.2017,8.2017,8.2017,8.202,8.205,8.2065,8.2079,8.2154,8.217,8.2176,8.2227,8.2218,8.215,8.2045,8.2017,8.2017,8.2017,8.2017,8.1978,8.1669,8.1786,8.1978,8.1669,8.1825,8.2026,8.2053,8.206,8.2068,8.2132,8.2175,8.2177,8.2185,8.2158,8.209,8.1784,8.1287,8.0825,8.0553,7.9774,7.8993,7.8406,7.7589,7.6995,7.6958,7.6913,7.6913,7.6913,7.6913,7.6913,7.6913,7.6913,7.6913,7.6913,7.6905,7.7133,7.7682,7.7673,7.8057,7.8918,7.9499,7.9931,8.0254,8.114,8.1592,8.1646,8.1982,8.2158,6.5667,6.8706,7.1245,7.2052,7.3707,7.5168,7.5168,7.5361,7.5284,7.443,7.4207,7.4014,7.3437,7.3805,7.4704,7.6174,7.7417,7.8591,7.9818,7.9604,7.9331,7.946,7.8284,7.7875,7.9015,7.978,8.0308,8.0564,8.1137,8.149,8.1499,8.158,8.1655,8.1792,8.1816,8.187,8.1955,8.1955,8.1961,8.1974,8.202,8.2058,8.213,8.2144,8.2154,8.2161,8.2161,8.2161,8.2163,8.2173,8.2181,8.2188,8.2205,8.225,8.2254,8.2298,8.23,8.2297,8.2181,8.2161,8.2161,8.2161,8.2161,8.2161,8.2161,8.2161,8.2161,8.2161,8.2161,8.2165,8.2175,8.2178,8.2181,8.223,8.2231,8.2232,8.2237,8.2244,8.225,8.2253,8.1828,8.1479,8.1479,8.0737,7.9761,7.8628,7.7908,7.7414,7.709,7.705,7.705,7.705,7.705,7.705,7.705,7.705,7.7167,7.7479,7.7518,7.7871,7.8691,7.873,7.9159,8.002,8.0602,8.1031,8.1343,8.1906,8.2187,8.2187,8.224,8.2248,6.8859,7.1622,7.3738,7.4507,7.5322,7.5938,7.5861,7.5168,7.4238,7.3392,7.186,7.0629,7.0636,7.0689,7.1589,7.4184,7.6225,7.811,7.9879,8.0279,8.0436,8.0499,7.9783,7.9326,7.9364,8.0142,8.0888,8.1589,8.1602,8.1644,8.1708,8.1761,8.1884,8.1996,8.2055,8.2121,8.2121,8.2121,8.2093,8.2113,8.2115,8.2132,8.2199,8.2199,8.2246,8.2293,8.2293,8.2293,8.2293,8.2293,8.2297,8.2302,8.2302,8.2304,8.2304,8.2304,8.2304,8.2304,8.2298,8.2293,8.2293,8.2293,8.2293,8.2293,8.2293,8.2293,8.2293,8.2293,8.2293,8.2293,8.2293,8.2293,8.2293,8.2293,8.2293,8.2296,8.2301,8.2302,8.2303,8.2304,8.2304,8.2304,8.2304,8.1601,8.0508,7.8867,7.8633,7.8241,7.7257,7.71,7.71,7.71,7.71,7.7139,7.7178,7.7178,7.7529,7.8428,7.8467,7.8857,7.9717,7.9756,8.0185,8.1044,8.1083,8.1473,8.2293,8.23,8.2302,8.2302,8.2304,8.2304,7.0014,7.2437,7.443,7.4661,7.4853,7.4861,7.4276,7.2976,7.1475,7.0007,6.8359,6.718,6.7186,6.7247,6.8366,7.1671,7.4226,7.6632,7.9021,8.0024,8.0513,8.0633,7.9965,7.9784,8.0435,8.0672,8.1165,8.1987,8.1948,8.1917,8.193,8.1999,8.2058,8.2146,8.217,8.2187,8.2237,8.2237,8.224,8.2242,8.225,8.2255,8.2258,8.2262,8.2264,8.2304,8.2304,8.2304,8.2304,8.2304,8.2304,8.2304,8.2304,8.2304,8.2304,8.2304,8.2304,8.2304,8.2304,8.2304,8.2304,8.2304,8.2304,8.2304,8.2304,8.2304,8.2304,8.2304,8.2304,8.2304,8.2304,8.2304,8.2304,8.2304,8.2304,8.2304,8.2304,8.2304,8.2304,8.2304,8.2304,8.2304,8.2304,8.2109,8.1601,8.0508,8.0351,7.9609,7.746,7.7187,7.7187,7.7187,7.7187,7.7421,7.8085,7.8124,7.8476,7.9335,7.9374,7.9765,8.0624,8.0663,8.1093,8.1952,8.1952,8.2069,8.2304,8.2304,8.2304,8.2304,8.2304,8.2304,7.2014,7.3899,7.5284,7.5284,7.47,7.393,7.3129,7.1014,6.8744,6.7083,6.4782,6.3344,6.4126,6.4371,6.5719,6.9605,7.2802,7.5732,7.8348,7.982,8.0818,8.1313,8.1,8.095,8.144,8.152,8.1719,8.2195,8.2141,8.2073,8.2104,8.215,8.2221,8.2242,8.2252,8.2258,8.2301,8.2301,8.2301,8.2301,8.2303,8.2304,8.2304,8.2304,8.2304,8.2304,8.2304,8.2304,8.2304,8.2304,8.2304,8.2304,8.2304,8.2304,8.2304,8.2304,8.2304,8.2304,8.2304,8.2304,8.2304,8.2304,8.2304,8.2304,8.2304,8.2304,8.2304,8.2304,8.2304,8.2304,8.2304,8.2304,8.2304,8.2304,8.2304,8.2304,8.2304,8.2304,8.2304,8.2304,8.2304,8.2304,8.2304,8.2304,8.1992,8.1133,8.1015,8.0351,7.8515,7.8008,7.7617,7.7226,7.7539,7.7969,7.8476,7.8828,7.9375,8.0234,8.0273,8.0664,8.1523,8.1562,8.1797,8.2304,8.2304,8.2304,8.2304,8.2304,8.2304,8.2304,8.2304,8.2304,7.4091,7.5361,7.5976,7.5861,7.4584,7.3014,7.179,6.8866,6.5942,6.4128,6.1133,5.9403,6.1213,6.1732,6.3339,6.7699,7.1551,7.4872,7.7509,7.957,8.1124,8.1949,8.2228,8.2394,8.2448,8.2568,8.2613,8.2627,8.2607,8.2445,8.2223,8.2285,8.2297,8.2302,8.2304,8.2304,8.2304,8.2304,8.2304,8.2304,8.2304,8.2304,8.2304,8.2304,8.2304,8.2304,8.2304,8.2304,8.2304,8.2304,8.2304,8.2304,8.2304,8.2304,8.2304,8.2304,8.2304,8.2304,8.2304,8.2304,8.2304,8.2304,8.2304,8.2304,8.2304,8.2304,8.2304,8.2304,8.2304,8.2304,8.2304,8.2304,8.2304,8.2304,8.2304,8.2304,8.2304,8.2304,8.2304,8.2304,8.2304,8.2304,8.2304,8.2304,8.2031,8.1289,8.1172,8.0859,7.9961,7.914,7.8359,7.7617,7.8203,7.8711,7.8828,7.9453,8.0234,8.1133,8.1172,8.1523,8.2265,8.2304,8.2304,8.2304,8.2304,8.2304,8.2304,8.2304,8.2304,8.2304,8.2304,8.2304,7.4392,7.5361,7.5822,7.513,7.3668,7.1636,6.8674,6.5365,6.2287,5.9896,5.7231,5.5912,5.7728,5.8755,6.0802,6.522,6.9467,7.3153,7.5852,7.8924,8.093,8.1094,8.2397,8.3266,8.3308,8.3945,8.4382,8.4385,8.4399,8.378,8.2376,8.23,8.2302,8.2304,8.2304,8.2304,8.2304,8.2304,8.2304,8.2304,8.2304,8.2304,8.2304,8.2304,8.2304,8.2304,8.2304,8.2304,8.2304,8.2304,8.2304,8.2304,8.2304,8.2304,8.2304,8.2304,8.2304,8.2304,8.2304,8.2304,8.2304,8.2304,8.2304,8.2304,8.2304,8.2304,8.2304,8.2304,8.2304,8.2304,8.2304,8.2304,8.2304,8.2304,8.2304,8.2304,8.2304,8.2304,8.2304,8.2304,8.2304,8.2304,8.2304,8.2304,8.2265,8.2109,8.207,8.1758,8.0898,8.0039,7.9414,7.9297,7.9414,7.9765,8.0508,8.0703,8.1133,8.2031,8.207,8.2148,8.2304,8.2304,8.2304,8.2304,8.2304,8.2304,8.2304,8.2304,8.2304,8.2304,8.2304,8.2304,7.5014,7.5668,7.5784,7.4938,7.2766,7.0137,6.7135,6.3199,5.9562,5.7477,5.5012,5.3815,5.5638,5.6784,5.8739,6.2749,6.7016,7.0955,7.4066,7.7435,7.994,8.0838,8.2445,8.3504,8.3504,8.4299,8.4818,8.4862,8.4875,8.4333,8.3044,8.2538,8.2304,8.2304,8.2304,8.2304,8.2304,8.2304,8.2304,8.2304,8.2304,8.2304,8.2304,8.2304,8.2304,8.2304,8.2304,8.2304,8.2304,8.2304,8.2304,8.2304,8.2304,8.2304,8.2304,8.2304,8.2304,8.2304,8.2304,8.2304,8.2304,8.2304,8.2304,8.2304,8.2304,8.2304,8.2304,8.2304,8.2304,8.2304,8.2304,8.2304,8.2304,8.2304,8.2304,8.2304,8.2304,8.2304,8.2304,8.2304,8.2304,8.2304,8.2304,8.2304,8.2304,8.2304,8.2304,8.2148,8.1719,8.1328,8.0703,7.9805,8.0117,8.0547,8.0976,8.1406,8.1836,8.2265,8.2304,8.2304,8.2304,8.2304,8.2304,8.2304,8.2304,8.2304,8.2304,8.2304,8.2304,8.2304,8.2304,8.2304,7.5284,7.5707,7.5476,7.4437,7.1786,6.8674,6.5753,6.1489,5.7612,5.576,5.3498,5.2345,5.3994,5.5093,5.6877,6.0231,6.4409,6.8416,7.1711,7.5462,7.8508,8.0226,8.2098,8.3388,8.3744,8.4578,8.5175,8.5418,8.5113,8.4529,8.3631,8.2968,8.25,8.2304,8.2304,8.2304,8.2304,8.2304,8.2304,8.2304,8.2304,8.2304,8.2304,8.2304,8.2304,8.2304,8.2304,8.2304,8.2304,8.2304,8.2304,8.2304,8.2304,8.2304,8.2304,8.2304,8.2304,8.2304,8.2304,8.2304,8.2304,8.2304,8.2304,8.2304,8.2304,8.2304,8.2304,8.2304,8.2304,8.2304,8.2304,8.2304,8.2304,8.2304,8.2304,8.2304,8.2304,8.2304,8.2304,8.2304,8.2304,8.2304,8.2304,8.2304,8.2304,8.2304,8.2304,8.2304,8.2304,8.2304,8.1797,8.039,8.0859,8.1289,8.1289,8.1914,8.2304,8.2304,8.2304,8.2304,8.2304,8.2304,8.2304,8.2304,8.2304,8.2304,8.2304,8.2304,8.2304,8.2304,8.2304,8.2304,7.4361,7.4815,7.4437,7.2822,7.049,6.7525,6.3397,5.9786,5.6623,5.4155,5.228,5.1404,5.2418,5.3389,5.4924,5.7623,6.1717,6.549,6.8198,7.2885,7.6673,7.843,8.0888,8.3002,8.4539,8.5488,8.6317,8.7104,8.5741,8.4531,8.3633,8.3515,8.3125,8.2304,8.2304,8.2304,8.2304,8.2304,8.2304,8.2304,8.2304,8.2304,8.2304,8.2304,8.2304,8.2304,8.2304,8.2304,8.2304,8.2304,8.2304,8.2304,8.2304,8.2304,8.2304,8.2304,8.2304,8.2304,8.2304,8.2304,8.2304,8.2304,8.2304,8.2304,8.2304,8.2304,8.2304,8.2304,8.2304,8.2304,8.2304,8.2304,8.2304,8.2304,8.2304,8.2304,8.2304,8.2304,8.2304,8.2304,8.2304,8.2304,8.2304,8.2304,8.2304,8.2304,8.2304,8.2304,8.2304,8.2304,8.2226,8.207,8.2148,8.2187,8.2187,8.2265,8.2304,8.2304,8.2304,8.2304,8.2304,8.2304,8.2304,8.2304,8.2304,8.2304,8.2304,8.2304,8.2304,8.2304,8.2304,8.2304,7.2591,7.3591,7.3584,7.186,6.9201,6.6005,6.2293,5.851,5.5249,5.3228,5.1887,5.1228,5.1608,5.2427,5.3772,5.5862,5.9396,6.3002,6.6169,7.105,7.4915,7.6634,8.0068,8.2573,8.3212,8.4982,8.6242,8.664,8.6054,8.5078,8.3672,8.3086,8.2656,8.2304,8.2304,8.2304,8.2304,8.2304,8.2304,8.2304,8.2304,8.2304,8.2304,8.2304,8.2304,8.2304,8.2304,8.2304,8.2304,8.2304,8.2304,8.2304,8.2304,8.2304,8.2304,8.2304,8.2304,8.2304,8.2304,8.2304,8.2304,8.2304,8.2304,8.2304,8.2304,8.2304,8.2304,8.2304,8.2304,8.2304,8.2304,8.2304,8.2304,8.2304,8.2304,8.2304,8.2304,8.2304,8.2304,8.2304,8.2304,8.2304,8.2304,8.2304,8.2304,8.2304,8.2304,8.2304,8.2304,8.2304,8.2304,8.2304,8.2304,8.2304,8.2304,8.2304,8.2304,8.2304,8.2304,8.2304,8.2304,8.2304,8.2304,8.2304,8.2304,8.2304,8.2304,8.2304,8.2304,8.2304,8.2304,8.2304,7.0321,7.1321,7.1321,7.009,6.7281,6.4056,6.0946,5.7452,5.4403,5.2745,5.1789,5.1239,5.1226,5.2017,5.3181,5.4907,5.8122,6.1525,6.4765,6.9645,7.3549,7.5229,7.9014,8.1715,8.2241,8.4402,8.5856,8.6172,8.5703,8.4883,8.3672,8.2773,8.2304,8.2304,8.2304,8.2304,8.2304,8.2304,8.2304,8.2304,8.2304,8.2304,8.2304,8.2304,8.2304,8.2304,8.2304,8.2304,8.2304,8.2304,8.2304,8.2304,8.2304,8.2304,8.2304,8.2304,8.2304,8.2304,8.2304,8.2304,8.2304,8.2304,8.2304,8.2304,8.2304,8.2304,8.2304,8.2304,8.2304,8.2304,8.2304,8.2304,8.2304,8.2304,8.2304,8.2304,8.2304,8.2304,8.2304,8.2304,8.2304,8.2304,8.2304,8.2304,8.2304,8.2304,8.2304,8.2304,8.2304,8.2304,8.2304,8.2304,8.2304,8.2304,8.2304,8.2304,8.2304,8.2304,8.2304,8.2304,8.2304,8.2304,8.2304,8.2304,8.2304,8.2304,8.2304,8.2304,8.2304,8.2304,8.2304,8.2304,6.7507,6.7821,6.7173,6.7135,6.4638,6.15,5.8971,5.6545,5.4329,5.2731,5.1794,5.1287,5.1309,5.208,5.323,5.4948,5.8122,6.1331,6.3946,6.8748,7.2651,7.429,7.7609,8.0393,8.2135,8.3865,8.5273,8.6133,8.4609,8.3633,8.3594,8.2773,8.2304,8.2304,8.2304,8.2304,8.2304,8.2304,8.2304,8.2304,8.2304,8.2304,8.2304,8.2304,8.2304,8.2304,8.2304,8.2304,8.2304,8.2304,8.2304,8.2304,8.2304,8.2304,8.2304,8.2304,8.2304,8.2304,8.2304,8.2304,8.2304,8.2304,8.2304,8.2304,8.2304,8.2304,8.2304,8.2304,8.2304,8.2304,8.2304,8.2304,8.2304,8.2304,8.2304,8.2304,8.2304,8.2304,8.2304,8.2304,8.2304,8.2304,8.2304,8.2304,8.2304,8.2304,8.2304,8.2304,8.2304,8.2304,8.2304,8.2304,8.2304,8.2304,8.2304,8.2304,8.2304,8.2304,8.2304,8.2304,8.2304,8.2304,8.2304,8.2304,8.2304,8.2304,8.2304,8.2304,8.2304,8.2304,8.2304,8.2304,6.332,6.4282,6.4359,6.3826,6.1597,5.9,5.7115,5.4807,5.2787,5.1786,5.1457,5.1364,5.1382,5.2102,5.3244,5.5001,5.7658,6.0627,6.3868,6.8239,7.1948,7.4212,7.8095,8.1508,8.3861,8.4022,8.4375,8.5234,8.4258,8.3359,8.2734,8.2461,8.2304,8.2304,8.2304,8.2304,8.2304,8.2304,8.2304,8.2304,8.2304,8.2304,8.2304,8.2304,8.2304,8.2304,8.2304,8.2304,8.2304,8.2304,8.2304,8.2304,8.2304,8.2304,8.2304,8.2304,8.2304,8.2304,8.2304,8.2304,8.2304,8.2304,8.2304,8.2304,8.2304,8.2304,8.2304,8.2304,8.2304,8.2304,8.2304,8.2304,8.2304,8.2304,8.2304,8.2304,8.2304,8.2304,8.2304,8.2304,8.2304,8.2304,8.2304,8.2304,8.2304,8.2304,8.2304,8.2304,8.2304,8.2304,8.2304,8.2304,8.2304,8.2304,8.2304,8.2304,8.2304,8.2304,8.2304,8.2304,8.2304,8.2304,8.2304,8.2304,8.2304,8.2304,8.2304,8.2304,8.2304,8.2304,8.289,8.3203,5.9209,6.0287,6.0396,6.021,5.8501,5.6513,5.5243,5.358,5.2098,5.1359,5.1329,5.1382,5.1401,5.2386,5.3757,5.5513,5.848,6.1681,6.4805,6.9215,7.3316,7.6563,7.9354,8.1905,8.4176,8.3632,8.3476,8.4336,8.3594,8.2851,8.2344,8.2304,8.2304,8.2304,8.2304,8.2304,8.2304,8.2304,8.2304,8.2304,8.2304,8.2304,8.2304,8.2304,8.2304,8.2304,8.2304,8.2304,0.0,8.2304,8.2304,8.2304,8.2304,8.2304,8.2304,8.2304,8.2304,8.2304,8.2304,8.2304,8.2304,8.2304,8.2304,8.2304,8.2304,8.2304,8.2304,8.2304,8.2304,8.2304,8.2304,8.2304,8.2304,8.2304,8.2304,8.2304,8.2304,8.2304,8.2304,8.2304,8.2304,8.2304,8.2304,8.2304,8.2304,8.2304,8.2304,8.2304,8.2304,8.2304,8.2304,8.2304,8.2304,8.2304,8.2304,8.2304,8.2304,8.2304,8.2304,8.2304,8.2304,8.2304,8.2304,8.2304,8.2304,8.2304,8.2304,8.2304,8.2304,8.2304,8.3203,8.3594,0.0,5.5978,5.5631,5.6516,5.5516,5.4134,5.3472,5.2756,0.0,5.1339,5.13,5.1422,5.1488,5.2858,5.4575,5.6371,6.0237,6.3906,6.6523,7.1442,7.6329,8.048,8.1038,8.1749,8.3435,8.2812,8.2656,8.3515,8.2773,8.2304,8.2304,8.2304,8.2304,8.2304,8.2304,8.2304,8.2304,8.2304,8.2304,8.2304,8.2304,8.2304,8.2304,8.2304,8.2304,8.2304,8.2304,8.2304,8.2304,8.2304,8.2304,8.2304,8.2304,8.2304,8.2304,8.2304,8.2304,8.2304,8.2304,8.2304,8.2304,8.2304,8.2304,8.2304,8.2304,8.2304,8.2304,8.2304,8.2304,8.2304,8.2304,8.2304,8.2304,8.2304,8.2304,8.2304,8.2304,8.2304,8.2304,8.2304,8.2304,8.2304,8.2304,8.2304,8.2304,8.2304,8.2304,8.2304,8.2304,8.2304,8.2304,8.2304,8.2304,8.2304,8.2304,8.2304,8.2304,8.2304,8.2304,8.2304,8.2304,8.2304,8.2304,8.2304,8.2304,8.2304,8.2304,8.2304,8.2304,8.2304,8.3242,8.3672,5.051,0.0,5.3005,5.3895,5.3348,5.256,0.0,5.1853,5.1337,5.1227,5.13,5.1619,5.227,5.3288,5.4771,5.7113,6.0588,6.4101,6.7342,7.3403,7.8372,8.0726,8.1593,8.2419,8.3515,8.2812,8.2656,8.3515,8.2773,8.2304,8.2304,8.2304,8.2304,8.2304,8.2304,8.2304,8.2304,8.2304,8.2304,8.2304,8.2304,8.2304,8.2304,8.2304,8.2304,8.2304,8.2304,8.2304,8.2304,8.2304,8.2304,8.2304,8.2304,8.2304,8.2304,8.2304,8.2304,8.2304,8.2304,8.2304,8.2304,8.2304,8.2304,8.2304,8.2304,8.2304,8.2304,8.2304,8.2304,8.2304,8.2304,8.2304,8.2304,8.2304,8.2304,8.2304,8.2304,8.2304,8.2304,8.2304,8.2304,8.2304,8.2304,8.2304,8.2304,8.2304,8.2304,8.2304,8.2304,8.2304,8.2304,8.2304,8.2304,8.2304,8.2304,8.2304,8.2304,8.2304,8.2304,8.2304,8.2304,8.2304,8.2304,8.2304,8.2304,8.2304,8.2304,8.2304,8.2304,8.2344,8.3867,8.4609,4.8355,4.9779,5.0971,5.1842,5.1737,5.1468,5.1556,5.1343,5.112,5.1224,5.1631,5.2251,5.3128,5.4654,5.6606,5.9183,6.2501,6.6483,7.1519,7.6139,7.9626,8.1393,8.2025,8.2498,8.2969,8.2578,8.25,8.2969,8.2578,8.2304,8.2304,8.2304,8.2304,8.2304,8.2304,8.2304,8.2304,8.2304,8.2304,8.2304,8.2304,8.2304,8.2304,8.2304,8.2304,8.2304,8.2304,8.2304,8.2304,8.2304,8.2304,8.2304,8.2304,8.2304,8.2304,8.2304,8.2304,8.2304,8.2304,8.2304,8.2304,8.2304,8.2304,8.2304,8.2304,8.2304,8.2304,8.2304,8.2304,8.2304,8.2304,8.2304,8.2304,8.2304,8.2304,8.2304,8.2304,8.2304,8.2304,8.2304,8.2304,8.2304,8.2304,8.2304,8.2304,8.2304,8.2304,8.2304,8.2304,8.2304,8.2304,8.2304,8.2304,8.2304,8.2304,8.2304,8.2304,8.2304,8.2304,8.2304,8.2304,8.2304,8.2304,8.2304,8.2304,8.2304,8.2304,8.2304,8.2304,8.2344,8.4101,8.4883,4.7672,4.8759,4.9663,5.0663,5.1073,5.124,5.1386,5.1465,5.1563,5.1688,5.2353,5.3196,5.4223,5.6372,5.8909,6.1641,6.5392,7.0156,7.6403,7.8797,8.0488,8.2098,8.23,8.2303,8.2304,8.2304,8.2304,8.2304,8.2304,8.2304,8.2304,8.2304,8.2304,8.2304,8.2304,8.2304,8.2304,8.2304,8.2304,8.2304,8.2304,8.2304,8.2304,8.2304,8.2304,8.2304,8.2304,8.2304,8.2304,8.2304,8.2304,8.2304,8.2304,8.2304,8.2304,8.2304,8.2304,8.2304,8.2304,8.2304,8.2304,8.2304,8.2304,8.2304,8.2304,8.2304,8.2304,8.2304,8.2304,8.2304,8.2304,8.2304,8.2304,8.2304,8.2304,8.2304,8.2304,8.2304,8.2304,8.2304,8.2304,8.2304,8.2304,8.2304,8.2304,8.2304,8.2304,8.2304,8.2304,8.2304,8.2304,8.2304,8.2304,8.2304,8.2304,8.2304,8.2304,8.2304,8.2304,8.2304,8.2304,8.2304,8.2304,8.2304,8.2304,8.2304,8.2304,8.2304,8.2383,8.2539,8.414,8.4961,4.7721,4.8806,4.9882,5.1463,5.2485,5.31,5.3194,5.3308,5.3396,5.3485,5.3679,5.429,5.5901,5.7698,6.0002,6.3361,6.9266,7.4544,7.7745,7.9713,8.1167,8.2183,8.2304,8.2304,8.2304,8.2304,8.2304,8.2304,8.2304,8.2304,8.2304,8.2304,8.2304,8.2304,8.2304,8.2304,8.2304,8.2304,8.2304,8.2304,8.2304,8.2304,8.2304,8.2304,8.2304,8.2304,8.2304,8.2304,8.2304,8.2304,8.2304,8.2302,8.2302,8.2302,8.2302,8.2302,8.2304,8.2304,8.2304,8.2304,8.2304,8.2304,8.2304,8.2304,8.2304,8.2304,8.2304,8.2303,8.2304,8.2304,8.2304,8.2304,8.2304,8.2304,8.2304,8.2304,8.2304,8.2304,8.2304,8.2304,8.2304,8.2304,8.2304,8.2304,8.2304,8.2304,8.2304,8.2304,8.2304,8.2304,8.2304,8.2304,8.2304,8.2304,8.2304,8.2304,8.2304,8.2304,8.2304,8.2304,8.2304,8.2304,8.2304,8.2304,8.2304,8.2304,8.2304,8.2304,8.2695,8.3437,8.4414,8.5312,4.7735,4.9212,5.0693,5.2458,5.3265,5.377,5.4283,5.4487,5.4704,5.5198,5.5688,5.66,5.8323,6.0432,6.3519,6.8369,7.2987,7.6702,7.8811,8.0188,8.1325,8.2184,8.2304,8.2304,8.2304,8.2304,8.2304,8.2304,8.2304,8.2304,8.2304,8.2304,8.2304,8.2304,8.2304,8.2304,8.2304,8.2304,8.2304,8.2304,8.2304,8.2304,8.2304,8.2304,8.2304,8.2304,8.2304,8.2304,8.2304,8.2302,8.2298,8.2251,8.2246,8.2244,8.2245,8.225,8.2254,8.2257,8.23,8.2301,8.2223,8.1754,8.1598,8.152,8.1051,8.0895,8.0973,8.1478,8.1949,8.2303,8.2302,8.2302,8.2304,8.2304,8.2304,8.2304,8.2304,8.2304,8.2304,8.2304,8.2304,8.2304,8.2304,8.2304,8.2304,8.2304,8.2304,8.2304,8.2304,8.2304,8.2304,8.2304,8.2304,8.2304,8.2304,8.2304,8.2304,8.2304,8.2304,8.2304,8.2304,8.2304,8.2304,8.2304,8.2304,8.2304,8.2304,8.2304,8.25,8.2929,8.3789,8.4414,4.7756,4.9416,5.1129,5.3152,5.414,5.4886,5.5816,5.6384,5.6967,5.7837,5.8551,5.9495,6.1019,6.3754,6.7587,7.3027,7.6042,7.8234,7.9796,8.0738,8.1561,8.2225,8.2304,8.2304,8.2304,8.2304,8.2304,8.2304,8.2304,8.2304,8.2304,8.2304,8.2304,8.2304,8.2304,8.2304,8.2304,8.2304,8.2304,8.2304,8.2304,8.2304,8.2304,8.2304,8.2304,8.2304,8.2304,8.2302,8.2297,8.2249,8.2195,8.2136,8.2158,8.215,8.2152,8.2175,8.2185,8.2189,8.224,8.2128,8.1856,8.1192,8.0841,8.0568,7.9907,7.9713,7.983,8.0493,8.1162,8.179,8.2176,8.2297,8.23,8.23,8.2303,8.2304,8.2304,8.2304,8.2304,8.2304,8.2304,8.2304,8.2304,8.2304,8.2304,8.2304,8.2304,8.2304,8.2304,8.2304,8.2304,8.2304,8.2304,8.2304,8.2304,8.2304,8.2304,8.2304,8.2304,8.2304,8.2304,8.2304,8.2304,8.2304,8.2304,8.2304,8.2304,8.2304,8.2383,8.2617,8.3281,8.3711,4.7792,4.9014,5.0445,5.3125,5.5628,5.7646,5.8515,6.0038,6.1468,6.2365,6.257,6.2891,6.3868,6.7432,7.1425,7.5104,7.7845,7.984,8.0778,8.1679,8.2226,8.2304,8.2304,8.2304,8.2304,8.2304,8.2304,8.2304,8.2304,8.2304,8.2304,8.2304,8.2304,8.2304,8.2304,8.2304,8.2304,8.2304,8.2304,8.2304,8.2304,8.2304,8.2304,8.2304,8.2304,8.2302,8.2297,8.225,8.2198,8.2131,8.2051,8.2006,8.2014,8.2002,8.2011,8.2065,8.2097,8.2113,8.2115,8.162,8.0971,8.0932,8.0346,7.9686,7.9699,7.9702,7.9702,7.9778,7.9857,8.025,8.1861,8.2293,8.2293,8.2293,8.2299,8.2302,8.2302,8.2304,8.2304,8.2304,8.2304,8.2304,8.2304,8.2304,8.2304,8.2304,8.2304,8.2304,8.2304,8.2304,8.2304,8.2304,8.2304,8.2304,8.2304,8.2304,8.2304,8.2304,8.2304,8.2304,8.2304,8.2304,8.2304,8.2304,8.2304,8.2304,8.2304,8.2304,8.2734,8.3515,8.3554,8.4023,4.7882,4.9431,5.1101,5.3261,5.6197,5.8802,5.9687,6.1232,6.3041,6.4954,6.5348,6.5784,6.7197,7.0141,7.3118,7.5503,7.8045,7.9999,8.0898,8.1758,8.2304,8.2304,8.2304,8.2304,8.2304,8.2304,8.2304,8.2304,8.2304,8.2304,8.2304,8.2304,8.2304,8.2304,8.2304,8.2304,8.2304,8.2304,8.2304,8.2304,8.2304,8.2304,8.2304,8.2304,8.2302,8.2296,8.2242,8.2173,8.2088,8.1995,8.1932,8.1859,8.183,8.1787,8.1692,8.1212,8.1065,8.1028,8.0533,8.0179,7.9897,7.942,7.9078,7.8694,7.8219,7.8073,7.8191,7.8748,7.8907,7.9299,8.1022,8.1107,8.0838,8.1347,8.108,8.0696,8.0696,8.1127,8.1479,8.1479,8.1949,8.23,8.23,8.23,8.23,8.23,8.23,8.23,8.23,8.23,8.23,8.23,8.2302,8.2304,8.2304,8.2304,8.2304,8.2304,8.2304,8.2304,8.2304,8.2304,8.2304,8.2304,8.2304,8.2304,8.2304,8.2304,8.2461,8.2773,8.2773,8.2969,4.8023,4.9737,5.1639,5.373,5.6704,5.9544,6.1243,6.3162,6.5352,6.7896,6.8446,6.8803,6.9984,7.1907,7.3865,7.5624,7.8047,8.0,8.0898,8.1758,8.2304,8.2304,8.2304,8.2304,8.2304,8.2304,8.2304,8.2304,8.2304,8.2304,8.2304,8.2304,8.2304,8.2304,8.2304,8.2304,8.2304,8.2304,8.2304,8.2304,8.2304,8.2303,8.2303,8.2297,8.2246,8.2185,8.2148,8.1897,8.1543,8.145,8.1191,8.0849,8.0815,8.0761,8.0649,8.0129,7.9955,7.9937,7.9385,7.9052,7.8824,7.8341,7.8014,7.7686,7.717,7.7038,7.7205,7.7783,7.7946,7.8297,7.978,7.9914,7.9849,8.0435,8.0133,7.9711,7.9711,8.0182,8.0652,8.0964,8.147,8.1976,8.221,8.2285,8.2284,8.2288,8.2288,8.2288,8.2288,8.2288,8.2287,8.2284,8.2253,8.2259,8.2262,8.2303,8.2304,8.2304,8.2304,8.2304,8.2304,8.2304,8.2304,8.2304,8.2304,8.2304,8.2304,8.2304,8.2304,8.2304,8.2304,8.2304,4.8254,4.9857,5.1866,5.4578,5.7193,6.0033,6.3531,6.6297,6.8868,7.1499,7.2016,7.2023,7.2028,7.2732,7.3905,7.5625,7.8047,8.0,8.0859,8.1719,8.2304,8.2304,8.2304,8.2304,8.2304,8.2304,8.2304,8.2304,8.2304,8.2304,8.2304,8.2304,8.2304,8.2304,8.2304,8.2304,8.2304,8.2304,8.2304,8.2301,8.2296,8.2292,8.2292,8.2228,8.2105,8.1953,8.189,8.1384,8.0556,8.0446,7.9769,7.8786,7.8786,7.878,7.8793,7.8855,7.8921,7.8978,7.8978,7.843,7.7791,7.7846,7.7345,7.6708,7.688,7.6936,7.7011,7.699,7.7006,7.7199,7.8057,7.8987,7.9676,7.9676,7.9689,7.9659,7.9659,7.9669,7.9949,8.0808,8.0995,8.1222,8.2041,8.2185,8.2179,8.2195,8.2196,8.2196,8.2196,8.2196,8.2191,8.2215,8.2188,8.2196,8.2197,8.2248,8.2296,8.2301,8.2301,8.2303,8.2304,8.2304,8.2304,8.2304,8.2304,8.2304,8.2304,8.2304,8.2304,8.2304,8.2304,8.2304,4.9793,5.1736,5.3748,5.6387,5.9449,6.2584,6.5454,6.7637,6.9936,7.3148,7.4327,7.4566,7.3942,7.453,7.5312,7.582,7.7578,7.8945,7.9219,8.0469,8.1406,8.1406,8.1914,8.2304,8.2304,8.2304,8.2304,8.2304,8.2304,8.2304,8.2304,8.2304,8.2304,8.2304,8.2304,8.2304,8.2304,8.2304,8.1989,8.1398,8.1334,8.1323,8.1294,8.1247,8.0823,8.01,7.999,7.9743,7.9399,7.9293,7.905,7.8672,7.8672,7.8637,7.8517,7.7961,7.7824,7.7807,7.7241,7.6918,7.6757,7.682,7.6733,7.657,7.6715,7.6819,7.6865,7.693,7.6947,7.6986,7.7259,7.756,7.794,7.8581,7.8286,7.7868,7.7818,7.8288,7.8799,7.9033,7.9602,8.0094,8.0328,8.0347,8.0339,8.0365,8.0367,8.0562,8.1148,8.1696,8.2073,8.2107,8.2077,8.2095,8.2124,8.2191,8.2244,8.2247,8.2258,8.2303,8.2304,8.2304,8.2304,8.2304,8.2304,8.2304,8.2304,8.2304,8.2304,8.2304,8.2304,8.2304,5.0625,5.2824,5.509,5.7664,6.0953,6.4473,6.8117,7.0225,7.2254,7.507,7.5778,7.5741,7.5194,7.5547,7.5898,7.5898,7.7344,7.8515,7.8515,7.9648,8.0469,8.0469,8.0937,8.1289,8.1289,8.1562,8.1797,8.1797,8.2109,8.2304,8.2304,8.2304,8.2304,8.2304,8.1953,8.1797,8.1796,8.1442,8.1006,8.0485,8.0399,8.0168,7.9803,8.0039,7.9781,7.9139,7.8672,7.84,7.8258,7.7903,7.7659,7.7557,7.7557,7.7521,7.7445,7.6938,7.6813,7.678,7.629,7.6138,7.6198,7.6268,7.6347,7.6383,7.6497,7.6573,7.6665,7.6735,7.6751,7.6758,7.6773,7.6805,7.7008,7.7584,7.7382,7.704,7.6929,7.7311,7.7813,7.8152,7.8633,7.9079,7.9432,7.9442,7.9428,7.9465,7.9471,7.966,8.0114,8.087,8.1384,8.1384,8.1697,8.1939,8.2028,8.2138,8.2215,8.2188,8.2247,8.2299,8.2304,8.2304,8.2304,8.2304,8.2304,8.2304,8.2304,8.2304,8.2304,8.2304,8.2304,8.2304,5.1,5.3505,5.6186,5.8812,6.2138,6.6048,7.0974,7.3357,7.4998,7.6716,7.6523,7.6015,7.6015,7.6015,7.6015,7.6015,7.7344,7.8398,7.8398,7.9062,7.9609,7.9609,7.9648,7.9687,7.9687,8.0429,8.0898,8.0898,8.1601,8.207,8.207,8.207,8.207,8.207,8.1289,8.0898,8.0896,8.0109,7.9666,7.9561,7.9456,7.8858,7.796,7.8742,7.8966,7.8667,7.7743,7.7347,7.7207,7.643,7.6041,7.6015,7.6015,7.6015,7.6015,7.6015,7.6015,7.6015,7.6015,7.6015,7.6029,7.6062,7.6131,7.6212,7.6267,7.6343,7.6405,7.6465,7.648,7.6491,7.6585,7.6589,7.6626,7.6816,7.6918,7.693,7.679,7.6773,7.6997,7.7816,7.789,7.8094,7.8919,7.9036,7.9022,7.9027,7.9113,7.914,7.9057,7.9772,8.026,8.029,8.1121,8.1727,8.1851,8.2074,8.2162,8.2202,8.2263,8.2284,8.2299,8.2304,8.2304,8.2304,8.2304,8.2304,8.2304,8.2304,8.2304,8.2304,8.2304,8.2304,5.2573,5.5327,5.8114,6.1362,6.5272,6.914,7.2304,7.332,7.4062,7.582,7.6562,7.6914,7.6914,7.6914,7.6914,7.6914,7.7226,7.7461,7.7461,7.8203,7.875,7.875,7.9336,7.9687,7.9687,7.9883,7.9961,7.9961,8.0156,8.0273,8.0273,8.0273,8.0273,8.0273,8.0078,7.9961,7.9961,7.9793,7.9339,7.8604,7.8489,7.7867,7.6876,7.771,7.76,7.6725,7.6423,7.6328,7.6275,7.6121,7.5991,7.6015,7.6015,7.6015,7.6015,7.6015,7.6015,7.6015,7.6015,7.6015,7.6015,7.6037,7.6055,7.6131,7.6218,7.6288,7.6356,7.6382,7.6405,7.6405,7.6455,7.6422,7.6465,7.6514,7.6607,7.6664,7.6652,7.6612,7.6618,7.6798,7.6792,7.679,7.6989,7.7024,7.7008,7.7023,7.7615,7.8036,7.8025,7.8667,7.9427,8.0159,8.0473,8.0914,8.1665,8.1917,8.2065,8.2104,8.2185,8.2223,8.223,8.2257,8.2304,8.2304,8.2304,8.2304,8.2304,8.2304,8.2304,8.2304,8.2304,8.2304,5.2441,5.5302,5.8395,6.3085,6.6836,6.9883,7.164,7.2695,7.3555,7.4453,7.5664,7.6562,7.6562,7.6914,7.7187,7.7187,7.7187,7.7187,7.7187,7.7578,7.789,7.789,7.8242,7.8515,7.8515,7.8867,7.914,7.914,7.9492,7.9687,7.9687,7.9687,7.9687,7.9687,7.9336,7.9101,7.9099,7.8651,7.8187,7.7667,7.7517,7.7064,7.6365,7.6805,7.6643,7.6034,7.6037,7.6015,7.6015,7.6015,7.6015,7.6015,7.6015,7.6015,7.6015,7.6015,7.6015,7.6015,7.6015,7.6015,7.6015,7.6015,7.6005,7.6048,7.6083,7.6118,7.6159,7.6198,7.6212,7.6218,7.625,7.625,7.6268,7.6307,7.6394,7.6516,7.6477,7.6433,7.6399,7.637,7.6335,7.6311,7.6311,7.6287,7.6313,7.6305,7.6704,7.6968,7.6938,7.764,7.8295,7.8765,7.963,8.0361,8.091,8.1548,8.196,8.2036,8.2143,8.2197,8.2214,8.2243,8.2297,8.2304,8.2304,8.2304,8.2304,8.2304,8.2304,8.2304,8.2304,8.2304,5.1359,5.4802,5.8788,6.4258,6.7422,6.9414,7.0273,7.1719,7.2851,7.2851,7.4375,7.5664,7.5664,7.625,7.6758,7.6758,7.6758,7.6758,7.6758,7.6758,7.6758,7.6758,7.6875,7.6992,7.6992,7.7773,7.8281,7.8281,7.8906,7.9258,7.9258,7.9258,7.9258,7.9258,7.8633,7.8241,7.8194,7.7466,7.7071,7.6963,7.6762,7.6482,7.6172,7.595,7.5926,7.6015,7.6015,7.6015,7.6015,7.6015,7.6015,7.6015,7.6015,7.6015,7.6015,7.6015,7.6015,7.6015,7.6015,7.6015,7.6015,7.6015,7.6015,7.6015,7.6015,7.6015,7.6015,7.6015,7.6015,7.5991,7.6062,7.6076,7.609,7.6145,7.625,7.6302,7.6288,7.6257,7.6231,7.6172,7.6159,7.6159,7.6159,7.6159,7.6159,7.6159,7.6159,7.6138,7.6083,7.6724,7.7196,7.7299,7.8654,7.9718,8.0112,8.0999,8.1644,8.1921,8.208,8.2153,8.2195,8.2257,8.228,8.2297,8.2301,8.2303,8.2304,8.2304,8.2304,8.2304,8.2304,8.2304,4.9724,5.5624,6.1758,6.4844,6.6992,6.8594,6.9453,7.039,7.1055,7.1055,7.3047,7.4765,7.4765,7.4883,7.4961,7.4961,7.4961,7.4961,7.4961,7.4961,7.4961,7.4961,7.5625,7.6055,7.6055,7.6875,7.7383,7.7383,7.7461,7.7539,7.7539,7.7539,7.7539,7.7539,7.7421,7.738,7.7379,7.7188,7.7055,7.6924,7.6594,7.6338,7.6104,7.5257,7.5291,7.6015,7.6015,7.6015,7.6015,7.6015,7.6015,7.6015,7.6015,7.6015,7.6015,7.6015,7.6015,7.6015,7.6015,7.6015,7.6015,7.6015,7.6015,7.6015,7.6015,7.6015,7.6015,7.6015,7.6015,7.6015,7.6029,7.5991,7.6037,7.6005,7.6027,7.6062,7.6111,7.6069,7.6058,7.6051,7.6044,7.6044,7.6044,7.6044,7.6044,7.6044,7.6044,7.6005,7.5991,7.6106,7.6491,7.7215,7.7564,7.8388,7.9898,8.0335,8.0843,8.1694,8.191,8.2049,8.2092,8.2164,8.2205,8.2224,8.2254,8.2302,8.2302,8.2304,8.2304,8.2304,8.2304,8.2304,4.9726,5.5117,6.0078,6.2148,6.5117,6.7578,6.7969,6.9023,6.9961,6.9961,7.0937,7.2187,7.3594,7.4258,7.4609,7.4609,7.4609,7.4609,7.4609,7.4609,7.4609,7.4609,7.4922,7.5156,7.5156,7.5508,7.5742,7.5742,7.5742,7.5742,7.5742,7.5742,7.5742,7.5742,7.5741,7.5738,7.5735,7.5661,7.5486,7.5203,7.5004,7.4816,7.4641,7.4221,7.4469,7.5245,7.4776,7.4584,7.4584,7.4584,7.4861,7.5284,7.5284,7.5553,7.6015,7.6015,7.6015,7.6015,7.6015,7.6015,7.6015,7.6015,7.6015,7.6015,7.6015,7.6015,7.6015,7.6015,7.6015,7.6015,7.6015,7.6015,7.6015,7.6015,7.6015,7.6022,7.602,7.6005,7.6015,7.6015,7.6015,7.6015,7.6015,7.6015,7.6015,7.6015,7.6015,7.6015,7.6015,7.6015,7.613,7.6515,7.7013,7.768,7.8458,7.9513,8.0355,8.0866,8.1081,8.1209,8.1292,8.1371,8.1421,8.1481,8.204,8.2295,8.2301,8.2303,8.2304,8.2304,8.2304,8.2304,4.9492,5.3945,5.7656,5.9336,6.2851,6.5976,6.6172,6.7539,6.8828,6.9062,6.9297,7.0078,7.1992,7.3047,7.3672,7.3906,7.3945,7.3945,7.3945,7.3945,7.3945,7.3945,7.414,7.4258,7.4258,7.4453,7.4609,7.4609,7.4609,7.4609,7.4609,7.4609,7.4609,7.4609,7.4606,7.4601,7.4595,7.4511,7.4287,7.3893,7.3778,7.3665,7.3507,7.3276,7.3514,7.4053,7.3661,7.3507,7.3507,7.3507,7.3853,7.4392,7.4392,7.4938,7.5668,7.5668,7.5668,7.5668,7.5668,7.5553,7.5399,7.5592,7.5668,7.5707,7.5938,7.6015,7.6015,7.6015,7.6015,7.6015,7.6015,7.6015,7.6015,7.6015,7.6015,7.6015,7.6015,7.6015,7.6015,7.6015,7.6015,7.6015,7.6015,7.6015,7.6015,7.6015,7.6015,7.6015,7.6015,7.6015,7.6015,7.6015,7.6592,7.7083,7.7333,7.8567,7.95,7.9864,8.0024,8.0169,8.0299,8.0351,8.0563,8.0828,8.1557,8.2032,8.2253,8.2257,8.2261,8.2304,8.2304,8.2304,4.8047,5.2148,5.5859,5.7617,6.0625,6.3437,6.4258,6.5781,6.7265,6.8086,6.8867,6.9453,6.9648,7.0351,7.1172,7.1992,7.2148,7.2148,7.2148,7.2148,7.2148,7.2148,7.2851,7.3359,7.3359,7.4101,7.4609,7.4609,7.4609,7.4609,7.4609,7.4608,7.4607,7.4607,7.4596,7.4587,7.4586,7.4461,7.4251,7.3893,7.3817,7.3702,7.3469,7.2629,7.229,7.2367,7.3168,7.3507,7.3507,7.3507,7.3507,7.3546,7.3546,7.4046,7.4776,7.4776,7.4776,7.4776,7.4776,7.4276,7.3776,7.4507,7.4776,7.4938,7.5745,7.6015,7.6015,7.6015,7.6015,7.6015,7.6015,7.6015,7.6015,7.6015,7.6015,7.6015,7.6015,7.6015,7.6015,7.6015,7.6015,7.6015,7.6015,7.6015,7.6015,7.6015,7.6015,7.6015,7.6015,7.6015,7.6015,7.6015,7.6053,7.6399,7.7222,7.7449,7.7873,7.8727,7.8908,7.9039,7.9163,7.9312,7.9793,8.0683,8.0838,8.1306,8.2193,8.2226,8.2245,8.2294,8.23,8.2304,4.5625,4.9141,5.2578,5.4844,5.8398,6.1562,6.2422,6.3984,6.5469,6.6367,6.6758,6.7305,6.8437,6.9375,7.0039,7.0273,7.0312,7.0312,7.0312,7.0312,7.0547,7.1094,7.1445,7.1836,7.2422,7.2734,7.293,7.293,7.2929,7.2928,7.2928,7.2925,7.2922,7.2922,7.2912,7.2893,7.2864,7.2796,7.2627,7.2356,7.2256,7.2072,7.1883,7.1534,7.136,7.136,7.1706,7.1822,7.1822,7.1822,7.2168,7.2668,7.2668,7.3168,7.393,7.393,7.393,7.393,7.393,7.3738,7.3546,7.3853,7.393,7.4007,7.4315,7.4392,7.4507,7.5007,7.5168,7.5284,7.5861,7.6015,7.6015,7.6015,7.6015,7.6015,7.6015,7.6015,7.6015,7.6015,7.6015,7.6015,7.6015,7.6015,7.6015,7.6015,7.6015,7.6015,7.6015,7.6015,7.6015,7.6015,7.6015,7.613,7.6438,7.7006,7.748,7.7828,7.7923,7.8,7.8131,7.8271,7.8515,7.8915,7.9995,8.1088,8.2143,8.2121,8.2154,8.2231,8.2236,8.2251,4.4219,4.7109,4.9922,5.25,5.5937,5.8984,6.0156,6.1992,6.3672,6.4531,6.4961,6.5625,6.707,6.7812,6.8476,6.9297,6.9414,6.9414,6.9414,6.9414,6.9609,7.0195,7.0273,7.0625,7.1484,7.1562,7.168,7.1992,7.1991,7.1989,7.1987,7.1981,7.2014,7.2011,7.2004,7.1983,7.1891,7.1853,7.1709,7.1495,7.1358,7.118,7.0998,7.0932,7.0898,7.0898,7.0898,7.0898,7.0898,7.0898,7.1245,7.1752,7.1752,7.2283,7.3053,7.3053,7.3053,7.3053,7.3053,7.2853,7.2661,7.2976,7.3053,7.3129,7.3392,7.3507,7.3623,7.4161,7.4507,7.4815,7.5399,7.5553,7.5553,7.5553,7.5553,7.5553,7.5553,7.5784,7.6015,7.6015,7.6015,7.6015,7.6015,7.6015,7.6015,7.6015,7.6015,7.6015,7.6015,7.6015,7.6015,7.6015,7.6015,7.6015,7.6015,7.6515,7.689,7.6941,7.6945,7.6989,7.7074,7.7183,7.7423,7.7793,7.8899,8.0141,8.145,8.1814,8.1999,8.2072,8.2144,8.2191,0.0,0.0,0.0,5.0703,5.3281,5.5664,5.7383,5.9765,6.1836,6.2695,6.3594,6.4492,6.5351,6.5547,6.6406,6.8945,6.9336,6.9336,6.9414,6.9375,6.9336,6.9375,6.9375,6.9726,7.0586,7.0664,7.1015,7.1872,7.1911,7.1948,7.1941,7.1972,7.2001,7.1989,7.1987,7.1972,7.1891,7.1908,7.177,7.1495,7.1354,7.1214,7.1005,7.0932,7.0898,7.0898,7.0898,7.0898,7.0898,7.0898,7.0898,7.0898,7.0898,7.1398,7.2175,7.2175,7.2175,7.2175,7.2175,7.1591,7.1052,7.1905,7.2175,7.2329,7.3161,7.343,7.343,7.343,7.4007,7.4623,7.4661,7.4661,7.4661,7.4661,7.4661,7.4661,7.4661,7.5322,7.5938,7.5976,7.6015,7.6015,7.6015,7.6015,7.6015,7.6015,7.6015,7.6015,7.6015,7.6015,7.6015,7.6015,7.6015,7.6015,7.6015,7.6015,7.6015,7.6015,7.6015,7.6012,7.609,7.6159,7.6617,7.7543,7.7561,7.8442,8.0111,8.1163,8.1701,8.1793,8.202,8.217,4.3476,0.0,0.0,0.0,0.0,0.0,5.4844,5.7109,5.9219,6.0078,6.1406,6.2695,6.3555,6.4219,6.4883,6.5625,6.6797,6.7617,6.7617,6.7617,6.7812,6.8476,6.8515,6.8867,6.9765,6.9804,6.9842,7.0115,7.0108,7.0374,7.1035,7.165,7.1991,7.1987,7.1987,7.1972,7.1891,7.1908,7.1782,7.1581,7.1407,7.1236,7.1068,7.0952,7.0898,7.0898,7.0898,7.0898,7.0898,7.0898,7.0898,7.0898,7.0898,7.1052,7.1245,7.1245,7.1245,7.1245,7.1245,7.1091,7.0937,7.1168,7.1245,7.1283,7.1552,7.1629,7.1745,7.2399,7.2706,7.3053,7.3661,7.3815,7.3815,7.3815,7.3815,7.3815,7.3815,7.4007,7.4546,7.5745,7.6015,7.6015,7.6015,7.6015,7.6015,7.6015,7.6015,7.6015,7.6015,7.6015,7.6015,7.6015,7.6015,7.6015,7.6015,7.6015,7.6015,7.6015,7.6015,7.6022,7.6051,7.6083,7.6254,7.6506,7.7136,7.7683,7.8184,7.9814,8.1004,8.1732,8.199,8.214,4.4766,4.5781,4.6797,4.8906,0.0,0.0,5.3242,5.5195,5.707,5.793,5.918,6.0469,6.168,6.2344,6.289,6.3633,6.4609,6.5547,6.625,6.668,6.7109,6.7617,6.7656,6.8008,6.8867,6.8905,6.9059,6.937,6.9399,6.9779,7.0633,7.1171,7.1594,7.194,7.1979,7.1918,7.1865,7.1838,7.1706,7.1499,7.1373,7.1208,7.1056,7.0952,7.0898,7.0898,7.0898,7.0898,7.0898,7.0898,7.0898,7.0898,7.0898,7.0898,7.0898,7.0898,7.0898,7.0898,7.0898,7.0898,7.0898,7.0898,7.0898,7.0898,7.0898,7.0898,7.1014,7.1514,7.1905,7.2399,7.3276,7.3238,7.2976,7.2976,7.2976,7.2976,7.2976,7.3238,7.3892,7.5207,7.5476,7.5553,7.5938,7.6015,7.6015,7.6015,7.6015,7.6015,7.6015,7.6015,7.6015,7.6015,7.6015,7.6015,7.6015,7.6015,7.6015,7.6015,7.6015,7.6015,7.6015,7.602,7.6048,7.6048,7.6542,7.7004,7.735,7.9176,8.0626,8.1672,8.189,8.202,4.6992,4.7109,4.7148,4.9453,5.0664,0.0,5.2266,5.3789,5.5234,5.6015,5.6953,5.8086,5.957,6.0,6.0625,6.2187,6.2656,6.3515,6.5351,6.6289,6.6797,6.6875,6.6914,6.7187,6.7969,6.8045,6.8354,6.9052,6.9199,6.9577,7.0383,7.0576,7.1037,7.1725,7.184,7.185,7.1808,7.1734,7.1587,7.1402,7.1329,7.1184,7.0998,7.0932,7.0898,7.0898,7.0898,7.0898,7.0898,7.0898,7.0898,7.0898,7.0898,7.0898,7.0898,7.0898,7.0898,7.0898,7.0898,7.0898,7.0898,7.0898,7.0898,7.0898,7.0898,7.0898,7.0898,7.0898,7.1475,7.2245,7.3007,7.2629,7.2059,7.2059,7.2059,7.2059,7.2059,7.2668,7.343,7.4238,7.4507,7.4853,7.5707,7.5861,7.5899,7.5976,7.6015,7.6015,7.6015,7.6015,7.6015,7.6015,7.6015,7.6015,7.6015,7.6015,7.6015,7.6015,7.6015,7.6015,7.6015,7.6015,7.6015,7.6015,7.6015,7.6438,7.7292,7.8943,8.0272,8.127,8.1514,8.1676,4.7656,4.8008,4.8516,4.9023,4.9805,0.0,5.0664,5.1992,5.3242,5.3437,5.4726,5.5898,5.6211,5.7422,5.8515,5.8828,6.0625,6.2812,6.5273,6.5742,6.6094,6.6836,6.6914,6.6953,6.7148,6.7145,6.7217,6.7372,6.7972,6.8414,6.8593,6.9878,7.0686,7.086,7.1523,7.1835,7.1738,7.1594,7.1482,7.1391,7.1224,7.1093,7.0998,7.0932,7.0898,7.0898,7.0898,7.0898,7.0898,7.0898,7.0898,7.0898,7.0898,7.0898,7.0898,7.0898,7.0898,7.0898,7.0898,7.0898,7.0898,7.0898,7.0898,7.0898,7.0898,7.0898,7.0898,7.0898,7.1014,7.1206,7.136,7.1283,7.1168,7.1168,7.1168,7.1168,7.1168,7.1283,7.1668,7.2514,7.3245,7.4007,7.4815,7.493,7.52,7.5899,7.6015,7.6015,7.6015,7.6015,7.6015,7.6015,7.6015,7.6015,7.6015,7.6015,7.6015,7.6015,7.6015,7.6015,7.6015,7.6015,7.6015,7.6015,7.6015,7.6438,7.7292,7.8334,7.9019,7.9308,8.0123,8.0586,5.0781,5.0781,5.0898,5.1328,5.1445,0.0,0.0,5.1758,5.2187,5.2617,5.3398,5.4141,5.457,5.5351,5.6094,5.6523,5.8047,5.9922,6.2109,6.3867,6.5117,6.5547,6.5586,6.5586,6.5586,6.5582,6.5608,6.5549,6.6289,6.6915,6.7321,6.8515,6.9585,7.0413,7.0823,7.1198,7.1559,7.1468,7.1353,7.1241,7.1118,7.1018,7.0952,7.0912,7.0898,7.0898,7.0898,7.0898,7.0898,7.0898,7.0898,7.0898,7.0898,7.0898,7.0898,7.0898,7.0898,7.0898,7.0898,7.0898,7.0898,7.0898,7.0898,7.0898,7.0898,7.0898,7.0898,7.0898,7.0898,7.0898,7.0898,7.0898,7.0898,7.0898,7.0898,7.0898,7.0898,7.0898,7.1014,7.1475,7.1898,7.2738,7.4392,7.47,7.5007,7.5861,7.6015,7.6015,7.6015,7.6015,7.6015,7.6015,7.6015,7.6015,7.6015,7.6015,7.6015,7.6015,7.6015,7.6015,7.6015,7.6015,7.6015,7.6015,7.6015,7.6207,7.663,7.7097,7.7771,7.8665,7.9198,7.9522,5.3903,5.3475,5.3086,5.3632,5.3203,5.2656,0.0,0.0,0.0,5.2305,5.2461,5.2656,5.3359,5.3633,5.3984,5.4687,5.5664,5.6836,5.8242,6.0976,6.3047,6.3711,6.3789,6.3867,6.4023,6.4174,6.4267,6.4162,6.4927,6.5617,6.628,6.7223,6.8394,6.9718,6.988,7.024,7.0869,7.0965,7.0969,7.085,7.0941,7.0875,7.0667,7.0667,7.0667,7.0667,7.0667,7.0744,7.0898,7.0898,7.0898,7.0898,7.0898,7.0898,7.0898,7.0898,7.0898,7.0898,7.0898,7.0898,7.0898,7.0898,7.0898,7.0898,7.0898,7.0898,7.0898,7.0898,7.0898,7.0898,7.0898,7.0898,7.0898,7.0898,7.0898,7.0898,7.0898,7.0898,7.0898,7.0898,7.0898,7.1629,7.386,7.4353,7.4776,7.563,7.5899,7.6015,7.6015,7.6015,7.6015,7.6015,7.6015,7.6015,7.6015,7.6015,7.6015,7.6015,7.6015,7.6015,7.6015,7.6015,7.6015,7.6015,7.6015,7.6015,7.6015,7.6015,7.6705,7.8118,7.8336,7.8515,5.4406,5.3941,5.3709,5.3002,5.277,5.2498,5.1717,0.0,5.1445,5.1523,0.0,5.1562,5.168,0.0,0.0,5.2968,5.4374,5.5506,5.5737,5.6752,5.8589,6.1639,6.1988,6.23,6.3084,6.3773,6.4156,6.405,6.4756,6.522,6.5191,6.673,6.7674,6.7813,6.8554,6.8965,6.8999,6.9666,6.9975,6.9971,7.0599,7.052,6.986,6.986,6.986,6.986,6.986,7.0244,7.0898,7.0898,7.0898,7.0898,7.0898,7.0898,7.0898,7.0898,7.0898,7.0898,7.0898,7.0898,7.0898,7.0898,7.0898,7.0898,7.0898,7.0898,7.0898,7.0898,7.0898,7.0898,7.0898,7.0898,7.0898,7.0898,7.0898,7.0898,7.0898,7.0898,7.0898,7.0898,7.0898,7.1245,7.2283,7.3129,7.3892,7.4738,7.5515,7.6015,7.6015,7.6015,7.6015,7.6015,7.6015,7.6015,7.6015,7.6015,7.6015,7.6015,7.6015,7.6015,7.6015,7.6015,7.6015,7.6015,7.6015,7.6015,7.6015,7.6015,7.6099,7.6299,7.7083,7.748,5.7103,5.6571,5.5998,5.5102,5.417,5.3237,5.2342,5.1757,5.1406,5.1406,0.0,0.0,0.0,0.0,0.0,0.0,5.2967,5.3786,5.3779,5.4554,5.5961,5.839,5.913,5.9748,6.0595,6.0993,6.1125,6.1002,6.2178,6.2809,6.2698,6.4759,6.6198,6.6669,6.7448,6.8104,6.8592,6.8866,6.9008,6.8976,6.9296,6.9276,6.893,6.893,6.893,6.893,6.893,6.9122,6.943,6.943,6.943,6.9507,7.0014,7.0475,7.0898,7.0898,7.0898,7.0898,7.0898,7.0898,7.0898,7.0898,7.0898,7.0898,7.0898,7.0898,7.0898,7.0898,7.0898,7.0898,7.0898,7.0898,7.0898,7.0898,7.0898,7.0898,7.0898,7.0898,7.0898,7.0898,7.0898,7.1014,7.136,7.2168,7.3206,7.4507,7.5007,7.5438,7.5938,7.6015,7.6015,7.6015,7.5553,7.5245,7.5245,7.4822,7.4745,7.5207,7.5707,7.6015,7.6015,7.6015,7.6015,7.6015,7.6015,7.6015,7.6015,7.6015,7.6015,7.6015,7.6361,7.6575,5.9022,5.8352,5.7525,5.6397,5.5045,5.3692,5.2566,5.183,5.1482,5.1716,5.156,0.0,0.0,0.0,5.1402,5.1397,0.0,5.2212,5.1999,5.2496,5.363,5.5559,5.6531,5.7296,5.7877,5.8341,5.854,5.8404,6.0097,6.1099,6.0946,6.3367,6.5047,6.5664,6.6459,6.716,6.7788,6.7962,6.8045,6.8045,6.8276,6.8276,6.8045,6.8045,6.8045,6.8045,6.8045,6.816,6.8391,6.8391,6.8391,6.8468,6.9084,6.9706,7.0283,7.0744,7.0898,7.0898,7.0898,7.0898,7.0898,7.0898,7.0898,7.0898,7.0898,7.0898,7.0898,7.0898,7.0898,7.0898,7.0898,7.0898,7.0898,7.0898,7.0898,7.0898,7.0898,7.0898,7.0898,7.0898,7.0898,7.0898,7.0898,7.1629,7.2598,7.3822,7.4199,7.4584,7.5245,7.5322,7.5322,7.5322,7.4745,7.4353,7.4353,7.3853,7.3738,7.4315,7.5168,7.563,7.563,7.5861,7.6015,7.6015,7.6015,7.6015,7.6015,7.6015,7.6015,7.6015,7.6015,7.6015,5.9035,5.8272,5.7305,5.5584,5.4531,5.3442,5.1729,5.1361,5.165,5.2468,5.2,5.1649,5.2507,5.1961,5.137,5.1305,5.1339,0.0,0.0,5.0116,5.1108,5.3681,5.4713,5.5188,5.5236,5.6625,5.7505,5.7342,5.963,6.0969,6.0804,6.3211,6.4634,6.4634,6.548,6.5942,6.5981,6.675,6.7135,6.7135,6.8007,6.7975,6.7135,6.7135,6.7135,6.7135,6.7135,6.7628,6.8391,6.8391,6.8391,6.8391,6.843,6.8468,6.866,7.0283,7.0898,7.0898,7.0898,7.0898,7.0898,7.0898,7.0898,7.0898,7.0898,7.0898,7.0898,7.0898,7.0898,7.0898,7.0898,7.0898,7.0898,7.0898,7.0898,7.0898,7.0898,7.0898,7.0898,7.0898,7.0898,7.0898,7.0898,7.1629,7.2213,7.229,7.3014,7.3546,7.3584,7.3584,7.3584,7.3584,7.3546,7.3546,7.3546,7.3507,7.3507,7.3546,7.4315,7.4738,7.4738,7.5553,7.6015,7.6015,7.6015,7.6015,7.6015,7.6015,7.6015,7.6015,7.6015,7.6015,0.0,0.0,5.8755,5.71,5.5625,5.4268,5.3135,5.2503,5.2366,5.3184,5.3145,5.3029,5.33,5.2678,5.2126,5.2099,5.1593,5.0914,0.0,4.9315,4.9481,5.0945,5.19,5.2863,5.3935,5.4545,5.5045,5.55,5.6773,5.8037,5.9094,6.1012,6.2589,6.3698,6.4589,6.532,6.5897,6.6173,6.6327,6.6327,6.659,6.659,6.6327,6.6327,6.6327,6.6327,6.6327,6.6474,6.6744,6.6744,6.6744,6.6782,6.7321,6.7552,6.7744,6.9475,7.0129,7.0167,7.0706,7.0898,7.0898,7.0898,7.0898,7.0898,7.0898,7.0898,7.0898,7.0898,7.0898,7.0898,7.0898,7.0898,7.0898,7.0898,7.0898,7.0898,7.0898,7.0898,7.0898,7.0898,7.0898,7.0898,7.0898,7.1129,7.1552,7.2098,7.2437,7.286,7.343,7.3507,7.3507,7.3507,7.2976,7.2629,7.2629,7.2629,7.2629,7.2629,7.3437,7.4123,7.4661,7.4976,7.5399,7.5976,7.6015,7.6015,7.6015,7.6015,7.6015,7.6015,7.6015,7.6015,6.1075,6.0497,0.0,5.818,5.6558,0.0,5.4284,5.3464,5.3099,5.3916,5.3838,5.3722,5.4033,5.318,5.2433,5.2408,5.1436,5.0254,0.0,4.8318,4.8213,4.9088,5.0002,5.1111,5.243,5.2813,5.322,5.3676,5.5027,5.6436,5.7786,5.9704,6.155,6.3237,6.416,6.5013,6.5897,6.5904,6.5904,6.5904,6.5904,6.5904,6.5904,6.5904,6.5904,6.5904,6.5904,6.5904,6.5904,6.5904,6.5904,6.5942,6.6481,6.6673,6.6865,6.859,6.9436,6.9821,7.0629,7.0898,7.0898,7.0898,7.0898,7.0898,7.0898,7.0898,7.0898,7.0898,7.0898,7.0898,7.0898,7.0898,7.0898,7.0898,7.0898,7.0898,7.0898,7.0898,7.0898,7.0898,7.0898,7.0898,7.0898,7.0898,7.1091,7.1629,7.1745,7.1937,7.2507,7.2584,7.2584,7.2584,7.2052,7.1745,7.1745,7.1745,7.1745,7.1745,7.2552,7.3283,7.3783,7.4123,7.4546,7.5091,7.513,7.513,7.513,7.5399,7.5553,7.5553,7.5861,7.6015]}]]